     2              OBSERVATION DATA    G (GPS)             RINEX VERSION / TYPE
ASRINEXO V2.9.9 LH AIUB 01-FEB- 1 16:19                     PGM / RUN BY / DATE
BERN ASHTECH Z-12                                           COMMENT
BIT 2 OF LLI (+4) FLAGS DATA COLLECTED UNDER "AS" CONDITION COMMENT
USNB                                                        MARKER NAME
                                                            OBSERVER / AGENCY
? ASHTECH Z-XII3 1D15                                       REC # / TYPE / VERS
? CHOKE RING                                                ANT # / TYPE
  1112115.2200 -4842825.5800  3985435.4900                  APPROX POSITION XYZ
        0.0000        0.0000        0.0000                  ANTENNA: DELTA H/E/N
     1     1                                                WAVELENGTH FACT L1/2
     5    C1    L1    L2    P1    P2                        # / TYPES OF OBSERV
  2000     4     3     0     0   30.000000                  TIME OF FIRST OBS
                                                            END OF HEADER
 00  4  3  0  0 30.0000000  0  6 13 17 06 26 24 10
  22971281.040    -9180963.114 8  -7137116.51946  22971283.294    22971290.1174
  23394098.133    -7667553.339 8  -5956335.55246  23394098.631    23394112.0434
  21025406.793   -20268736.847 9 -15773780.11847  21025410.020    21025419.5004
  20973520.342   -20385137.673 9 -15587504.41547  20973522.328    20973532.1184
  22062234.228   -14469062.697 8 -11252585.39847  22062238.928    22062249.5834
  21080260.413   -18276119.051 9 -14213423.20447  21080262.631    21080271.9474
 00  4  3  0  1  0.0000000  0  6 13 17 06 26 24 10
  22985906.606    -9104110.916 8  -7077231.69446  22985907.808    22985915.1204
  23377245.614    -7756095.453 8  -6025329.31346  23377251.320    23377263.3574
  21022752.024   -20282694.220 9 -15784656.00847  21022754.367    21022763.6814
  20958804.984   -20462470.067 9 -15647763.36647  20958806.267    20958816.1674
  22073552.823   -14409575.111 8 -11206231.49747  22073559.177    22073570.6174
  21090663.057   -18221448.675 9 -14170822.90447  21090666.810    21090675.8254
 00  4  3  0  1 30.0000000  0  6 13 17 06 26 24 10
  23000607.212    -9026848.566 8  -7017027.29346  23000609.411    23000617.9804
  23360411.670    -7844571.534 8  -6094271.64546  23360414.196    23360426.0814
  21020208.169   -20296048.666 9 -15795062.06847  21020212.906    21020222.4184
  20944178.334   -20539324.999 9 -15707650.26647  20944181.016    20944190.9794
  22084918.194   -14349846.590 8 -11159689.86547  22084925.230    22084935.8904
  21101112.547   -18166551.972 9 -14128046.24647  21101112.973    21101122.3754
 00  4  3  0  2  0.0000000  0  6 13 17 06 26 24 10
  23015378.893    -8949196.799 8  -6956519.43446  23015386.563    23015394.5104
  23343585.219    -7932983.425 8  -6163163.96446  23343589.468    23343602.5364
  21017781.367   -20308808.261 9 -15805004.61447  21017784.815    21017794.3914
  20929645.384   -20615689.786 9 -15767155.22747  20929649.268    20929659.0974
  22096329.520   -14289887.316 8 -11112968.42446  22096334.588    22096346.3624
  21111601.122   -18111417.420 9 -14085084.27747  21111604.340    21111613.8674
 00  4  3  0  2 30.0000000  0  6 13 17 06 26 24 10
  23030232.307    -8871168.524 8  -6895718.15646  23030234.353    23030244.7744
  23326771.548    -8021356.155 8  -6232025.72646  23326773.341    23326786.1064
  21015466.166   -20320979.571 9 -15814488.75547  21015468.844    21015478.0264
  20915210.941   -20691538.113 9 -15826257.73047  20915215.620    20915225.7454
  22107785.004   -14229690.726 8 -11066062.06146  22107790.570    22107801.0274
  21122140.506   -18056049.057 9 -14041940.09147  21122140.905    21122150.4534
 00  4  3  0  3  0.0000000  0  6 13 17 06 26 24 10
  23045152.150    -8792762.717 8  -6834622.75246  23045155.161    23045164.9724
  23309959.298    -8109711.872 8  -6300874.21946  23309959.842    23309971.9724
  21013262.082   -20332560.990 9 -15823513.23047  21013264.759    21013273.9694
  20900877.912   -20766865.821 9 -15884954.55247  20900881.153    20900891.2034
  22119286.515   -14169258.292 8 -11018971.91346  22119290.250    22119301.7044
  21132718.034   -18000446.470 9 -13998613.41847  21132721.523    21132731.2394
 00  4  3  0  3 30.0000000  0  6 13 17 06 26 24 10
  23060143.779    -8713983.179 8  -6773236.11046  23060146.878    23060155.4944
  23293139.754    -8198060.621 8  -6369717.29246  23293146.492    23293159.6434
  21011170.388   -20343548.503 9 -15832074.94347  21011173.696    21011183.3654
  20886639.401   -20841686.867 9 -15943256.58247  20886643.096    20886653.2514
  22130827.450   -14108592.956 8 -10971700.27346  22130833.581    22130845.8104
  21143339.164   -17944638.953 9 -13955127.06147  21143341.264    21143351.0534
 00  4  3  0  4  0.0000000  0  6 13 17 06 26 24 10
  23075203.642    -8634837.481 8  -6711564.10646  23075207.363    23075216.5704
  23276333.532    -8286407.387 8  -6438558.80746  23276333.732    23276346.7604
  21009194.173   -20353937.830 9 -15840170.52647  21009197.007    21009206.2344
  20872495.920   -20916007.044 9 -16001168.30547  20872499.995    20872510.0544
  22142419.618   -14047680.643 8 -10924236.21446  22142425.037    22142436.8804
  21153993.046   -17888640.876 9 -13911492.19347  21153996.451    21154007.1404
 00  4  3  0  4 30.0000000  0  6 13 17 06 26 24 10
  23090330.579    -8555321.260 8  -6649603.45146  23090338.878    23090348.2624
  23259523.829    -8374751.638 8  -6507398.35946  23259523.756    23259534.3124
  21007329.901   -20363731.137 9 -15847801.67647  21007333.576    21007342.8214
  20858447.991   -20989835.230 9 -16058696.65847  20858451.097    20858460.7194
  22154063.206   -13986509.270 8 -10876570.27646  22154066.493    22154077.5994
  21164685.466   -17832453.638 9 -13867709.94047  21164688.726    21164699.3864
 00  4  3  0  5  0.0000000  0  6 13 17 06 26 24 10
  23105540.790    -8475430.977 8  -6587351.27546  23105541.504    23105549.8294
  23242713.889    -8463075.337 8  -6576221.97946  23242716.173    23242727.5654
  21005581.317   -20372928.774 9 -15854968.65947  21005583.015    21005592.3204
  20844488.588   -21063189.492 9 -16115855.72947  20844492.204    20844501.8924
  22165752.301   -13925078.955 8 -10828702.56846  22165755.697    22165767.0274
  21175416.671   -17776077.178 9 -13823780.22047  21175417.515    21175427.1024
 00  4  3  0  5 30.0000000  0  6 13 17 06 26 24 10
  23120815.125    -8395166.162 8  -6524807.26246  23120814.921    23120823.0204
  23225908.333    -8551378.920 8  -6645029.87446  23225911.439    23225924.0304
  21003941.514   -20381536.852 9 -15861676.24847  21003944.895    21003954.2954
  20830619.115   -21136072.523 9 -16172647.60947  20830623.114    20830632.6624
  22177493.996   -13863379.779 8 -10780625.36346  22177497.517    22177508.8684
  21186177.735   -17719514.058 9 -13779705.05147  21186181.278    21186190.5304
 00  4  3  0  6  0.0000000  0  6 13 17 06 26 24 10
  23136156.037    -8314535.905 8  -6461978.49646  23136158.288    23136166.3204
  23209108.746    -8639664.293 8  -6713823.54746  23209111.788    23209122.6324
  21002417.400   -20389556.696 9 -15867925.46047  21002418.852    21002428.0854
  20816843.152   -21208473.435 9 -16229063.80647  20816845.424    20816855.3644
  22189285.655   -13801408.594 8 -10732336.18946  22189289.639    22189301.1354
  21196982.759   -17662750.878 9 -13735473.99647  21196983.066    21196992.4974
 00  4  3  0  6 30.0000000  0  6 13 17 06 26 24 10
  23151569.063    -8233531.503 8  -6398858.18246  23151572.690    23151581.5954
  23192311.904    -8727913.974 8  -6782589.44246  23192319.276    23192328.4344
  21001003.214   -20396981.261 9 -15873710.83747  21001005.696    21001015.2524
  20803160.868   -21280380.190 9 -16285094.94247  20803162.118    20803171.4324
  22201130.968   -13739173.543 8 -10683841.40746  22201133.487    22201144.3804
  21207821.317   -17605786.602 9 -13691086.25447  21207822.753    21207831.9104
 00  4  3  0  7  0.0000000  0  6 13 17 06 26 24 10
  23167050.630    -8152156.144 8  -6335448.81946  23167058.445    23167067.2424
  23175529.602    -8816116.682 8  -6851318.75746  23175534.025    23175544.6194
  20999705.815   -20403802.084 9 -15879025.77947  20999708.084    20999717.1774
  20789570.305   -21351776.205 9 -16340728.10347  20789575.844    20789585.0364
  22213025.593   -13676669.965 8 -10635137.40246  22213027.289    22213038.9764
  21218698.953   -17548628.164 9 -13646547.22247  21218699.465    21218709.2334
 00  4  3  0  7 30.0000000  0  6 13 17 06 26 24 10
  23182610.273    -8070418.870 8  -6271757.43546  23182612.534    23182621.2564
  23158757.664    -8904269.630 8  -6920009.29046  23158759.237    23158770.2424
  20998523.933   -20410014.511 9 -15883866.63047  20998525.747    20998534.6864
  20776084.796   -21422645.809 9 -16395951.06547  20776089.480    20776099.3164
  22224962.482   -13613898.651 8 -10586224.75546  22224971.601    22224983.1164
  21229613.462   -17491265.689 9 -13601849.16247  21229615.080    21229625.0464
 00  4  3  0  8  0.0000000  0  6 13 17 06 26 24 10
  23198232.172    -7988338.172 8  -6207798.46246  23198232.117    23198240.8474
  23141992.364    -8992358.115 8  -6988649.59446  23141996.455    23142008.3584
  20997455.122   -20415622.188 9 -15888236.25847  20997458.549    20997468.2664
  20762704.054   -21492975.473 9 -16450753.28947  20762706.250    20762715.9524
  22236960.853   -13550870.011 8 -10537111.58446  22236965.964    22236977.0114
  21240570.494   -17433692.343 9 -13556986.82647  21240571.416    21240580.6834
 00  4  3  0  8 30.0000000  0  6 13 17 06 26 24 10
  23213915.255    -7905911.640 8  -6143570.00946  23213917.191    23213925.5854
  23125245.541    -9080376.094 8  -7057234.97146  23125248.073    23125259.9434
  20996502.067   -20420631.650 9 -15892139.74647  20996505.609    20996514.8014
  20749419.736   -21562763.903 9 -16505133.78147  20749425.801    20749435.8924
  22249005.314   -13487589.556 8 -10487802.22946  22249007.626    22249018.7594
  21251564.298   -17375919.054 9 -13511968.70047  21251565.831    21251574.6974
 00  4  3  0  9  0.0000000  0  7 13 17 06 26 24 08 10
  23229662.817    -7823149.399 8  -6079079.98746  23229666.022    23229674.3474
  23108500.225    -9168341.441 8  -7125779.31346  23108507.665    23108518.9654
  20995660.130   -20425058.817 9 -15895589.46947  20995662.918    20995672.1864
  20736245.983   -21632020.016 9 -16559099.49347  20736246.930    20736256.3074
  22261096.700   -13424065.276 8 -10438302.86646  22261096.061    22261107.5024
  24400077.345    -3605422.74617  -2802871.43855  24400080.432    24400091.9994
  21262592.506   -17317954.414 9 -13466801.45047  21262595.769    21262605.3184
 00  4  3  0  9 30.0000000  0  7 13 17 06 26 24 08 10
  23245475.517    -7740052.520 8  -6014329.17246  23245479.963    23245486.9664
  23091774.360    -9256268.004 8  -7194293.39446  23091775.593    23091787.9854
  20994927.377   -20428920.365 9 -15898598.45447  20994928.175    20994937.5424
  20723164.771   -21700749.578 9 -16612654.90547  20723168.083    20723177.4684
  22273229.439   -13360308.022 8 -10388621.96346  22273228.866    22273239.5784
  24394658.863    -3633946.991 7  -2825097.93045  24394651.769    24394665.3904
  21273661.376   -17259798.459 9 -13421485.13747  21273662.522    21273671.9364
 00  4  3  0 10  0.0000000  0  7 13 17 06 26 24 08 10
  23261346.495    -7656602.697 8  -5949303.30546  23261359.290    23261367.8694
  23075053.927    -9344154.419 8  -7262776.24246  23075051.964    23075063.8164
  20994298.393   -20432217.354 9 -15901167.55147  20994300.775    20994310.3214
  20710185.340   -21768955.154 9 -16665802.00447  20710189.148    20710198.3134
  22285406.829   -13296314.844 8 -10338757.21246  22285406.390    22285417.1644
  24389301.091    -3662014.863 7  -2846968.81945  24389310.715    24389323.5554
  21284761.725   -17201464.027 9 -13376029.71847  21284762.998    21284772.2714
 00  4  3  0 10 30.0000000  0  7 13 17 06 26 24 08 10
  23277309.581    -7572783.752 8  -5883989.82046  23277309.719    23277317.9884
  23058329.994    -9432012.082 8  -7331236.67546  23058332.901    23058344.8374
  20993781.697   -20434934.712 9 -15903284.99347  20993783.765    20993793.3634
  20697304.952   -21836647.475 9 -16718549.17047  20697306.972    20697316.8274
  22297620.782   -13232079.411 8 -10288703.69846  22297629.704    22297641.2664
  24384056.126    -3689599.188 7  -2868462.92545  24384062.561    24384073.9344
  21295891.180   -17142955.968 9 -13330439.01047  21295896.778    21295906.2064
 00  4  3  0 11  0.0000000  0  7 13 17 06 26 24 08 10
  23293328.423    -7488593.440 8  -5818386.95846  23293330.388    23293339.1274
  23041616.945    -9519843.630 8  -7399676.75346  23041618.786    23041630.8534
  20993374.151   -20437069.159 9 -15904948.21247  20993377.276    20993386.7604
  20684522.179   -21903822.230 9 -16770893.03147  20684524.604    20684534.0524
  22309901.295   -13167589.300 8 -10238451.73846  22309902.565    22309913.6224
  24378897.549    -3716698.615 7  -2889579.18645  24378905.970    24378917.2414
  21307065.889   -17084256.960 9 -13284699.50947  21307066.590    21307076.6214
 00  4  3  0 11 30.0000000  0  7 13 17 06 26 24 08 10
  23309421.204    -7404031.622 8  -5752494.63446  23309421.862    23309430.5204
  23024910.685    -9607634.182 8  -7468084.81946  23024912.304    23024924.3024
  20993081.865   -20438606.196 9 -15906145.89747  20993085.354    20993094.3374
  20671838.402   -21970466.740 9 -16822823.71748  20671842.601    20671852.0144
  22322221.274   -13102825.255 8 -10187986.32746  22322226.304    22322237.9234
  24373842.912    -3743304.433 7  -2910310.80945  24373841.540    24373854.0034
  21318272.853   -17025358.201 9 -13238804.38947  21318274.624    21318284.3644
 00  4  3  0 12  0.0000000  0  7 13 17 06 26 24 08 10
  23325591.901    -7319099.933 8  -5686314.07046  23325585.097    23325593.6354
  23008213.604    -9695376.103 8  -7536455.02246  23008216.185    23008227.2964
  20992907.743   -20439522.679 9 -15906860.02347  20992910.591    20992920.1914
  20659258.466   -22036575.698 9 -16874337.10847  20659261.741    20659271.1264
  22334601.612   -13037778.543 8 -10137300.65546  22334604.597    22334616.6404
  24368869.747    -3769406.183 7  -2930649.70745  24368873.760    24368886.0354
  21329519.933   -16966265.504 9 -13192758.09847  21329519.782    21329529.5514
 00  4  3  0 12 30.0000000  0  7 13 17 06 26 24 08 10
  23341809.714    -7233818.026 8  -5619860.67846  23341812.782    23341822.2834
  22991523.492    -9783067.387 8  -7604785.77646  22991528.296    22991539.5554
  20992852.370   -20439817.527 9 -15907089.77547  20992854.543    20992864.0804
  20646781.636   -22102144.441 9 -16925429.53047  20646784.418    20646793.5124
  22347033.737   -12972454.416 8 -10086398.80546  22347034.602    22347047.2274
  24364004.778    -3794990.357 7  -2950585.22345  24364006.477    24364017.4374
  21340793.965   -16906987.477 9 -13146567.42147  21340799.171    21340809.7484
 00  4  3  0 13  0.0000000  0  7 13 17 06 26 24 08 10
  23358103.045    -7148194.772 8  -5553141.27446  23358106.054    23358115.9514
  22974853.850    -9870694.906 8  -7673066.82446  22974853.993    22974865.4094
  20992913.456   -20439498.220 9 -15906840.95847  20992915.357    20992924.6594
  20634409.923   -22167157.951 9 -16976089.29847  20634412.710    20634421.6584
  22359514.253   -12906857.181 8 -10035284.16346  22359517.465    22359529.1024
  24359233.075    -3820083.867 7  -2970138.46145  24359230.295    24359242.5424
  21352108.653   -16847542.301 9 -13100246.52247  21352111.587    21352121.4464
 00  4  3  0 13 30.0000000  0  7 13 17 06 26 24 08 10
  23374457.266    -7062247.041 8  -5486168.98846  23374461.423    23374470.1314
  22958192.052    -9958249.219 8  -7741290.82546  22958192.363    22958204.2044
  20993090.376   -20438554.661 9 -15906105.72347  20993094.443    20993104.4404
  20622144.655   -22231622.100 9 -17026320.99347  20622145.669    20622154.9584
  22372052.986   -12841004.118 8  -9983970.17446  22372049.952    22372061.3674
  24354550.191    -3844702.246 7  -2989321.39745  24354545.445    24354558.4494
  21363448.767   -16787950.944 9 -13053811.68747  21363451.857    21363461.1764
 00  4  3  0 14  0.0000000  0  7 13 17 06 26 24 08 10
  23390874.964    -6975983.230 8  -5418950.37446  23390876.685    23390885.8644
  22941542.500   -10045736.034 8  -7809462.25946  22941544.485    22941555.6524
  20993388.827   -20436994.087 9 -15904889.70247  20993391.633    20993400.9624
  20609977.732   -22295537.456 9 -17076125.04047  20609982.587    20609992.1304
  22384622.578   -12774920.775 8  -9932476.74546  22384625.243    22384637.5514
  24349953.319    -3868856.268 7  -3008142.56745  24349949.649    24349962.5224
  21374820.641   -16728211.285 9 -13007261.28847  21374819.942    21374829.3394
 00  4  3  0 14 30.0000000  0  8 13 17 06 26 24 23 08 10
  23407348.943    -6889402.137 8  -5351484.55146  23407352.829    23407362.6344
  22924907.571   -10133147.113 8  -7877574.65146  22924910.181    22924922.0284
  20993800.281   -20434835.695 9 -15903207.84847  20993802.640    20993812.1194
  20597920.657   -22358907.451 9 -17125504.12047  20597923.808    20597933.2254
  22397234.302   -12708619.614 8  -9880813.58546  22397242.047    22397252.7784
  24831777.005     -801388.00617   -605958.19854  24831786.667    24831807.5164
  24345438.937    -3892554.726 7  -3026608.70445  24345441.061    24345452.5234
  21386218.449   -16668313.735 9 -12960587.87247  21386217.952    21386227.5834
 00  4  3  0 15  0.0000000  0  8 13 17 06 26 24 23 08 10
  23423891.160    -6802492.957 8  -5283763.13846  23423891.592    23423900.0784
  22908284.616   -10220486.694 8  -7945631.32146  22908290.144    22908301.0774
  20994323.008   -20432089.181 9 -15901067.72847  20994325.236    20994334.8244
  20585965.886   -22421733.771 9 -17174459.57448  20585968.504    20585977.4824
  22409897.060   -12642088.908 8  -9828971.56346  22409902.557    22409914.3344
  24817239.806     -877856.414 7   -665543.60044  24817234.179    24817254.7924
  24341015.244    -3915808.499 7  -3044728.39145  24341016.566    24341026.8084
  21397649.746   -16608234.550 9 -12913772.92847  21397650.236    21397659.8764
 00  4  3  0 15 30.0000000  0  8 13 17 06 26 24 23 08 10
  23440488.929    -6715257.709 8  -5215787.61146  23440492.207    23440499.8194
  22891683.184   -10307761.095 8  -8013637.23346  22891682.269    22891693.4504
  20994956.107   -20428754.492 9 -15898469.27447  20994959.321    20994969.2404
  20574112.750   -22484020.762 9 -17222994.79448  20574115.318    20574124.3444
  22422600.107   -12575319.189 8  -9776943.27746  22422607.957    22422619.6734
  24802703.733     -954199.980 7   -725031.71844  24802708.593    24802726.8414
  24336674.945    -3938592.644 7  -3062482.14645  24336678.186    24336691.2204
  21409120.689   -16547949.164 9 -12866797.30447  21409122.280    21409132.4724
 00  4  3  0 16  0.0000000  0  8 13 17 06 26 24 23 08 10
  23457152.026    -6627679.568 8  -5147544.87346  23457157.481    23457166.0874
  22875077.698   -10394984.963 8  -8081603.74046  22875083.291    22875095.3954
  20995700.172   -20424838.984 9 -15895418.23147  20995704.602    20995714.4934
  20562361.413   -22545760.927 9 -17271103.93347  20562366.279    20562375.4714
  22435356.705   -12508293.788 8  -9724715.75246  22435362.367    22435374.6074
  24788199.227    -1030416.331 7   -784420.72844  24788206.696    24788222.7354
  24332439.591    -3960882.708 7  -3079850.88245  24332436.776    24332449.5244
  21420633.229   -16487449.910 9 -12819655.06547  21420634.781    21420645.0174
 00  4  3  0 16 30.0000000  0  8 13 17 06 26 24 23 08 10
  23473876.404    -6539758.828 8  -5079035.18946  23473887.499    23473896.4084
  22858489.226   -10482161.797 8  -8149533.63946  22858494.440    22858506.1084
  20996559.013   -20420333.597 9 -15891907.54747  20996562.031    20996571.9754
  20550717.661   -22606962.032 9 -17318792.99548  20550720.359    20550729.5934
  22448164.995   -12440987.430 8  -9672269.32746  22448169.715    22448182.5054
  24773731.899    -1106499.950 7   -843706.41844  24773727.933    24773742.2294
  24328299.318    -3982657.662 7  -3096818.25745  24328293.646    24328305.2924
  21432182.069   -16426752.600 9 -12772358.44547  21432185.112    21432195.1204
 00  4  3  0 17  0.0000000  0  8 13 17 06 26 24 23 08 10
  23490675.185    -6451511.627 8  -5010271.11146  23490680.431    23490689.0304
  22841911.369   -10569301.602 8  -8217434.69946  22841912.090    22841923.6124
  20997533.029   -20415219.576 9 -15887922.58347  20997534.987    20997544.9794
  20539176.417   -22667615.731 9 -17366055.49448  20539178.310    20539187.3074
  22461031.562   -12373393.331 8  -9619598.69146  22461033.383    22461045.5244
  24759264.826    -1182460.675 7   -902896.32145  24759273.551    24759290.7924
  24324244.697    -4003902.940 7  -3113372.85745  24324250.821    24324260.4284
  21443769.247   -16365863.265 9 -12724912.20547  21443772.123    21443781.7984
 00  4  3  0 17 30.0000000  0  8 13 17 06 26 24 23 08 10
  23507519.641    -6362971.982 8  -4941279.17045  23507528.317    23507537.1024
  22825335.433   -10656403.761 8  -8285306.38846  22825336.898    22825348.9004
  20998625.359   -20409483.679 9 -15883453.06447  20998626.908    20998636.4084
  20527736.513   -22727711.671 9 -17412883.40948  20527742.558    20527751.0864
  22473946.080   -12305523.886 8  -9566713.48246  22473948.416    22473960.0384
  24744839.225    -1258303.218 7   -961994.10145  24744839.281    24744856.6054
  24320297.451    -4024618.518 7  -3129514.74545  24320308.968    24320320.4504
  21455389.006   -16304802.012 9 -12677332.02047  21455392.014    21455401.2064
 00  4  3  0 18  0.0000000  0  8 13 17 06 26 24 23 08 10
  23524423.205    -6274152.622 8  -4872069.25045  23524430.371    23524439.0714
  22808765.065   -10743462.090 8  -8353143.91146  22808770.700    22808782.2534
  20999831.464   -20403133.848 9 -15878505.18347  20999835.321    20999845.0014
  20516408.070   -22787248.472 9 -17459275.62148  20516412.739    20516421.5224
  22486908.884   -12237394.900 8  -9513626.04346  22486913.007    22486924.8254
  24730427.375    -1334029.276 7  -1021001.11345  24730427.913    24730446.1974
  24316460.175    -4044818.755 7  -3145255.09245  24316464.397    24316476.3114
  21467036.298   -16243592.751 9 -12629636.47647  21467039.665    21467049.3514
 00  4  3  0 18 30.0000000  0  8 13 17 06 26 24 23 08 10
  23541373.150    -6185073.267 8  -4802656.70646  23541381.847    23541390.1244
  22792209.430   -10830457.860 8  -8420932.65846  22792214.431    22792227.1704
  21001156.766   -20396174.721 9 -15873082.49247  21001159.958    21001169.1094
  20505187.237   -22846231.020 9 -17505235.98648  20505188.599    20505197.9714
  22499922.292   -12169016.131 8  -9460343.96646  22499924.524    22499937.0044
  24716035.255    -1409645.812 7  -1079922.73145  24716037.964    24716056.6204
  24312710.567    -4064517.857 7  -3160604.89145  24312713.924    24312727.3574
  21478714.131   -16182240.162 9 -12581829.26147  21478714.626    21478724.2214
 00  4  3  0 19  0.0000000  0  8 13 17 06 26 24 23 08 10
  23558378.968    -6095737.418 8  -4733044.31646  23558381.850    23558390.3904
  22775667.416   -10917388.764 8  -8488670.93046  22775673.100    22775684.8394
  21002594.510   -20388626.216 9 -15867200.52547  21002595.908    21002605.6514
  20494067.601   -22904654.444 9 -17550760.65248  20494070.845    20494079.8834
  22512981.152   -12100400.627 8  -9406877.42746  22512981.728    22512993.7884
  24701673.830    -1485151.168 7  -1138757.81545  24701671.977    24701689.1374
  24309065.357    -4083731.740 7  -3175576.59845  24309059.881    24309070.3384
  21490413.308   -16120739.481 9 -12533906.65647  21490418.035    21490427.6804
 00  4  3  0 19 30.0000000  0  8 13 17 06 26 24 23 08 10
  23575432.983    -6006133.238 8  -4663222.82446  23575433.317    23575441.2384
  22759138.269   -11004257.984 8  -8556361.14346  22759142.050    22759154.0484
  21004137.713   -20380506.902 9 -15860873.78047  21004141.417    21004150.9034
  20483054.810   -22962525.932 9 -17595855.17948  20483057.999    20483067.3234
  22526076.759   -12031556.411 8  -9353232.67246  22526083.249    22526094.7314
  24687326.458    -1560539.389 7  -1197501.55845  24687326.385    24687342.0614
  24305491.111    -4102459.386 7  -3190169.44145  24305495.505    24305507.6174
  21502146.143   -16059107.920 9 -12485882.06747  21502145.823    21502155.7834
 00  4  3  0 20  0.0000000  0  8 13 17 06 26 24 23 08 10
  23592540.525    -5916222.582 8  -4593162.57645  23592542.850    23592550.8804
  22742620.205   -11091062.795 8  -8624001.09946  22742622.974    22742636.3434
  21005792.663   -20371816.475 9 -15854102.02447  21005795.097    21005804.3024
  20472146.879   -23019861.074 9 -17640531.84748  20472147.933    20472156.7724
  22539223.529   -11962486.539 8  -9299412.07046  22539227.198    22539238.4254
  24673006.179    -1635794.435 7  -1256141.53845  24673003.737    24673021.9214
  24302024.300    -4120679.243 7  -3204366.60545  24302027.719    24302040.2224
  21513899.364   -15997330.366 9 -12437743.73047  21513901.440    21513911.5714
 00  4  3  0 20 30.0000000  0  8 13 17 06 26 24 23 08 10
  23609708.328    -5825988.765 8  -4522850.53746  23609713.294    23609721.7594
  22726116.780   -11177797.031 8  -8691586.08146  22726117.680    22726130.1414
  21007556.997   -20362542.305 9 -15846875.41047  21007559.547    21007568.7334
  20461339.103   -23076653.030 9 -17684785.24448  20461340.853    20461349.5104
  22552413.938   -11893175.408 8  -9245403.48546  22552416.713    22552428.2894
  24658709.560    -1710913.839 7  -1314675.82745  24658709.845    24658727.6884
  24298659.116    -4138378.175 7  -3218157.85745  24298658.515    24298673.2014
  21525689.227   -15935379.852 9 -12389470.63647  21525690.614    21525700.6404
 00  4  3  0 21  0.0000000  0  8 13 17 06 26 24 23 08 10
  23626943.942    -5735420.192 8  -4452277.64146  23626948.051    23626955.9164
  22709627.166   -11264454.863 8  -8759111.58046  22709627.315    22709640.0944
  21009434.098   -20352672.564 9 -15839184.69347  21009437.552    21009446.9024
  20450639.146   -23132878.716 9 -17728597.31148  20450640.712    20450649.7444
  22565652.507   -11823625.845 8  -9191209.10246  22565651.228    22565663.3454
  24644437.423    -1785901.497 8  -1373107.46445  24644440.113    24644455.2054
  24295389.527    -4155556.891 7  -3231543.70945  24295391.089    24295403.0594
  21537513.995   -15873244.860 9 -12341053.77247  21537514.751    21537524.4364
 00  4  3  0 21 30.0000000  0  8 13 17 06 26 24 23 08 10
  23644248.156    -5644515.322 8  -4381442.64045  23644246.063    23644254.5904
  22693151.859   -11351021.212 8  -8826565.80346  22693155.416    22693167.2394
  21011431.706   -20342187.249 9 -15831014.30547  21011433.064    21011442.7774
  20440048.158   -23188523.104 9 -17771956.47948  20440052.118    20440061.4954
  22578925.504   -11753838.392 8  -9136829.36546  22578931.259    22578943.0544
  24630191.403    -1860758.029 7  -1431436.92545  24630194.759    24630210.8614
  24292221.370    -4172211.854 7  -3244521.43645  24292221.192    24292233.0774
  21549373.737   -15810913.787 9 -12292484.13547  21549375.740    21549385.4644
 00  4  3  0 22  0.0000000  0  8 13 17 06 26 24 23 08 10
  23661601.557    -5553287.302 8  -4310355.84145  23661606.249    23661615.2414
  22676700.886   -11437474.612 8  -8893931.97546  22676701.909    22676714.9914
  21013543.967   -20331085.027 9 -15822363.23847  21013545.781    21013555.0924
  20429571.331   -23243581.443 9 -17814859.05348  20429574.974    20429583.9884
  22592255.339   -11683801.226 8  -9082255.04446  22592259.146    22592270.6474
  24615967.769    -1935487.817 7  -1489667.61445  24615973.973    24615987.9964
  24289149.057    -4188353.566 7  -3257099.27145  24289149.676    24289161.7374
  21561275.077   -15748369.285 9 -12243748.16947  21561277.409    21561287.6334
 00  4  3  0 22 30.0000000  0  8 13 17 06 26 24 23 08 10
  23679012.780    -5461772.576 8  -4239045.60446  23679021.646    23679030.5384
  22660267.768   -11523811.209 8  -8961207.04346  22660272.995    22660285.7314
  21015770.496   -20319376.606 9 -15813239.79847  21015773.883    21015783.0644
  20419208.646   -23298036.124 9 -17857291.23848  20419212.340    20419221.3764
  22605632.195   -11613508.316 8  -9027481.41346  22605635.931    22605646.3604
  24601768.836    -2010106.094 7  -1547811.41145  24601771.576    24601788.6684
  24286167.682    -4204000.067 7  -3269291.19845  24286171.979    24286184.9054
  21573214.431   -15685636.724 9 -12194865.69147  21573214.955    21573225.3394
 00  4  3  0 23  0.0000000  0  8 13 17 06 26 24 23 08 10
  23696487.419    -5369993.747 8  -4167529.66446  23696485.650    23696495.4694
  22643860.242   -11610052.620 8  -9028408.03146  22643861.994    22643873.3424
  21018112.339   -20307072.749 9 -15803652.41747  21018115.217    21018124.3494
  20408961.006   -23351893.826 9 -17899258.24048  20408963.632    20408972.3814
  22619056.668   -11542969.368 8  -8972516.08446  22619058.541    22619070.1124
  24587597.840    -2084596.249 7  -1605855.37045  24587597.925    24587613.5874
  24283276.867    -4219164.765 7  -3281107.72945  24283286.833    24283298.1064
  21585180.206   -15622746.136 9 -12145860.05047  21585183.391    21585192.7394
 00  4  3  0 23 30.0000000  0  8 13 17 06 26 24 23 08 10
  23713997.367    -5277959.848 8  -4095814.95145  23713999.553    23714008.4214
  22627464.015   -11696219.941 8  -9095551.29946  22627465.306    22627476.5284
  21020567.110   -20294184.624 9 -15793609.74847  21020567.253    21020577.4324
  20398822.726   -23405176.703 9 -17940777.32948  20398824.436    20398833.0104
  22632524.245   -11472175.459 8  -8917352.09746  22632530.014    22632542.0044
  24573446.840    -2158953.329 7  -1663795.65945  24573449.442    24573463.5724
  24280499.687    -4233836.488 7  -3292540.08845  24280495.168    24280505.6974
  21597177.208   -15559717.594 9 -12096746.93147  21597178.162    21597186.4394
 00  4  3  0 24  0.0000000  0  8 13 17 06 26 24 23 08 10
  23731558.774    -5185679.521 8  -4023908.20145  23731560.255    23731569.1754
  22611075.347   -11782327.357 8  -9162647.91946  22611079.713    22611090.9774
  21023125.589   -20280717.368 9 -15783115.79947  21023129.612    21023139.4724
  20388790.081   -23457893.848 9 -17981855.56348  20388792.717    20388801.2344
  22646045.911   -11401113.592 8  -8861979.29946  22646052.766    22646065.2644
  24559311.573    -2233185.149 7  -1721638.23545  24559319.874    24559339.7044
  24277793.713    -4248002.241 7  -3303578.17245  24277798.704    24277809.7804
  21609194.066   -15496561.024 9 -12047534.00947  21609195.643    21609204.9304
 00  4  3  0 24 30.0000000  0  8 13 17 06 26 24 23 08 10
  23749160.375    -5093146.030 8  -3951804.20345  23749167.801    23749177.0064
  22594701.404   -11868389.754 8  -9229709.47846  22594702.421    22594714.8624
  21025803.321   -20266662.040 9 -15772163.59047  21025804.830    21025814.0094
  20378867.208   -23510039.559 9 -18022488.51648  20378869.342    20378878.3814
  22659622.491   -11329787.996 8  -8806401.02346  22659625.935    22659637.9994
  24545215.313    -2307278.600 7  -1779373.05145  24545221.212    24545239.3534
  24275199.692    -4261656.090 7  -3314217.45445  24275201.085    24275210.5454
  21621238.773   -15433272.963 9 -11998218.64947  21621238.702    21621247.9904
 00  4  3  0 25  0.0000000  0  8 13 17 06 26 24 23 08 10
  23766822.794    -5000337.179 8  -3879485.60445  23766829.406    23766837.9644
  22578333.050   -11954407.621 8  -9296736.25346  22578334.480    22578344.8924
  21028588.676   -20252011.716 9 -15760747.75947  21028592.829    21028602.3724
  20369052.849   -23561619.753 9 -18062680.78848  20369054.062    20369063.1344
  22673246.235   -11258194.111 8  -8750613.70146  22673249.928    22673261.6694
  24531144.009    -2381236.121 7  -1837001.93345  24531148.471    24531164.1164
  24272704.525    -4274783.417 7  -3324446.38445  24272702.332    24272713.6604
  21633305.158   -15369838.703 8 -11948789.35647  21633309.224    21633318.8404
 00  4  3  0 25 30.0000000  0  8 13 17 06 26 24 23 08 10
  23784541.049    -4907242.296 8  -3806944.07845  23784544.249    23784553.0984
  22561978.863   -12040349.737 8  -9363704.06046  22561980.295    22561989.8194
  21031491.164   -20236767.168 9 -15748868.90447  21031493.619    21031503.4784
  20359346.774   -23612622.591 9 -18102423.18948  20359348.823    20359357.1504
  22686923.028   -11186328.941 8  -8694614.96346  22686925.701    22686937.6954
  24517088.142    -2455086.113 7  -1894547.02245  24517094.257    24517111.4574
  24270306.099    -4287360.168 7  -3334246.33945  24270309.927    24270320.1454
  21645406.719   -15306241.934 9 -11899233.43847  21645411.697    21645421.6034
 00  4  3  0 26  0.0000000  0  8 13 17 06 26 24 23 08 10
  23802302.093    -4813867.280 8  -3734184.34245  23802313.131    23802321.9234
  22545643.066   -12126192.057 8  -9430594.08846  22545644.789    22545654.8914
  21034504.138   -20220926.311 9 -15736525.40347  21034507.912    21034517.9214
  20349753.271   -23663034.260 9 -18141704.95248  20349755.624    20349764.5064
  22700646.356   -11114205.083 8  -8638414.64946  22700650.401    22700662.6404
  24503061.265    -2528829.033 7  -1952008.72445  24503060.857    24503079.1714
  24268004.869    -4299394.058 7  -3343623.31245  24268018.810    24268031.0904
  21657545.824   -15242471.871 9 -11849542.48647  21657547.170    21657556.5564
 00  4  3  0 26 30.0000000  0  8 13 17 06 26 24 23 08 10
  23820134.400    -4720212.849 8  -3661206.91945  23820135.671    23820143.8264
  22529328.091   -12211917.997 8  -9497393.38246  22529330.301    22529341.2524
  21037631.842   -20204495.683 9 -15723722.32847  21037634.774    21037644.2984
  20340271.823   -23712851.540 9 -18180523.54848  20340275.837    20340284.6434
  22714418.512   -11041840.298 8  -8582026.59246  22714421.084    22714432.3144
  24489047.242    -2602456.744 7  -2009380.61945  24489049.505    24489065.2734
  24265828.475    -4310901.188 7  -3352589.74845  24265828.885    24265839.8524
  21669709.909   -15178549.988 9 -11799733.22747  21669711.405    21669720.4854
 00  4  3  0 27  0.0000000  0  8 13 17 06 26 24 23 08 10
  23837998.289    -4626291.887 8  -3588021.74546  23838007.670    23838016.7844
  22513037.344   -12297512.866 8  -9564090.57846  22513042.493    22513053.3934
  21040868.182   -20187480.774 9 -15710463.95947  21040872.755    21040882.5044
  20330907.119   -23762069.047 9 -18218874.79348  20330909.774    20330918.4534
  22728236.453   -10969239.113 8  -8525454.34846  22728236.285    22728248.4584
  24475056.198    -2675981.934 7  -2066672.60945  24475057.850    24475075.3604
  24263737.265    -4321884.297 7  -3361147.88745  24263738.541    24263750.7794
  21681897.160   -15114497.383 9 -11749822.12647  21681899.620    21681909.1824
 00  4  3  0 27 30.0000000  0  8 13 17 06 26 24 23 08 10
  23855924.494    -4532125.279 8  -3514645.18845  23855926.586    23855936.5474
  22496778.416   -12382968.155 8  -9630679.00846  22496781.410    22496792.1194
  21044218.454   -20169876.819 9 -15696746.60247  21044222.319    21044232.1614
  20321657.464   -23810682.497 9 -18256755.34148  20321658.714    20321667.4144
  22742084.146   -10896415.272 8  -8468708.59946  22742094.408    22742106.3224
  24461085.428    -2749388.343 7  -2123872.04745  24461091.504    24461105.7334
  24261741.684    -4332350.954 7  -3369303.62345  24261746.342    24261758.1324
  21694111.401   -15050316.807 9 -11699811.30047  21694112.572    21694122.0364
 00  4  3  0 28  0.0000000  0  8 13 17 06 26 24 23 08 10
  23873880.070    -4437719.447 8  -3441082.23745  23873891.100    23873901.3124
  22480539.872   -12468296.168 8  -9697168.30646  22480543.461    22480553.8774
  21047682.812   -20151673.635 9 -15682562.31847  21047686.558    21047696.3984
  20312516.770   -23858705.503 9 -18294175.79748  20312520.081    20312528.6984
  22755992.872   -10823371.469 8  -8411791.46846  22755994.689    22756006.2804
  24447145.836    -2822648.999 7  -2180957.93045  24447148.697    24447165.7994
  24259856.488    -4342317.643 7  -3377069.78545  24259851.300    24259861.1394
  21706344.982   -14986027.813 9 -11649715.98247  21706346.226    21706355.4144
 00  4  3  0 28 30.0000000  0  8 13 17 06 26 24 23 08 10
  23891901.705    -4343071.200 8  -3367330.31645  23891902.072    23891912.1984
  22464323.565   -12553511.991 8  -9763570.09046  22464327.503    22464336.9114
  21051262.727   -20132869.003 9 -15667909.35947  21051265.113    21051275.0924
  20303490.193   -23906140.238 9 -18331137.85648  20303493.593    20303502.0724
  22769937.180   -10750092.183 8  -8354690.82646  22769939.427    22769950.9094
  24433230.978    -2895757.407 7  -2237925.20045  24433236.621    24433253.5644
  24258048.174    -4351776.344 7  -3384440.09245  24258049.562    24258061.0444
  21718597.317   -14921640.174 8 -11599543.82147  21718598.741    21718608.3244
 00  4  3  0 29  0.0000000  0  8 13 17 06 26 24 23 08 10
  23909957.210    -4248175.281 8  -3293385.43845  23909960.349    23909969.9444
  22448131.321   -12638620.427 8  -9829888.20546  22448132.280    22448142.3754
  21054956.227   -20113457.205 9 -15652783.30047  21054959.040    21054968.7814
  20294577.738   -23952985.652 9 -18367640.70248  20294579.163    20294587.7014
  22783926.861   -10676572.096 8  -8297402.54846  22783929.759    22783941.8754
  24419352.134    -2968722.452 7  -2294780.74845  24419351.651    24419367.6454
  24256355.073    -4360714.300 7  -3391404.61345  24256349.080    24256361.0884
  21730873.939   -14857120.178 8 -11549268.52847  21730876.555    21730885.9444
 00  4  3  0 29 30.0000000  0  8 13 17 06 26 24 23 08 10
  23928061.268    -4153024.533 8  -3219242.03045  23928067.054    23928076.3244
  22431948.025   -12723640.860 8  -9896137.78146  22431952.514    22431962.7374
  21058765.396   -20093439.791 9 -15637185.32847  21058768.288    21058777.5394
  20285773.849   -23999250.188 9 -18403690.92248  20285774.998    20285783.7824
  22797960.666   -10602804.440 8  -8239921.36246  22797966.900    22797980.1014
  24405497.041    -3041536.797 7  -2351518.84845  24405494.902    24405510.9004
  24254744.659    -4369122.882 8  -3397956.63845  24254750.085    24254760.2944
  21743185.103   -14792453.882 9 -11498879.21747  21743182.451    21743191.5104
 00  4  3  0 30  0.0000000  0  8 13 17 06 26 24 23 08 10
  23946226.198    -4057607.266 8  -3144890.94045  23946225.055    23946234.2454
  22415787.121   -12808580.018 8  -9962324.01646  22415789.267    22415799.2234
  21062687.809   -20072828.266 9 -15621124.40847  21062690.358    21062700.1604
  20277076.680   -24044932.884 9 -18439287.77348  20277081.844    20277091.0654
  22812053.807   -10528777.830 8  -8182238.40746  22812053.824    22812067.0224
  24391666.265    -3114208.992 8  -2408146.21245  24391666.236    24391681.7064
  24253249.574    -4376997.651 7  -3404092.68945  24253250.786    24253262.7914
  21755513.821   -14727645.069 9 -11448378.85047  21755515.878    21755524.8994
 00  4  3  0 30 30.0000000  0  8 13 17 06 26 24 23 08 10
  23964426.044    -3961931.290 8  -3070338.27845  23964431.762    23964440.2194
  22399637.807   -12893443.428 8 -10028451.25746  22399640.589    22399649.6764
  21066720.375   -20051633.251 9 -15604608.81147  21066723.739    21066733.2674
  20268500.018   -24090020.707 9 -18474421.06948  20268502.249    20268510.9204
  22826188.478   -10454486.593 8  -8124349.24446  22826191.046    22826203.6744
  24377853.095    -3186749.637 8  -2464671.07145  24377860.755    24377876.8354
  24251846.334    -4384334.502 7  -3409809.62945  24251853.526    24251865.5044
  21767878.326   -14662668.252 9 -11397747.54547  21767880.832    21767889.0684
 00  4  3  0 31  0.0000000  0  8 13 17 06 26 24 23 08 10
  23982678.511    -3866007.700 8  -2995592.62945  23982685.663    23982694.1974
  22383503.086   -12978221.052 8 -10094511.62646  22383507.794    22383517.4804
  21070864.876   -20029854.085 9 -15587638.02547  21070867.919    21070877.1354
  20260032.769   -24134512.495 9 -18509089.93848  20260035.658    20260044.3174
  22840368.900   -10379946.026 8  -8066265.76846  22840375.961    22840388.2654
  24364080.674    -3259153.408 7  -2521089.29945  24364082.039    24364099.3974
  24250557.099    -4391137.593 7  -3415110.54045  24250559.154    24250569.5484
  21780276.683   -14597513.657 9 -11346977.73147  21780278.457    21780287.6944
 00  4  3  0 31 30.0000000  0  8 13 17 06 26 24 23 08 10
  24000986.834    -3769844.661 8  -2920660.42745  24000984.709    24000994.0494
  22367386.069   -13062913.443 8 -10160505.57546  22367390.360    22367400.5534
  21075120.631   -20007494.321 9 -15570214.83247  21075123.043    21075132.2314
  20251678.832   -24178408.661 9 -18543294.68648  20251682.368    20251690.9664
  22854604.550   -10305149.034 8  -8007982.50946  22854609.487    22854621.6734
  24350333.324    -3331411.086 8  -2577393.62645  24350332.060    24350347.1264
  24249363.275    -4397403.474 7  -3419992.93045  24249367.744    24249379.0354
  21792703.582   -14532209.109 9 -11296091.11547  21792704.870    21792715.0764
 00  4  3  0 32  0.0000000  0  8 13 17 06 26 24 23 08 10
  24019329.178    -3673454.931 8  -2845551.48245  24019326.934    24019336.1894
  22351289.903   -13147501.122 8 -10226418.00546  22351294.000    22351304.9384
  21079485.384   -19984556.323 9 -15552341.07547  21079488.117    21079497.5184
  20243441.689   -24221699.749 9 -18577027.94248  20243444.375    20243453.1044
  22868886.192   -10230098.836 8  -7949501.95746  22868890.964    22868903.2164
  24336609.548    -3403520.930 8  -2633582.82545  24336611.092    24336625.4934
  24248273.349    -4403134.949 7  -3424458.87445  24248277.399    24248288.0384
  21805159.133   -14466760.850 8 -11245092.50847  21805159.305    21805169.6084
 00  4  3  0 32 30.0000000  0  8 13 17 06 26 24 23 08 10
  24037714.560    -3576847.745 8  -2770273.15045  24037710.163    24037719.5364
  22335213.485   -13231979.270 8 -10292245.07846  22335218.668    22335229.0304
  21083959.885   -19961040.745 9 -15534017.25647  21083963.050    21083972.4764
  20235317.609   -24264389.617 9 -18610292.71648  20235320.684    20235329.4244
  22883219.885   -10154799.352 8  -7890827.14746  22883220.238    22883232.6544
  24322915.324    -3475488.311 8  -2689660.97945  24322916.104    24322931.3124
  24247287.055    -4408334.464 7  -3428510.33345  24247286.657    24247298.6654
  21817639.116   -14401173.261 8 -11193985.31047  21817640.460    21817650.3784
 00  4  3  0 33  0.0000000  0  8 13 17 06 26 24 23 08 10
  24056132.140    -3480015.274 8  -2694819.30345  24056135.731    24056147.0534
  22319162.207   -13316338.764 8 -10357979.65947  22319166.132    22319176.1824
  21088545.557   -19936945.940 9 -15515242.09447  21088548.004    21088557.0804
  20227309.514   -24306474.764 9 -18643086.27848  20227311.998    20227320.7254
  22897592.669   -10079256.983 8  -7831963.10146  22897595.500    22897608.2274
  24309237.490    -3547321.813 8  -2745634.80345  24309245.392    24309260.7544
  24246396.067    -4412998.965 7  -3432144.88845  24246398.174    24246408.4794
  21830142.298   -14335471.725 8 -11142789.33647  21830143.271    21830152.8304
 00  4  3  0 33 30.0000000  0  8 13 17 06 26 24 23 08 10
  24074608.142    -3382953.780 8  -2619186.99345  24074606.738    24074616.4584
  22303134.991   -13400578.029 8 -10423620.51247  22303136.151    22303145.9834
  21093237.834   -19912285.946 9 -15496026.51847  21093240.822    21093249.8744
  20219414.730   -24347952.258 9 -18675406.34148  20219419.201    20219427.6174
  22912015.840   -10003467.878 8  -7772906.77146  22912017.399    22912030.2114
  24295596.292    -3619036.543 8  -2801516.09145  24295598.479    24295612.9104
  24245615.551    -4417121.629 7  -3435357.28045  24245614.134    24245623.9824
  21842664.604   -14269667.481 9 -11091513.34147  21842665.655    21842675.0294
 00  4  3  0 34  0.0000000  0  8 13 17 06 26 24 23 08 10
  24093120.264    -3285670.961 8  -2543382.29845  24093118.986    24093128.6934
  22287126.341   -13484696.456 8 -10489167.21147  22287128.245    22287138.8764
  21098035.262   -19887073.030 9 -15476380.09347  21098038.191    21098047.9134
  20211639.494   -24388826.820 9 -18707256.59448  20211641.391    20211649.6714
  22926478.784    -9927447.057 8  -7713669.89446  22926483.316    22926496.9114
  24281973.779    -3690639.182 8  -2857310.03845  24281973.129    24281986.6524
  24244929.189    -4420709.505 7  -3438152.87645  24244930.667    24244942.3714
  21855207.399   -14203751.787 9 -11040150.51047  21855208.888    21855218.5864
 00  4  3  0 34 30.0000000  0  8 13 17 06 26 24 23 08 10
  24111672.419    -3188167.388 8  -2467405.39345  24111674.064    24111682.7364
  22271137.346   -13568700.921 8 -10554625.16747  22271142.743    22271153.6754
  21102938.901   -19861306.788 9 -15456302.53047  21102941.272    21102950.8484
  20203973.109   -24429107.317 9 -18738643.92448  20203975.518    20203984.5024
  22940992.991    -9851197.924 8  -7654255.10546  22940993.291    22941005.9574
  24268364.675    -3762144.833 8  -2913028.46545  24268365.165    24268380.3864
  24244353.225    -4423757.423 7  -3440527.73245  24244351.789    24244363.3994
  21867776.046   -14137720.655 9 -10988697.72747  21867774.389    21867783.9294
 00  4  3  0 35  0.0000000  0  8 13 17 06 26 24 23 08 10
  24130265.332    -3090452.775 8  -2391264.13645  24130267.583    24130276.4184
  22255174.129   -13652590.529 8 -10619993.62547  22255178.509    22255189.2114
  21107948.814   -19834984.313 9 -15435791.52347  21107950.957    21107960.0684
  20196422.222   -24468781.105 9 -18769558.51448  20196425.905    20196434.6804
  22955538.842    -9774725.428 8  -7594666.26746  22955546.188    22955558.5164
  24254772.066    -3833559.140 8  -2968675.67045  24254776.101    24254790.7644
  24243875.393    -4426254.703 7  -3442473.50645  24243876.586    24243888.1074
  21880358.596   -14071567.880 8 -10937150.15047  21880362.520    21880371.3914
 00  4  3  0 35 30.0000000  0  8 13 17 06 26 24 23 08 10
  24148908.451    -2992530.408 7  -2314961.00245  24148901.629    24148911.8714
  22239236.328   -13736363.727 8 -10685271.42046  22239236.754    22239247.6654
  21113063.449   -19808104.216 9 -15414846.00547  21113065.710    21113074.9444
  20188985.491   -24507863.295 9 -18800012.10648  20188988.867    20188997.5054
  22970142.163    -9698029.860 8  -7534903.60246  22970140.644    22970152.4354
  24241199.976    -3904876.117 8  -3024247.03845  24241204.834    24241219.4494
  24243497.747    -4428196.526 7  -3443986.52745  24243506.261    24243517.4524
  21892978.663   -14005277.154 9 -10885495.08047  21892978.011    21892986.9674
 00  4  3  0 36  0.0000000  0  8 13 17 06 26 24 23 08 10
  24167560.812    -2894399.133 7  -2238495.04945  24167575.264    24167584.8104
  22223316.154   -13820021.506 8 -10750459.21847  22223318.136    22223328.3474
  21118291.353   -19780642.104 9 -15393446.97647  21118291.743    21118300.7444
  20181660.168   -24546360.633 9 -18830009.97248  20181663.180    20181671.5864
  22984776.717    -9621107.706 8  -7474964.36546  22984778.688    22984790.9074
  24227649.228    -3976091.528 8  -3079739.26245  24227651.946    24227666.3934
  24243250.788    -4429586.751 7  -3445069.69445  24243240.358    24243251.9734
  21905616.833   -13938841.510 8 -10833727.06947  21905620.062    21905629.1664
 00  4  3  0 36 30.0000000  0  8 13 17 06 26 24 23 08 10
  24186292.344    -2796050.908 8  -2161860.07045  24186290.804    24186301.0424
  22207416.224   -13903559.204 8 -10815553.43647  22207420.243    22207431.9834
  21123629.359   -19752573.690 9 -15371575.50147  21123632.917    21123642.0414
  20174448.407   -24584259.848 9 -18859541.77548  20174451.062    20174459.4694
  22999456.320    -9543948.590 8  -7414840.51446  22999461.424    22999473.7144
  24214121.443    -4047200.990 8  -3135148.95845  24214120.490    24214134.1174
  24243076.037    -4430429.207 7  -3445726.03945  24243082.547    24243092.8484
  21918288.651   -13872257.229 8 -10781843.24447  21918290.472    21918300.1164
 00  4  3  0 37  0.0000000  0  8 13 17 06 26 24 23 08 10
  24205048.942    -2697476.120 8  -2085048.59045  24205049.009    24205059.0174
  22191546.944   -13986972.816 8 -10880550.98447  22191547.613    22191559.5674
  21129088.756   -19723892.262 9 -15349226.35247  21129091.017    21129100.5944
  20167350.927   -24621556.267 9 -18888603.86848  20167353.679    20167361.8244
  23014185.373    -9466551.540 8  -7354531.24346  23014189.816    23014203.1714
  24200611.186    -4118181.938 8  -3190458.49345  24200612.050    24200627.0594
  24243020.652    -4430735.124 7  -3445964.28245  24243024.266    24243035.1174
  21930987.377   -13805534.266 8 -10729851.35847  21930987.432    21930997.2384
 00  4  3  0 37 30.0000000  0  8 13 17 06 26 24 23 08 10
  24223846.066    -2598674.038 8  -2008059.90845  24223850.692    24223859.6114
  22175691.222   -14070259.599 8 -10945449.66347  22175698.635    22175709.9924
  21134665.066   -19694591.662 9 -15326394.73047  21134666.891    21134676.0634
  20160365.263   -24658258.225 9 -18917202.75148  20160369.578    20160377.5304
  23028963.209    -9388909.525 8  -7294031.10746  23028964.061    23028977.6484
  24187126.314    -4189016.161 8  -3245653.74145  24187133.071    24187146.4444
  24243057.147    -4430519.595 7  -3445796.20945  24243064.093    24243074.7554
  21943705.452   -13738679.029 8 -10677756.38447  21943709.483    21943719.5404
 00  4  3  0 38  0.0000000  0  8 13 17 06 26 24 23 08 10
  24242674.082    -2499668.471 7  -1930912.71245  24242690.694    24242699.5444
  22159872.052   -14153418.171 8 -11010248.46947  22159874.034    22159884.7524
  21140360.769   -19664666.315 9 -15303076.29947  21140361.549    21140370.8314
  20153499.691   -24694346.401 9 -18945323.34848  20153502.196    20153510.4684
  23043782.406    -9311020.895 8  -7233338.78746  23043786.928    23043799.2774
  24173676.998    -4259702.531 7  -3300733.77745  24173679.933    24173696.0044
  24243195.260    -4429783.009 7  -3445222.15445  24243204.984    24243214.2664
  21956447.094   -13671705.849 8 -10625569.51347  21956453.437    21956463.3864
 00  4  3  0 38 30.0000000  0  8 13 17 06 26 24 23 08 10
  24261570.714    -2400467.887 8  -1853613.51945  24261567.466    24261577.1684
  22144066.414   -14236445.854 8 -11074945.32847  22144073.986    22144085.4334
  21146165.092   -19634139.890 9 -15279289.51247  21146169.943    21146180.3224
  20146752.614   -24729800.259 9 -18972949.67848  20146755.580    20146763.8104
  23058657.262    -9232878.234 8  -7172448.55546  23058657.365    23058669.9184
  24160259.558    -4330236.710 8  -3355695.14245  24160259.787    24160273.7074
  24243440.706    -4428518.519 7  -3444236.70445  24243444.939    24243453.9024
  21969215.674   -13604621.986 8 -10573296.42447  21969219.352    21969229.5844
 00  4  3  0 39  0.0000000  0  8 13 17 06 26 24 23 08 10
  24280471.846    -2301084.742 8  -1776172.06745  24280480.786    24280489.7334
  22128298.581   -14319335.304 8 -11139534.44047  22128300.864    22128312.3394
  21152088.403   -19603032.061 9 -15255049.66547  21152090.194    21152099.8074
  20140128.488   -24764612.994 9 -19000076.42748  20140130.832    20140138.9934
  23073568.019    -9154482.680 8  -7111361.25146  23073575.715    23073587.7324
  24146864.599    -4400620.812 8  -3410539.67245  24146865.031    24146880.9784
  24243787.390    -4426710.156 7  -3442827.49345  24243788.935    24243799.7794
  21982002.037   -13537432.327 8 -10520940.90247  21982005.452    21982014.8964
 00  4  3  0 39 30.0000000  0  8 13 17 06 26 24 23 08 10
  24299423.622    -2201525.605 8  -1698593.55645  24299425.216    24299434.3824
  22112548.520   -14402081.380 8 -11204011.79947  22112554.803    22112565.8264
  21158116.063   -19571351.510 9 -15230363.53447  21158118.516    21158128.3384
  20133624.589   -24798789.219 9 -19026707.19848  20133627.327    20133635.4964
  23088538.304    -9075831.647 8  -7050074.87446  23088542.067    23088554.8494
  24133488.745    -4470872.310 7  -3465280.84245  24133495.333    24133511.7454
  24244231.895    -4424343.759 7  -3440983.46045  24244237.985    24244248.1644
  21994812.899   -13470130.159 8 -10468497.67047  21994812.660    21994822.4784
 00  4  3  0 40  0.0000000  0  8 13 17 06 26 24 23 08 10
  24318396.819    -2101772.417 8  -1620863.81345  24318407.810    24318416.6684
  22096832.983   -14484673.427 8 -11268369.17247  22096837.812    22096849.4584
  21164248.708   -19539121.332 9 -15205249.13647  21164251.185    21164261.3334
  20127242.372   -24832326.323 9 -19052839.95348  20127245.146    20127253.2784
  23103554.755    -8996928.823 8  -6988592.31046  23103557.444    23103569.3234
  24120142.419    -4541002.810 8  -3519927.70945  24120151.168    24120165.2034
  24244797.270    -4421412.036 7  -3438698.88345  24244796.153    24244808.4264
  22007639.791   -13402715.841 8 -10415967.06347  22007640.970    22007651.3274
 00  4  3  0 40 30.0000000  0  8 13 17 06 26 24 23 08 10
  24337427.740    -2001806.323 8  -1542968.09345  24337430.832    24337439.8014
  22081149.682   -14567102.773 8 -11332599.81647  22081151.704    22081163.6414
  21170481.528   -19506360.318 9 -15179721.10747  21170485.759    21170495.7704
  20120980.455   -24865232.246 9 -19078480.88648  20120983.464    20120991.8714
  23118615.995    -8917778.719 8  -6926917.02546  23118619.824    23118631.6234
  24106827.038    -4611010.130 8  -3574478.67145  24106829.489    24106842.9434
  24245451.344    -4417917.809 7  -3435975.95345  24245462.093    24245472.1944
  22020489.809   -13335182.249 8 -10363343.50247  22020492.485    22020502.7214
 00  4  3  0 41  0.0000000  0  8 13 17 06 26 24 23 08 10
  24356495.280    -1901627.509 8  -1464906.74945  24356493.816    24356503.3934
  22065493.738   -14649370.296 8 -11396704.42447  22065497.322    22065508.5164
  21176817.561   -19473062.412 9 -15153774.71947  21176821.834    21176832.0834
  20114833.308   -24897538.412 9 -19103654.47948  20114835.536    20114843.9844
  23133711.603    -8838401.555 8  -6865064.81146  23133723.790    23133736.2994
  24093531.351    -4680901.203 8  -3628938.99645  24093529.119    24093542.7014
  24246232.164    -4413859.104 7  -3432813.19645  24246233.867    24246245.7454
  22033365.129   -13267531.405 8 -10310628.59647  22033366.329    22033376.1224
 00  4  3  0 41 30.0000000  0  8 13 17 06 26 24 23 08 10
  24375589.264    -1801244.569 8  -1386686.20045  24375596.629    24375605.5334
  22049868.299   -14731481.532 8 -11460687.15847  22049872.435    22049882.9734
  21183254.106   -19439227.742 9 -15127410.07047  21183260.423    21183270.5814
  20108796.248   -24929262.057 9 -19128374.16048  20108798.872    20108806.9314
  23148870.844    -8758803.758 8  -6803040.71146  23148871.068    23148884.6174
  24080254.359    -4750671.227 8  -3683305.04045  24080252.733    24080265.4774
  24247113.361    -4409243.906 7  -3429216.85045  24247112.332    24247122.9054
  22046260.038   -13199762.385 8 -10257821.60247  22046262.385    22046272.6204
 00  4  3  0 42  0.0000000  0  8 13 17 06 26 24 23 08 10
  24394730.696    -1700673.252 8  -1308318.83745  24394734.600    24394743.9064
  22034276.977   -14813434.593 8 -11524546.51647  22034277.693    22034288.4284
  21189795.686   -19404862.419 9 -15100631.93247  21189800.138    21189810.3834
  20102872.446   -24960386.867 9 -19152627.20948  20102876.210    20102884.3434
  23164058.213    -8678992.045 8  -6740849.88946  23164058.282    23164071.4594
  24066996.448    -4820307.711 8  -3737567.04445  24067000.155    24067013.9404
  24248095.116    -4404074.313 7  -3425188.48245  24248095.394    24248106.3764
  22059179.098   -13131875.724 8 -10204922.94447  22059180.564    22059190.6504
 00  4  3  0 42 30.0000000  0  8 13 17 06 26 24 23 08 10
  24413900.275    -1599940.199 8  -1229825.49045  24413902.719    24413912.6584
  22018704.688   -14895247.440 8 -11588296.64747  22018708.364    22018719.6134
  21196442.690   -19369945.633 9 -15073424.08847  21196444.607    21196455.0834
  20097061.479   -24990918.457 9 -19176418.01248  20097065.874    20097074.3944
  23179279.114    -8598970.084 8  -6678495.29346  23179286.062    23179300.2834
  24053768.598    -4889814.554 8  -3791728.00545  24053773.211    24053787.4454
  24249191.224    -4398338.288 7  -3420718.69145  24249186.567    24249196.7994
  22072121.575   -13063864.031 8 -10151926.87947  22072122.961    22072132.2984
 00  4  3  0 43  0.0000000  0  8 13 17 06 26 24 23 08 10
  24433097.279    -1499053.474 8  -1151212.56945  24433101.405    24433111.4334
  22003162.585   -14976921.370 8 -11651938.58847  22003166.162    22003176.6874
  21203192.621   -19334470.452 9 -15045781.13247  21203195.756    21203205.0584
  20091367.025   -25020854.179 9 -19199744.50648  20091369.192    20091377.6804
  23194551.622    -8518734.861 8  -6615974.51846  23194554.612    23194567.7144
  24040569.750    -4959199.802 8  -3845794.23845  24040570.363    24040584.4664
  24250382.152    -4392047.880 7  -3415817.02145  24250384.081    24250393.6684
  22085087.770   -12995726.853 8 -10098833.01747  22085088.973    22085098.3594
 00  4  3  0 43 30.0000000  0  8 13 17 06 26 24 23 08 10
  24452320.722    -1398014.136 8  -1072480.62045  24452328.551    24452338.1184
  21987648.356   -15058446.455 8 -11715464.54647  21987652.903    21987662.9964
  21210050.986   -19298439.982 9 -15017705.47647  21210052.038    21210061.7244
  20085786.048   -25050167.006 9 -19222585.61748  20085791.371    20085799.8454
  23209862.082    -8438268.172 8  -6553273.34046  23209866.986    23209880.4614
  24027385.398    -5028464.715 8  -3899766.70046  24027389.638    24027404.9084
  24251677.898    -4385210.656 7  -3410489.12945  24251685.248    24251695.1894
  22098078.206   -12927455.245 8 -10045634.38347  22098080.408    22098090.3734
 00  4  3  0 44  0.0000000  0  8 13 17 06 26 24 23 08 10
  24471595.994    -1296807.907 8   -993618.60045  24471587.962    24471596.1484
  21972165.355   -15139821.635 8 -11778873.78747  21972168.085    21972177.6624
  21217012.755   -19261850.216 9 -14989194.00547  21217015.065    21217024.7494
  20080328.986   -25078855.431 9 -19244940.18848  20080331.869    20080340.3224
  23225227.238    -8357559.385 8  -6490383.52346  23225225.707    23225239.5594
  24014227.905    -5097620.588 8  -3953654.20345  24014228.533    24014242.8524
  24253079.845    -4377830.715 7  -3404738.37045  24253090.455    24253100.3804
  22111095.269   -12859056.343 8  -9992336.56847  22111096.317    22111106.6524
 00  4  3  0 44 30.0000000  0  8 13 17 06 26 24 23 08 10
  24490875.922    -1195428.820 8   -914621.87245  24490879.845    24490887.4704
  21956708.726   -15221044.130 9 -11842164.02647  21956712.320    21956721.5834
  21224084.177   -19224696.181 9 -14960242.85547  21224085.372    21224094.6934
  20074987.811   -25106928.706 9 -19266815.42748  20074989.823    20074998.1604
  23240622.947    -8276599.669 8  -6427298.20746  23240631.978    23240645.0744
  24001080.759    -5166675.066 8  -4007462.70745  24001086.739    24001101.3034
  24254595.366    -4369925.435 7  -3398578.37345  24254594.704    24254604.3294
  22124129.285   -12790540.924 8  -9938947.97547  22124134.367    22124144.6324
 00  4  3  0 45  0.0000000  0  8 13 17 06 26 24 23 08 10
  24510205.658    -1093874.127 8   -835488.27345  24510206.340    24510212.2744
  21941283.922   -15302102.746 9 -11905326.48447  21941286.635    21941296.1404
  21231256.969   -19186992.799 9 -14930863.62947  21231260.415    21231269.3164
  20069765.168   -25134372.896 9 -19288200.46648  20069767.466    20069775.7364
  23256086.889    -8195386.043 8  -6364015.03546  23256086.442    23256100.1284
  23987968.841    -5235619.409 8  -4061185.39145  23987968.063    23987981.6194
  24256196.062    -4361519.378 7  -3392028.07245  24256193.029    24256202.7384
  22137192.705   -12721923.530 8  -9885479.92147  22137191.959    22137202.3534
 00  4  3  0 45 30.0000000  0  8 13 17 06 26 24 23 08 10
  24529563.917     -992154.374 7   -756226.08145  24529561.304    24529567.6394
  21925889.064   -15382997.543 8 -11968361.35447  21925893.049    21925902.7974
  21238536.555   -19148741.996 9 -14901057.84447  21238538.949    21238548.7254
  20064662.620   -25161187.187 9 -19309094.67248  20064664.713    20064673.0064
  23271586.508    -8113920.354 8  -6300535.43346  23271589.169    23271602.5804
  23974871.545    -5304444.429 8  -4114815.10245  23974872.413    23974884.1284
  24257889.355    -4352598.317 7  -3385076.47645  24257889.836    24257902.0634
  22150265.622   -12653212.482 8  -9831938.88447  22150266.931    22150277.1784
 00  4  3  0 46  0.0000000  0  8 13 17 06 26 24 23 08 10
  24548936.033     -890277.746 7   -676841.72445  24548944.229    24548955.9544
  21910529.195   -15463726.375 9 -12031266.93247  21910531.094    21910539.4214
  21245920.138   -19109937.142 9 -14870820.33447  21245923.001    21245932.9224
  20059675.894   -25187376.810 9 -19329502.12848  20059681.123    20059689.3974
  23287131.284    -8032231.048 8  -6236881.58146  23287135.411    23287148.7974
  23961798.922    -5373137.444 8  -4168341.94745  23961799.616    23961812.9054
  24259686.424    -4343166.429 7  -3377726.84145  24259685.688    24259694.9734
  22163356.659   -12584417.302 8  -9778332.29547  22163359.004    22163368.3054
 00  4  3  0 46 30.0000000  0  8 13 17 06 26 24 23 08 10
  24568352.450     -788256.431 7   -597344.56145  24568364.289    24568369.2914
  21895198.377   -15544280.909 9 -12094036.60047  21895201.942    21895210.7164
  21253409.536   -19070582.262 9 -14840154.24047  21253412.018    21253421.6664
  20054814.522   -25212937.944 9 -19349419.85848  20054816.971    20054825.1964
  23302713.909    -7950347.130 8  -6173076.10346  23302717.778    23302730.0674
  23948755.562    -5441682.329 8  -4221753.40345  23948755.270    23948770.3734
  24261579.935    -4333214.667 7  -3369972.18345  24261578.081    24261589.1774
  22176466.257   -12515528.550 8  -9724652.79947  22176468.538    22176477.4864
 00  4  3  0 47  0.0000000  0  8 13 17 06 26 24 23 08 10
  24587797.412     -686089.755 7   -517734.03645  24587802.174    24587810.5594
  21879901.007   -15624658.826 8 -12156668.57847  21879904.813    21879915.7104
  21261006.601   -19030671.403 9 -14809054.91647  21261006.761    21261016.4314
  20050068.555   -25237878.724 9 -19368854.19448  20050071.197    20050079.1144
  23318329.788    -7868275.282 8  -6109124.16446  23318333.392    23318347.5664
  23935739.001    -5510077.880 8  -4275048.49145  23935739.884    23935754.7584
  24263584.225    -4322718.218 7  -3361793.04145  24263575.228    24263585.9324
  22189599.986   -12446530.481 8  -9670888.10847  22189597.777    22189608.2884
 00  4  3  0 47 30.0000000  0  8 13 17 06 26 24 23 08 10
  24607269.730     -583773.971 7   -438007.52845  24607274.305    24607282.2914
  21864638.894   -15704856.215 8 -12219160.02247  21864643.913    21864655.3644
  21268708.514   -18990192.057 9 -14777512.61747  21268710.088    21268719.9394
  20045438.462   -25262211.344 9 -19387814.63748  20045440.530    20045448.6004
  23333976.666    -7786022.694 8  -6045031.41346  23333985.933    23333999.8054
  23922748.926    -5578315.976 8  -4328220.85345  23922754.578    23922768.3594
  24265681.140    -4311657.437 7  -3353174.18645  24265681.008    24265691.2044
  22202749.337   -12377414.977 8  -9617031.92947  22202750.148    22202759.6914
 00  4  3  0 48  0.0000000  0  8 13 17 06 26 24 23 08 10
  24626778.703     -481292.399 7   -358151.63945  24626775.148    24626782.0954
  21849412.089   -15784884.439 8 -12281519.69547  21849415.378    21849425.5894
  21276517.754   -18949146.659 9 -14745529.23547  21276520.576    21276530.1694
  20040922.065   -25285940.869 9 -19406305.13648  20040924.548    20040932.8594
  23349670.093    -7703583.809 8  -5980793.47746  23349673.953    23349686.1824
  23909796.933    -5646396.467 8  -4381270.40845  23909799.440    23909813.2154
  24267875.582    -4300026.453 7  -3344110.94745  24267894.588    24267904.2884
  22215925.341   -12308177.398 8  -9563080.60347  22215925.169    22215934.8744
 00  4  3  0 48 30.0000000  0  8 13 17 06 26 24 23 08 10
  24646292.817     -378646.927 7   -278167.89745  24646307.393    24646315.5454
  21834214.179   -15864757.776 8 -12343758.61347  21834215.762    21834226.5534
  21284432.727   -18907541.667 9 -14713109.80447  21284437.303    21284447.6024
  20036522.320   -25309061.135 9 -19424320.90048  20036525.156    20036533.5354
  23365397.319    -7620920.547 8  -5916380.70146  23365404.203    23365418.6224
  23896863.409    -5714333.523 8  -4434208.25845  23896871.091    23896884.9084
  24270212.191    -4287815.753 7  -3334596.03245  24270217.029    24270228.2094
  22229122.108   -12238818.556 8  -9509034.79647  22229124.212    22229134.5734
 00  4  3  0 49  0.0000000  0  8 13 17 06 26 24 23 08 10
  24665869.205     -275837.756 7   -198056.74045  24665871.398    24665879.9074
  21819036.136   -15944485.754 8 -12405884.20947  21819043.409    21819053.7604
  21292458.283   -18865376.362 9 -14680253.76947  21292461.386    21292471.6774
  20032239.409   -25331557.871 9 -19441850.77548  20032243.967    20032252.2594
  23381184.577    -7537996.497 8  -5851764.72846  23381185.307    23381198.4964
  23883968.826    -5782138.532 8  -4487043.14745  23883969.187    23883981.3364
  24272648.621    -4275028.337 7  -3324631.60945  24272651.395    24272661.9184
  22242341.614   -12169352.412 8  -9454905.38147  22242343.746    22242353.4874
 00  4  3  0 49 30.0000000  0  8 13 17 06 26 24 23 08 10
  24685464.052     -172873.351 7   -117824.75145  24685464.400    24685472.0004
  21803894.044   -16024068.308 8 -12467896.54847  21803899.434    21803910.4834
  21300583.233   -18822678.605 9 -14646982.83047  21300587.202    21300596.6604
  20028082.436   -25353414.533 9 -19458881.90048  20028085.098    20028092.8704
  23397009.302    -7454806.384 8  -5786941.41645  23397014.507    23397028.7754
  23871090.681    -5849813.863 8  -4539777.03846  23871090.555    23871102.7314
  24275198.084    -4261671.913 7  -3314223.88345  24275192.913    24275203.2044
  22255575.871   -12099797.667 8  -9400706.94347  22255578.650    22255588.4384
 00  4  3  0 50  0.0000000  0  8 13 17 06 26 24 23 08 10
  24705078.583      -69759.445 7    -37476.23645  24705086.769    24705094.3974
  21788781.398   -16103508.281 8 -12529797.80247  21788782.871    21788793.8274
  21308809.873   -18779458.726 9 -14613305.03547  21308811.702    21308821.4504
  20024044.387   -25374627.882 9 -19475411.75148  20024048.003    20024056.0444
  23412889.815    -7371337.103 8  -5721900.59546  23412898.496    23412912.6374
  23858228.349    -5917380.355 8  -4592426.11146  23858232.781    23858245.7034
  24277827.219    -4247754.694 7  -3303379.20045  24277840.848    24277851.1164
  22268827.944   -12030165.664 8  -9346448.28246  22268829.345    22268838.7864
 00  4  3  0 50 30.0000000  0  8 13 17 06 26 24 23 08 10
  24724730.025       33491.592 7     42979.16345  24724734.350    24724741.4534
  21773693.242   -16182787.279 8 -12591573.54147  21773696.719    21773707.5794
  21317129.770   -18735719.679 9 -14579222.69747  21317134.478    21317144.7454
  20020128.858   -25395200.661 9 -19491442.45048  20020133.000    20020141.1574
  23428832.996    -7287594.978 8  -5656647.18446  23428835.080    23428848.0284
  23845393.401    -5984851.683 8  -4645001.00946  23845393.595    23845406.7464
  24280593.249    -4233291.147 7  -3292108.76645  24280595.183    24280604.7814
  22282091.141   -11960458.765 8  -9292131.25546  22282094.837    22282104.1034
 00  4  3  0 51  0.0000000  0  8 13 17 06 26 24 23 08 10
  24744408.194      136886.192 7    123546.58045  24744410.057    24744418.2394
  21758641.845   -16261882.876 8 -12653206.42047  21758644.867    21758655.5124
  21325549.861   -18691474.008 9 -14544745.58647  21325554.240    21325563.9174
  20016333.410   -25415152.916 9 -19506989.62248  20016336.638    20016344.3694
  23444815.352    -7203606.545 8  -5591201.82146  23444817.538    23444831.1334
  23832568.863    -6052225.616 8  -4697500.03646  23832572.697    23832586.1934
  24283436.432    -4218287.315 7  -3280417.35745  24283448.955    24283459.0074
  22295373.430   -11890678.964 8  -9237757.42447  22295374.446    22295383.0264
 00  4  3  0 51 30.0000000  0  8 13 17 06 26 24 23 08 10
  24764110.111      240427.818 7    204228.41345  24764113.572    24764122.1864
  21743623.416   -16340792.350 8 -12714694.34047  21743628.641    21743639.5874
  21334067.202   -18646725.899 9 -14509876.96747  21334069.711    21334079.1444
  20012651.553   -25434502.894 9 -19522067.50048  20012654.275    20012662.4144
  23460841.812    -7119399.127 8  -5525585.81946  23460841.668    23460856.5364
  23819765.905    -6119498.723 8  -4749920.47646  23819770.635    23819785.2774
  24286413.337    -4202744.066 7  -3268305.62645  24286406.516    24286416.3994
  22308664.350   -11820820.295 8  -9183322.14946  22308666.969    22308676.6924
 00  4  3  0 52  0.0000000  0  8 13 17 06 26 24 23 08 10
  24783846.043      344114.114 7    285023.05045  24783843.821    24783851.3504
  21728642.562   -16419517.364 8 -12776038.53747  21728647.931    21728658.6874
  21342683.521   -18601449.982 9 -14474597.06847  21342685.413    21342695.2254
  20009079.808   -25453261.250 9 -19536684.37648  20009084.734    20009092.8594
  23476896.480    -7034986.975 8  -5459810.28446  23476903.998    23476918.8834
  23806981.814    -6186670.611 8  -4802262.02046  23806986.619    23807000.6864
  24289460.617    -4186662.592 7  -3255774.50445  24289465.274    24289477.2644
  22321978.808   -11750868.263 8  -9128814.13346  22321978.352    22321987.6384
 00  4  3  0 52 30.0000000  0  8 13 17 06 26 24 23 08 10
  24803586.907      447936.524 7    365923.65945  24803600.316    24803608.3774
  21713703.402   -16498036.672 9 -12837222.35547  21713706.559    21713716.9044
  21351398.681   -18555650.253 9 -14438909.00347  21351400.695    21351410.6234
  20005625.618   -25471424.087 9 -19550837.18948  20005628.053    20005636.2404
  23493000.654    -6950387.157 8  -5393888.52546  23493003.385    23493018.7294
  23794223.366    -6253726.731 8  -4854513.40746  23794226.808    23794240.3864
  24292629.552    -4170028.709 7  -3242812.86045  24292631.923    24292640.8544
  22335305.355   -11680811.327 8  -9074224.35946  22335309.741    22335319.5794
 00  4  3  0 53  0.0000000  0  8 13 17 06 26 24 23 08 10
  24823383.462      551883.132 7    446920.88345  24823380.532    24823386.8634
  21698800.842   -16576349.253 9 -12898245.06547  21698804.524    21698814.3684
  21360214.534   -18509316.905 9 -14402805.14047  21360217.910    21360227.1694
  20002285.366   -25488976.385 9 -19564514.25748  20002288.204    20002296.2294
  23509132.326    -6865602.530 8  -5327822.77446  23509137.817    23509152.2694
  23781493.005    -6320641.784 8  -4906654.87946  23781493.786    23781507.2364
  24295907.475    -4152829.262 7  -3229410.56245  24295902.274    24295914.2494
  22348654.598   -11610653.194 8  -9019555.71146  22348660.045    22348670.2314
 00  4  3  0 53 30.0000000  0  8 13 17 06 26 24 23 08 10
  24843175.828      655937.645 7    528002.49045  24843180.917    24843190.0774
  21683934.482   -16654470.375 9 -12959118.56947  21683938.643    21683948.3604
  21369135.568   -18462441.181 9 -14366278.65147  21369137.904    21369147.1124
  19999063.807   -25505903.620 9 -19577704.27948  19999066.857    19999074.8994
  23525302.353    -6780633.289 8  -5261613.17246  23525308.110    23525321.3754
  23768779.999    -6387411.896 8  -4958683.37245  23768786.597    23768800.2624
  24299287.291    -4135056.463 7  -3215561.49345  24299285.143    24299294.4484
  22362030.670   -11540387.396 8  -8964803.21246  22362031.177    22362041.4394
 00  4  3  0 54  0.0000000  0  8 13 17 06 26 24 23 08 10
  24862999.999      760082.798 7    609154.69045  24863000.477    24863008.0204
  21669108.077   -16732383.337 9 -13019829.85547  21669111.679    21669121.6804
  21378156.196   -18415027.785 9 -14329333.18747  21378160.356    21378170.1564
  19995967.777   -25522186.685 9 -19590392.36548  19995968.629    19995976.5694
  23541517.341    -6695464.684 8  -5195248.17345  23541514.924    23541527.1264
  23756105.276    -6454041.435 8  -5010602.36146  23756108.291    23756120.8364
  24302766.659    -4116705.685 7  -3201262.08645  24302777.216    24302788.6954
  22375420.851   -11470011.421 8  -8909964.85746  22375423.573    22375433.4514
 00  4  3  0 54 30.0000000  0  8 13 17 06 26 24 23 08 10
  24882841.469      864325.313 8    690382.88245  24882836.853    24882845.2564
  21654322.328   -16810083.790 9 -13080375.61847  21654326.447    21654336.0614
  21387281.057   -18367085.391 9 -14291975.51747  21387283.291    21387293.7314
  19992990.490   -25537817.694 9 -19602572.34748  19992994.010    19993001.9904
  23557757.730    -6610088.181 8  -5128721.21545  23557761.090    23557774.4844
  23743457.274    -6520526.669 8  -5062408.88246  23743456.562    23743469.7664
  24306382.737    -4097783.933 7  -3186517.78545  24306377.974    24306388.5974
  22388832.081   -11399537.286 8  -8855049.97746  22388834.241    22388843.3924
 00  4  3  0 55  0.0000000  0  8 13 17 06 26 24 23 08 10
  24902701.649      968671.274 8    771691.33345  24902693.598    24902701.0684
  21639572.329   -16887596.275 9 -13140774.91347  21639576.101    21639586.1284
  21396505.777   -18318610.405 9 -14254202.83347  21396507.735    21396518.3994
  19990141.649   -25552795.459 9 -19614243.29948  19990143.666    19990151.6974
  23574041.530    -6524494.134 8  -5062024.73646  23574049.163    23574064.9284
  23730823.528    -6586872.926 8  -5114107.11246  23730831.227    23730844.8404
  24310082.899    -4078314.383 7  -3171346.63645  24310085.024    24310093.7584
  22402261.144   -11328969.553 8  -8800062.17146  22402263.146    22402272.5634
 00  4  3  0 55 30.0000000  0  8 13 17 06 26 24 23 08 10
  24922565.281     1073128.931 7    853086.80345  24922570.733    24922579.4934
  21624860.235   -16964924.345 9 -13201030.46247  21624861.232    21624871.7314
  21405828.749   -18269611.672 9 -14216022.04347  21405832.134    21405842.2884
  19987412.989   -25567124.846 9 -19625409.01548  19987416.637    19987424.7104
  23590375.381    -6438678.211 8  -4995155.38946  23590380.975    23590394.5634
  23718224.402    -6653101.988 8  -5165714.03646  23718227.976    23718240.6004
  24313899.488    -4058308.962 7  -3155757.86245  24313890.291    24313900.1344
  22415707.424   -11258305.655 8  -8744999.42846  22415710.484    22415719.9964
 00  4  3  0 56  0.0000000  0  8 13 17 06 26 24 23 08 10
  24942462.281     1177711.046 7    934579.45445  24942471.574    24942479.8134
  21610181.051   -17042045.900 9 -13261125.14647  21610185.606    21610195.5534
  21415254.294   -18220087.766 9 -14177432.04247  21415256.619    21415266.4344
  19984808.798   -25580811.576 9 -19636073.97348  19984812.355    19984820.3114
  23606755.502    -6352631.919 8  -4928106.50046  23606755.353    23606767.5314
  23705645.338    -6719210.949 8  -5217227.33246  23705647.402    23705660.3294
  24317785.304    -4037787.971 7  -3139767.26945  24317796.068    24317805.7094
  22429174.854   -11187550.696 8  -8689865.74846  22429174.803    22429184.5124
 00  4  3  0 56 30.0000000  0  7 17 06 26 24 23 08 10
  21595547.778   -17118963.124 9 -13321060.51247  21595548.394    21595558.2564
  21424777.214   -18170037.798 9 -14138432.11347  21424780.877    21424790.8134
  19982323.514   -25593876.929 9 -19646254.73648  19982326.149    19982333.9294
  23623163.824    -6266361.198 8  -4860882.75045  23623170.809    23623184.8604
  23693080.713    -6785202.185 8  -5268648.92346  23693089.581    23693102.6754
  24321794.079    -4016759.600 7  -3123381.47145  24321796.726    24321804.0734
  22442655.674   -11116706.346 8  -8634662.38646  22442655.460    22442664.8524
 00  4  3  0 57  0.0000000  0  7 17 06 26 24 23 08 10
  21580948.084   -17195669.172 9 -13380831.36047  21580951.365    21580961.1704
  21434400.260   -18119481.580 9 -14099037.70947  21434401.555    21434411.3284
  19979952.942   -25606333.127 9 -19655960.83748  19979955.495    19979963.5374
  23639628.738    -6179866.829 8  -4793484.69345  23639629.352    23639643.0894
  23680551.656    -6851077.842 8  -5319980.45546  23680554.354    23680567.2634
  24325892.678    -3995213.410 7  -3106592.16145  24325897.889    24325905.7854
  22456151.899   -11045768.966 8  -8579386.53046  22456154.266    22456164.3604
 00  4  3  0 57 30.0000000  0  7 17 06 26 24 23 08 10
  21566393.069   -17272143.231 8 -13440421.49647  21566398.403    21566408.2204
  21444113.802   -18068433.174 9 -14059259.77747  21444114.819    21444125.1214
  19977696.695   -25618189.383 9 -19665199.45248  19977699.318    19977707.6714
  23656128.279    -6093147.209 8  -4725911.13945  23656131.925    23656147.0774
  23668042.666    -6916843.826 8  -5371226.57346  23668041.093    23668052.0684
  24330102.629    -3973128.278 7  -3089382.86845  24330100.010    24330109.3524
  22469670.351   -10974745.240 8  -8524043.42346  22469669.999    22469680.0014
 00  4  3  0 58  0.0000000  0  6 17 06 26 24 23 10
  21551889.425   -17348376.012 9 -13499823.70547  21551891.940    21551902.1334
  21453917.947   -18016898.008 9 -14019102.55347  21453921.846    21453932.4974
  19975553.042   -25629450.334 9 -19673974.19148  19975556.424    19975564.5934
  23672676.419    -6006200.415 8  -4658160.62445  23672678.268    23672691.7574
  23655544.128    -6982492.876 8  -5422381.54446  23655546.513    23655560.6984
  22483195.162   -10903638.457 8  -8468635.60646  22483201.087    22483211.3594
 00  4  3  0 58 30.0000000  0  6 17 06 26 24 23 10
  21537425.437   -17424390.100 9 -13559055.50547  21537427.531    21537436.7884
  21463816.997   -17964889.964 9 -13978576.84047  21463818.838    21463829.8554
  19973527.032   -25640103.451 9 -19682275.29548  19973529.234    19973537.3404
  23689264.156    -5919029.535 8  -4590235.45245  23689266.116    23689280.3664
  23643071.060    -7048027.543 8  -5473447.34946  23643074.304    23643089.3884
  22496747.307   -10832451.809 8  -8413165.53146  22496747.186    22496757.1184
 00  4  3  0 59  0.0000000  0  6 17 06 26 24 23 10
  21522998.899   -17500193.477 9 -13618122.93147  21523002.435    21523012.2594
  21473803.115   -17912405.523 9 -13937679.91847  21473806.680    21473816.7104
  19971618.123   -25650131.655 9 -19690089.45048  19971621.100    19971629.1434
  23705891.625    -5831635.865 8  -4522136.65245  23705895.651    23705910.6274
  23630623.712    -7113442.827 8  -5524420.12646  23630627.151    23630639.7344
  22510303.370   -10761190.193 8  -8357637.03646  22510308.406    22510318.1284
 00  4  3  0 59 30.0000000  0  6 17 06 26 24 23 10
  21508612.806   -17575795.593 9 -13677033.58047  21508615.772    21508625.1554
  21483886.601   -17859418.054 9 -13896391.03447  21483889.615    21483899.8994
  19969831.793   -25659518.521 9 -19697403.85448  19969834.735    19969842.8094
  23722560.624    -5744024.764 7  -4453868.49145  23722568.147    23722583.5084
  23618201.976    -7178733.346 8  -5575295.69546  23618204.463    23618215.8064
  22523881.701   -10689847.636 8  -8302045.46946  22523884.354    22523893.9194
 00  4  3  1  0  0.0000000  0  6 17 06 26 24 23 10
  21494261.641   -17651201.651 9 -13735791.47047  21494266.540    21494276.1974
  21494065.745   -17805921.201 9 -13854705.23447  21494070.309    21494080.3284
  19968165.774   -25668256.854 9 -19704212.92048  19968171.697    19968180.0354
  23739267.363    -5656209.665 7  -4385441.35045  23739279.423    23739295.2114
  23605805.714    -7243891.992 8  -5626068.56846  23605805.857    23605815.1844
  22537471.644   -10618413.792 8  -8246382.76546  22537477.249    22537487.8664
 00  4  3  1  0 30.0000000  0  6 17 06 26 24 23 10
  21479951.269   -17726412.036 9 -13794396.94847  21479954.342    21479964.1094
  21504341.717   -17751916.795 9 -13812623.91947  21504346.810    21504356.8414
  19966629.807   -25676353.534 9 -19710521.99348  19966631.082    19966639.0614
  23756026.198    -5568200.574 8  -4316863.03745  23756027.949    23756042.9784
  23593426.545    -7308927.611 8  -5676745.57946  23593428.967    23593440.5804
  22551091.993   -10546875.359 8  -8190638.56546  22551090.927    22551101.4924
 00  4  3  1  1  0.0000000  0  6 17 06 26 24 23 10
  21465682.089   -17801400.705 9 -13852829.53247  21465684.293    21465693.9174
  21514720.884   -17697388.531 9 -13770134.41947  21514723.266    21514732.9614
  19965204.315   -25683826.001 9 -19716344.66548  19965209.058    19965217.2374
  23772809.153    -5479996.518 8  -4248132.80445  23772812.861    23772828.6074
  23581074.016    -7373838.069 8  -5727324.97346  23581074.661    23581089.4524
  22564719.468   -10475230.956 8  -8134811.80146  22564724.527    22564735.3284
 00  4  3  1  1 30.0000000  0  6 17 06 26 24 23 10
  21451454.195   -17876158.598 9 -13911082.36547  21451458.235    21451467.8774
  21525191.906   -17642349.675 9 -13727247.05047  21525196.550    21525206.7484
  19963902.114   -25690687.966 9 -19721691.62248  19963903.142    19963911.2954
  23789625.111    -5391596.631 8  -4179249.96145  23789633.956    23789649.2354
  23568743.508    -7438626.220 8  -5777809.09446  23568746.505    23568760.4054
  22578370.465   -10403477.561 8  -8078900.09446  22578378.790    22578389.0944
 00  4  3  1  2  0.0000000  0  6 17 06 26 24 23 10
  21437277.871   -17950671.014 9 -13969143.96647  21437279.196    21437288.0114
  21535761.130   -17586820.223 8 -13683977.40347  21535763.318    21535773.2404
  19962707.672   -25696955.608 9 -19726575.46848  19962710.540    19962718.3244
  23806497.499    -5302993.032 7  -4110208.43945  23806494.502    23806509.7114
  23556435.018    -7503302.326 8  -5828205.92646  23556440.011    23556451.4894
  22592049.079   -10331621.950 8  -8022908.72946  22592053.057    22592062.6264
 00  4  3  1  2 30.0000000  0  6 17 06 26 24 23 10
  21423142.209   -18024938.691 9 -14027014.78147  21423145.814    21423155.7944
  21546420.170   -17530793.008 9 -13640319.88847  21546425.167    21546435.0334
  19961625.789   -25702628.971 9 -19730996.22848  19961630.803    19961638.9534
  23823397.897    -5214180.675 8  -4041004.21445  23823397.002    23823410.0314
  23544152.754    -7567863.143 8  -5878512.95946  23544154.118    23544165.2624
  22605740.610   -10259677.091 8  -7966847.83246  22605743.493    22605753.0084
 00  4  3  1  3  0.0000000  0  6 17 06 26 24 23 10
  21409055.066   -18098963.788 9 -14084696.60047  21409059.177    21409069.2694
  21557179.751   -17474277.665 9 -13596282.00947  21557179.858    21557190.1044
  19960661.505   -25707706.769 9 -19734952.91848  19960664.488    19960672.5104
  23840331.734    -5125156.522 8  -3971634.92745  23840336.829    23840351.6124
  23531888.570    -7632294.355 8  -5928718.99146  23531892.763    23531903.8434
  22619443.000   -10187664.058 8  -7910733.79846  22619447.096    22619456.8964
 00  4  3  1  3 30.0000000  0  6 17 06 26 24 23 10
  21395016.302   -18172753.288 9 -14142194.84947  21395018.077    21395027.6794
  21568019.356   -17417294.565 9 -13551879.65347  21568023.299    21568033.8634
  19959807.628   -25712189.266 9 -19738445.74548  19959811.305    19959819.5344
  23857312.590    -5035931.175 8  -3902108.91745  23857316.478    23857331.9704
  23519651.995    -7696599.493 8  -5978826.76446  23519655.433    23519668.5324
  22633163.525   -10115577.482 8  -7854562.46446  22633164.743    22633175.1294
 00  4  3  1  4  0.0000000  0  6 17 06 26 24 23 10
  21381016.785   -18246306.931 9 -14199509.30547  21381021.391    21381030.3524
  21578952.802   -17359837.262 8 -13507107.78747  21578957.097    21578967.2404
  19959067.126   -25716079.435 9 -19741477.02248  19959071.206    19959079.3864
  23874328.863    -4946508.003 7  -3832428.71745  23874331.653    23874348.8394
  23507444.268    -7760767.173 8  -6028827.39246  23507444.659    23507457.4674
  22646888.462   -10043421.688 8  -7798337.20646  22646894.819    22646906.1024
 00  4  3  1  4 30.0000000  0  6 17 06 26 24 23 10
  21367065.306   -18319636.073 9 -14256648.84147  21367067.051    21367076.9324
  21589973.934   -17301919.992 8 -13461977.50147  21589977.921    21589988.9504
  19958441.086   -25719367.332 9 -19744038.99748  19958445.574    19958453.2154
  23891393.465    -4856894.704 8  -3762600.37345  23891384.788    23891400.9124
  23495260.630    -7824791.051 8  -6078715.99946  23495262.003    23495274.2034
  22660634.873    -9971190.495 8  -7742053.19046  22660639.487    22660650.6904
 00  4  3  1  5  0.0000000  0  6 17 06 26 24 23 10
  21353153.110   -18392732.479 9 -14313606.98647  21353157.018    21353166.7074
  21601080.112   -17243553.771 9 -13416497.39547  21601085.005    21601095.0084
  19957928.660   -25722054.924 9 -19746133.20548  19957934.175    19957942.2194
  23908468.397    -4767090.429 8  -3692623.25245  23908474.414    23908489.2604
  23483098.901    -7888682.230 8  -6128501.20246  23483103.272    23483115.6054
  22674401.642    -9898880.240 8  -7685707.57346  22674400.118    22674410.2024
 00  4  3  1  5 30.0000000  0  6 17 06 26 24 23 10
  21339286.490   -18465597.870 9 -14370385.16447  21339291.104    21339301.0204
  21612278.813   -17184720.701 9 -13370653.49547  21612281.160    21612291.2584
  19957535.681   -25724129.696 9 -19747749.87748  19957539.484    19957547.5194
  23925598.452    -4677097.025 8  -3622498.73545  23925600.429    23925615.2354
  23470963.430    -7952451.120 8  -6178191.12846  23470966.679    23470980.6524
  22688177.912    -9826481.057 8  -7629292.64846  22688177.259    22688188.1094
 00  4  3  1  6  0.0000000  0  6 17 06 26 24 23 10
  21325464.430   -18538233.687 9 -14426984.43347  21325468.984    21325478.4944
  21623563.794   -17125417.927 9 -13324443.59947  21623566.138    21623576.3794
  19957261.670   -25725575.223 9 -19748876.22948  19957264.301    19957272.2824
  23942770.369    -4586908.638 7  -3552222.27145  23942762.130    23942778.5804
  23458852.070    -8016098.707 8  -6227786.52046  23458855.779    23458868.2584
  22701968.175    -9754000.923 8  -7572814.66046  22701970.018    22701981.7194
 00  4  3  1  6 30.0000000  0  6 17 06 26 24 23 10
  21311687.478   -18610633.995 9 -14483400.23647  21311691.884    21311701.7684
  21634940.845   -17065643.188 9 -13277865.93547  21634940.804    21634951.2924
  19957106.531   -25726382.889 9 -19749505.54948  19957110.257    19957118.3414
  23959948.696    -4496527.988 7  -3481796.00545  23959960.821    23959979.6404
  23446754.077    -8079636.105 8  -6277296.06646  23446764.494    23446776.8814
  22715775.863    -9681443.439 8  -7516276.39746  22715778.022    22715788.4494
 00  4  3  1  7  0.0000000  0  6 17 06 26 24 23 10
  21297956.516   -18682786.573 9 -14539622.99147  21297961.663    21297971.4344
  21646402.828   -17005382.354 8 -13230909.49747  21646408.026    21646418.2174
  19957074.426   -25726559.589 9 -19749643.20548  19957076.761    19957084.6674
  23977184.354    -4405954.101 7  -3411219.21245  23977197.585    23977213.1404
  23434692.275    -8143060.793 8  -6326717.77246  23434694.830    23434707.5964
  22729597.219    -9608821.649 8  -7459688.03546  22729596.135    22729607.5844
 00  4  3  1  7 30.0000000  0  6 17 06 26 24 23 10
  21284273.483   -18754683.176 9 -14595646.25047  21284280.032    21284289.8314
  21657963.386   -16944640.374 8 -13183578.12147  21657966.490    21657977.2624
  19957160.252   -25726107.904 9 -19749291.22448  19957162.491    19957170.9584
  23994472.993    -4315181.809 8  -3340487.71545  23994472.932    23994485.8904
  23422647.569    -8206368.855 8  -6376048.59446  23422647.469    23422660.7644
  22743425.693    -9536129.412 8  -7403044.76446  22743429.006    22743440.2384
 00  4  3  1  8  0.0000000  0  6 17 06 26 24 23 10
  21270649.041   -18826308.499 9 -14651458.09247  21270650.120    21270659.5264
  21669607.687   -16883436.060 8 -13135886.49247  21669612.985    21669623.7824
  19957362.886   -25725039.714 9 -19748458.83748  19957365.889    19957374.3914
  24011777.892    -4224210.594 7  -3269601.28345  24011782.757    24011799.9674
  23410617.028    -8269567.164 8  -6425293.91246  23410621.848    23410633.3974
  22757271.307    -9463371.138 8  -7346350.05346  22757275.025    22757285.5014
 00  4  3  1  8 30.0000000  0  6 17 06 26 24 23 10
  21257068.627   -18897656.352 9 -14707053.76547  21257073.064    21257082.7044
  21681340.988   -16821774.938 8 -13087838.92247  21681346.561    21681357.5034
  19957681.081   -25723367.554 9 -19747155.82348  19957684.263    19957692.2864
  24029129.238    -4133044.769 7  -3198563.21545  24029129.692    24029148.0854
  23398613.129    -8332660.488 8  -6474457.42946  23398614.497    23398627.5684
  22771135.798    -9390541.854 8  -7289599.99846  22771134.816    22771144.5114
 00  4  3  1  9  0.0000000  0  6 17 06 26 24 23 10
  21243545.075   -18968724.549 9 -14762431.50247  21243548.746    21243558.3774
  21693162.014   -16759667.431 8 -13039443.51547  21693165.725    21693176.3954
  19958115.750   -25721088.559 9 -19745379.95548  19958117.849    19958125.6284
  24046519.974    -4041676.427 7  -3127367.34645  24046518.428    24046533.7354
  23386625.880    -8395654.487 8  -6523543.53846  23386627.714    23386641.1574
  22785004.835    -9317639.105 8  -7232792.72346  22785007.697    22785017.4404
 00  4  3  1  9 30.0000000  0  6 17 06 26 24 23 10
  21230074.302   -19039512.440 9 -14817590.86947  21230078.305    21230087.9434
  21705070.989   -16697112.433 8 -12990699.40247  21705070.167    21705080.6984
  19958664.471   -25718194.172 9 -19743124.56048  19958668.071    19958676.6044
  24063927.762    -3950111.436 7  -3056018.22345  24063942.589    24063957.6854
  23374653.094    -8458555.284 8  -6572556.99746  23374658.969    23374670.6054
  22798894.011    -9244662.502 8  -7175927.86146  22798894.682    22798904.9634
 00  4  3  1 10  0.0000000  0  6 17 06 26 24 23 10
  21216653.465   -19110035.562 9 -14872543.89347  21216658.328    21216667.9834
  21717057.914   -16634106.827 9 -12941604.20247  21717059.973    21717070.2784
  19959334.952   -25714678.926 9 -19740385.37448  19959337.386    19959345.3864
  24081399.314    -3858363.829 7  -2984526.79445  24081400.979    24081416.7254
  23362707.783    -8521343.979 8  -6621483.11646  23362710.869    23362721.8784
  22812791.589    -9171623.322 8  -7119014.25246  22812792.971    22812803.6894
 00  4  3  1 10 30.0000000  0  6 17 06 26 24 23 10
  21203285.552   -19180302.599 9 -14927297.33147  21203287.258    21203296.5754
  21729129.005   -16570645.419 8 -12892153.80847  21729136.248    21729146.4604
  19960120.506   -25710536.063 9 -19737157.13148  19960125.636    19960133.8574
  24098888.475    -3766443.859 7  -2912901.10445  24098893.287    24098908.8174
  23350786.067    -8583999.668 8  -6670305.60346  23350787.858    23350798.7884
  22826703.892    -9098516.349 8  -7062047.82046  22826705.491    22826715.1064
 00  4  3  1 11  0.0000000  0  6 17 06 26 24 23 10
  21189963.420   -19250311.887 9 -14981849.93847  21189964.805    21189974.3934
  21741299.714   -16506712.963 9 -12842336.37247  21741302.529    21741311.7164
  19961030.630   -25705769.983 9 -19733443.28248  19961032.882    19961041.2174
  24116416.210    -3674349.658 7  -2841139.61145  24116419.164    24116433.7314
  23338886.588    -8646515.040 8  -6719018.74946  23338891.052    23338903.1244
  22840629.219    -9025339.090 8  -7005026.58946  22840630.255    22840640.2954
 00  4  3  1 11 30.0000000  0  6 17 06 26 24 23 10
  21176688.668   -19320061.155 9 -15036199.99647  21176691.734    21176701.8034
  21753555.111   -16442312.658 9 -12792154.36247  21753557.580    21753567.4614
  19962054.154   -25700391.839 9 -19729252.49548  19962056.430    19962064.2754
  24133970.881    -3582094.564 7  -2769252.72645  24133974.426    24133990.4054
  23327019.503    -8708882.602 8  -6767616.71446  23327023.420    23327034.3834
  22854575.233    -8952083.905 8  -6947944.65146  22854570.624    22854580.4164
 00  4  3  1 12  0.0000000  0  6 17 06 26 24 23 10
  21163467.306   -19389546.606 9 -15090344.42047  21163469.321    21163479.1994
  21765895.394   -16377457.713 8 -12741618.09747  21765898.549    21765908.9374
  19963190.387   -25694416.971 9 -19724596.72748  19963193.080    19963201.0584
  24151564.438    -3489673.724 8  -2697236.69845  24151561.462    24151577.2794
  23315180.223    -8771104.986 8  -6816101.55446  23315182.355    23315192.4824
  22868523.622    -8878737.298 8  -6890791.48046  22868527.536    22868538.0054
 00  4  3  1 12 30.0000000  0  6 17 06 26 24 23 10
  21150295.248   -19458751.832 9 -15144270.46247  21150299.608    21150309.4914
  21778324.971   -16312155.025 8 -12690732.93047  21778325.421    21778335.4884
  19964437.351   -25687858.458 9 -19719486.16648  19964441.123    19964448.9174
  24169171.789    -3397070.388 7  -2625078.50745  24169185.726    24169201.2964
  23303359.017    -8833207.770 8  -6864493.20746  23303363.726    23303375.5454
  22882501.413    -8805290.240 8  -6833560.03746  22882504.588    22882515.1174
 00  4  3  1 13  0.0000000  0  6 17 06 26 24 23 10
  21137182.730   -19527666.689 9 -15197970.37447  21137185.644    21137194.9524
  21790829.541   -16246414.922 8 -12639506.92347  21790834.844    21790845.6404
  19965796.229   -25680720.983 9 -19713924.46448  19965799.832    19965807.4074
  24186836.142    -3304268.209 7  -2552765.35145  24186844.951    24186859.4364
  23291565.377    -8895206.012 8  -6912803.41246  23291565.912    23291579.2674
  22896494.585    -8731757.494 8  -6776261.83146  22896497.843    22896507.8394
 00  4  3  1 13 30.0000000  0  6 17 06 26 24 23 10
  21124124.490   -19596293.789 9 -15251445.93747  21124126.459    21124135.4944
  21803420.931   -16180262.182 8 -12587959.39847  21803423.682    21803433.9704
  19967265.861   -25672995.577 9 -19707904.62648  19967269.428    19967277.2164
  24204549.272    -3211262.030 7  -2480293.22445  24204542.079    24204557.6754
  23279788.412    -8957096.282 8  -6961029.43946  23279789.516    23279801.8864
  22910497.577    -8658157.615 8  -6718911.30346  22910502.893    22910512.9234
 00  4  3  1 14  0.0000000  0  6 17 06 26 24 23 10
  21111118.500   -19664632.929 9 -15304697.11447  21111121.807    21111131.0304
  21816084.828   -16113692.753 8 -12536087.18847  21816091.113    21816101.9964
  19968849.570   -25664681.227 9 -19701425.88548  19968851.722    19968859.3804
  24222280.456    -3118041.708 7  -2407654.21045  24222281.012    24222297.8724
  23268031.181    -9018873.105 8  -7009167.07846  23268032.848    23268044.7944
  22924519.608    -8584505.815 8  -6661520.31846  22924518.471    22924527.8384
 00  4  3  1 14 30.0000000  0  6 17 06 26 24 23 10
  21098170.225   -19732682.688 9 -15357722.79747  21098172.079    21098181.2994
  21828837.098   -16046705.982 8 -12483889.76847  21828838.982    21828848.9484
  19970547.861   -25655758.902 9 -19694473.40248  19970549.627    19970557.3484
  24240053.161    -3024610.557 7  -2334850.89245  24240060.957    24240078.8784
  23256291.175    -9080545.035 8  -7057222.99746  23256297.855    23256308.9074
  22938538.761    -8510814.821 8  -6604098.78046  22938541.083    22938551.7014
 00  4  3  1 15  0.0000000  0  6 17 06 26 24 23 10
  21085275.828   -19800437.336 9 -15410518.45547  21085278.889    21085288.0774
  21841663.474   -15979302.021 9 -12431367.27047  21841666.167    21841675.7594
  19972364.919   -25646212.702 9 -19687034.77348  19972366.214    19972373.7174
  24257869.610    -2930982.871 7  -2261894.47645  24257878.652    24257895.3004
  23244583.182    -9142102.317 8  -7105189.59246  23244583.717    23244595.0624
  22952567.340    -8437088.851 8  -6546650.01646  22952570.736    22952581.3574
 00  4  3  1 15 30.0000000  0  6 17 06 26 24 23 10
  21072439.904   -19867890.196 9 -15463078.99747  21072442.544    21072451.8734
  21854569.100   -15911473.749 8 -12378514.13947  21854573.167    21854583.6474
  19974296.197   -25636046.953 9 -19679113.38548  19974300.307    19974308.3484
  24275731.839    -2837176.925 7  -2188799.17245  24275729.733    24275745.1814
  23232887.067    -9203546.247 8  -7153067.84346  23232889.928    23232902.2144
  22966609.780    -8363310.461 8  -6489160.39746  22966609.740    22966620.7654
 00  4  3  1 16  0.0000000  0  7 17 06 26 09 24 23 10
  21059661.959   -19935029.935 9 -15515395.58647  21059666.302    21059676.0314
  21867556.869   -15843207.590 8 -12325319.78947  21867562.703    21867573.9984
  19976348.496   -25625272.003 9 -19670717.30448  19976350.760    19976358.6574
  24487889.345      -61324.68117
  24293618.244    -2743205.266 7  -2115574.75845  24293611.408    24293628.1804
  23221211.851    -9264887.601 8  -7200866.18546  23221216.927    23221229.2354
  22980666.758    -8289454.717 8  -6431610.50446  22980664.514    22980675.0764
 00  4  3  1 16 30.0000000  0  7 17 06 26 09 24 23 10
  21046947.604   -20001860.804 9 -15567471.63647  21046949.218    21046958.2444
  21880634.913   -15774506.264 8 -12271786.36047  21880636.484    21880647.5824
  19978512.508   -25613893.144 9 -19661850.63048  19978516.106    19978523.9974
  24468062.905     -165425.636 7
  24311516.470    -2649076.189 7  -2042227.64044  24311522.758    24311540.7704
  23209561.457    -9326127.137 8  -7248585.18046  23209564.612    23209575.5974
  22994733.945    -8215504.477 8  -6373986.97646  22994736.791    22994746.7994
 00  4  3  1 17  0.0000000  0  7 17 06 26 09 24 23 10
  21034283.690   -20068391.268 9 -15619313.53547  21034288.599    21034297.8374
  21893794.831   -15705359.352 8 -12217905.71447  21893795.637    21893805.4624
  19980787.188   -25601937.138 9 -19652534.23648  19980791.204    19980799.1474
  24448244.920     -269562.963 7   -184644.70355  24448254.383    24448269.1624
  24329460.010    -2554794.587 7  -1968761.68345  24329465.099    24329481.3354
  23197933.263    -9387239.267 8  -7296204.90246  23197935.205    23197947.1754
  23008827.075    -8141455.486 8  -6316286.47846  23008828.200    23008837.4464
 00  4  3  1 17 30.0000000  0  7 17 06 26 09 24 23 10
  21021678.728   -20134637.137 9 -15670933.70247  21021682.521    21021691.4804
  21907034.486   -15635768.877 8 -12163679.43547  21907038.095    21907047.4404
  19983170.966   -25589417.317 9 -19642778.50748  19983173.986    19983181.7284
  24428436.954     -373725.775 7   -265810.28245  24428432.478    24428447.8134
  24347396.419    -2460359.856 7  -1895176.40045  24347435.126    24347451.8124
  23186328.111    -9448215.516 8  -7343718.74146  23186331.156    23186343.6214
  23022937.089    -8067305.104 8  -6258506.98846  23022939.081    23022948.7914
 00  4  3  1 18  0.0000000  0  7 17 06 26 09 24 23 10
  21009125.269   -20200611.408 9 -15722342.23047  21009128.043    21009137.0564
  21920361.302   -15565745.508 8 -12109115.83447  21920362.626    21920373.2434
  19985663.470   -25576320.797 9 -19632573.40248  19985665.662    19985673.7544
  24408592.551     -477902.955 7   -346987.01845  24408605.232    24408622.5094
  24365438.242    -2365755.613 7  -1821459.02444  24365439.660    24365454.8824
  23174752.223    -9509047.391 8  -7391120.07246  23174754.485    23174767.0214
  23037065.845    -7993063.624 8  -6200656.51546  23037065.640    23037076.7374
 00  4  3  1 18 30.0000000  0  7 17 06 26 09 24 23 10
  20996621.995   -20266321.965 9 -15773545.19147  20996623.910    20996632.4904
  21933764.823   -15495306.439 8 -12054228.30547  21933766.945    21933776.8244
  19988267.835   -25562633.163 9 -19621907.68748  19988270.185    19988278.6194
  24388804.127     -582086.875 7   -428169.03645  24388782.720    24388797.0854
  24383474.481    -2270974.802 7  -1747604.05644  24383473.407    24383491.2444
  23163206.123    -9569725.299 8  -7438401.46246  23163209.146    23163219.9294
  23051203.162    -7918753.730 8  -6142752.72846  23051207.032    23051217.1534
 00  4  3  1 19  0.0000000  0  7 17 06 26 09 24 23 10
  20984169.060   -20331756.337 9 -15824532.95647  20984172.090    20984181.5654
  21947241.076   -15424470.072 8 -11999031.21547  21947246.103    21947257.0514
  19990986.341   -25548343.568 9 -19610772.90048  19990989.588    19990997.9544
  24368942.960     -686287.358 7   -509364.00245  24368952.295    24368968.7264
  24401544.269    -2176015.013 7  -1673609.59945  24401545.575    24401562.1974
  23151684.543    -9630261.569 8  -7485572.47346  23151689.575    23151700.2834
  23065354.960    -7844392.375 8  -6084808.86146  23065357.476    23065367.3494
 00  4  3  1 19 30.0000000  0  6 17 06 26 09 23 10
  20971771.948   -20396901.381 9 -15875295.26748  20971775.364    20971784.7934
  21960792.143   -15353266.102 8 -11943547.63347  21960796.567    21960806.5694
  19993822.589   -25533438.992 9 -19599158.90948  19993825.968    19993833.7694
  24349101.810     -790519.277 7   -590583.45245  24349117.804    24349133.8114
  23140187.509    -9690682.223 8  -7532653.40546  23140191.219    23140202.3584
  23079511.913    -7769984.011 8  -6026828.33646  23079516.804    23079526.3854
 00  4  3  1 20  0.0000000  0  6 17 06 26 09 23 10
  20959433.936   -20461741.385 9 -15925819.91347  20959436.800    20959445.4244
  21974408.202   -15281701.660 8 -11887783.16847  21974415.208    21974425.1664
  19996775.192   -25517930.135 9 -19587074.06048  19996777.531    19996784.8584
  24329281.797     -894791.975 7   -671834.64045  24329274.358    24329290.9804
  23128708.811    -9751009.246 8  -7579661.37246  23128712.028    23128723.0444
  23093686.189    -7695538.861 8  -5968819.14146  23093683.176    23093693.5314
 00  4  3  1 20 30.0000000  0  6 17 06 26 09 23 10
  20947152.521   -20526264.514 9 -15976097.61047  20947157.721    20947166.9534
  21988102.103   -15209768.709 8 -11831731.54147  21988103.567    21988113.5274
  19999833.779   -25501842.523 9 -19574538.22848  19999838.752    19999846.2234
  24309410.859     -999117.953 7   -753127.32445  24309420.725    24309436.6924
  23117248.026    -9811248.773 8  -7626601.16146  23117248.374    23117259.4984
  23107855.073    -7621050.268 8  -5910776.10646  23107857.857    23107868.2194
 00  4  3  1 21  0.0000000  0  6 17 06 26 09 23 10
  20934938.864   -20590454.910 9 -16026116.01147  20934942.763    20934951.9374
  22001861.354   -15137463.621 8 -11775389.94747  22001862.517    22001872.9334
  20003004.408   -25485192.052 9 -19561563.80048  20003006.980    20003014.6094
  24289569.776    -1103501.502 7   -834464.88345  24289558.768    24289573.4914
  23105798.967    -9871408.482 8  -7673478.75546  23105799.866    23105811.0014
  23122047.042    -7546506.619 8  -5852690.16146  23122043.088    23122053.4334
 00  4  3  1 21 30.0000000  0  6 17 06 26 09 23 10
  20922791.678   -20654308.275 9 -16075871.71447  20922791.826    20922800.8204
  22015694.832   -15064765.419 8 -11718742.05947  22015696.183    22015707.1524
  20006276.689   -25467991.997 9 -19548161.12748  20006280.038    20006287.8934
  24269693.753    -1207931.898 7   -915838.96445  24269686.469    24269700.1004
  23094361.903    -9931478.295 8  -7720286.29846  23094368.531    23094380.9614
  23136238.292    -7471900.596 8  -5794555.64546  23136240.871    23136250.0834
 00  4  3  1 22  0.0000000  0  6 17 06 26 09 23 10
  20910702.037   -20717823.363 9 -16125363.89347  20910705.360    20910714.0184
  22029603.941   -14991648.065 8 -11661767.54247  22029610.197    22029621.0314
  20009655.960   -25450239.446 9 -19534327.94248  20009658.059    20009665.7384
  24249784.556    -1312402.798 7   -997244.64545  24249803.951    24249820.6654
  23082954.718    -9991441.574 8  -7767010.81646  23082959.347    23082969.6664
  23150446.751    -7397224.949 8  -5736366.83046  23150450.487    23150459.4224
 00  4  3  1 22 30.0000000  0  6 17 06 26 09 23 10
  20898680.492   -20780994.715 9 -16174588.27948  20898684.489    20898692.9614
  22043601.825   -14918114.623 8 -11604468.80847  22043603.303    22043613.8124
  20013140.904   -25431917.188 9 -19520050.81848  20013144.839    20013152.3914
  24229910.088    -1416893.948 7  -1078666.02845  24229920.550    24229936.5034
  23071569.137   -10051281.348 8  -7813639.08946  23071571.451    23071582.4104
  23164671.926    -7322473.074 8  -5678118.64446  23164675.257    23164685.3834
 00  4  3  1 23  0.0000000  0  6 17 06 26 09 23 10
  20886725.043   -20843823.733 9 -16223545.81648  20886727.923    20886737.2244
  22057667.661   -14844183.763 8 -11546860.39847  22057671.652    22057681.8244
  20016738.631   -25413015.820 9 -19505322.44348  20016741.875    20016749.2764
  24210031.102    -1521384.595 7  -1160087.10845  24210037.420    24210052.3544
  23060205.574   -10111002.116 8  -7860174.63746  23060207.299    23060217.9804
  23178914.266    -7247656.689 8  -5619820.19746  23178912.816    23178922.7924
 00  4  3  1 23 30.0000000  0  6 17 06 26 09 23 10
  20874834.053   -20906314.139 9 -16272239.48747  20874836.429    20874845.4744
  22071812.747   -14769847.337 8 -11488935.95747  22071817.097    22071827.7934
  20020444.660   -25393537.670 9 -19490144.62948  20020447.964    20020455.7624
  24190161.694    -1625858.545 7  -1241495.12345  24190155.278    24190171.3924
  23048859.428   -10170598.913 8  -7906613.58646  23048865.599    23048876.8264
  23193156.579    -7172779.229 8  -5561474.15146  23193161.408    23193171.6054
 00  4  3  1 24  0.0000000  0  6 17 06 26 09 23 10
  20863007.580   -20968470.900 9 -16320673.27648  20863008.241    20863017.4994
  22086036.030   -14695132.365 8 -11430716.54647  22086035.584    22086045.8124
  20024264.159   -25373472.074 9 -19474509.06048  20024266.569    20024274.3324
  24170276.474    -1730309.456 7  -1322885.20545  24170278.475    24170293.8904
  23037543.423   -10230073.024 8  -7952956.91146  23037547.462    23037559.7104
  23207420.146    -7097841.875 8  -5503081.43346  23207421.403    23207431.5524
 00  4  3  1 24 30.0000000  0  6 17 06 26 09 23 10
  20851241.009   -21030288.837 9 -16368843.06447  20851244.339    20851253.5844
  22100317.985   -14620057.455 8 -11372216.67647  22100322.272    22100332.0054
  20028192.251   -25352824.332 9 -19458419.87048  20028195.744    20028203.7034
  24150409.737    -1834728.100 8  -1404250.15545  24150409.995    24150423.2864
  23026248.865   -10289427.686 8  -7999207.18146  23026252.491    23026264.3644
  23221693.148    -7022857.142 8  -5444651.79446  23221689.080    23221700.2124
 00  4  3  1 25  0.0000000  0  6 17 06 26 09 23 10
  20839540.732   -21091769.477 9 -16416749.94148  20839544.974    20839554.0144
  22114677.966   -14544612.750 8 -11313428.65847  22114679.059    22114688.7534
  20032230.123   -25331601.815 9 -19441882.81748  20032234.023    20032241.7354
  24130539.440    -1939123.579 7  -1485597.01545  24130543.385    24130556.9264
  23014979.339   -10348662.860 8  -8045364.32746  23014980.442    23014992.4554
  23235964.416    -6947825.837 8  -5386185.89146  23235967.789    23235977.7054
 00  4  3  1 25 30.0000000  0  6 17 06 26 09 23 10
  20827907.294   -21152913.322 9 -16464394.38548  20827909.439    20827918.8714
  22129101.351   -14468795.343 8 -11254350.22746  22129105.957    22129115.5794
  20036381.830   -25309792.426 9 -19424888.44048  20036384.295    20036391.7004
  24110678.649    -2043501.190 8  -1566930.02345  24110681.173    24110695.9794
  23003732.445   -10407774.003 8  -8091424.83346  23003732.473    23003743.5464
  23250250.412    -6872738.581 8  -5327676.37746  23250256.999    23250267.2994
 00  4  3  1 26  0.0000000  0  6 17 06 26 09 23 10
  20816335.273   -21213721.984 9 -16511777.71048  20816337.997    20816347.1194
  22143594.244   -14392622.387 8 -11194994.73946  22143600.875    22143611.3684
  20040645.451   -25287390.600 9 -19407432.44048  20040647.472    20040655.2074
  24090815.589    -2147861.800 8  -1648249.69145  24090820.924    24090836.4444
  22992502.419   -10466772.564 8  -8137397.62846  22992505.040    22992515.9334
  23264553.674    -6797600.469 8  -5269127.25346  23264555.873    23264566.5164
 00  4  3  1 26 30.0000000  0  6 17 06 26 09 23 10
  20804827.054   -21274197.134 9 -16558901.17748  20804830.177    20804839.1044
  22158165.603   -14316086.929 8 -11135356.77646  22158165.320    22158176.2234
  20045015.590   -25264407.387 9 -19389523.40548  20045020.654    20045028.5914
  24070966.481    -2252208.447 8  -1729558.54645  24070965.174    24070978.1734
  22981296.317   -10525662.358 8  -8183285.63946  22981298.382    22981309.5044
  23278859.134    -6722411.033 8  -5210538.13246  23278862.748    23278874.6944
 00  4  3  1 27  0.0000000  0  6 17 06 26 09 23 10
  20793382.635   -21334351.722 9 -16605774.71448  20793383.503    20793391.9024
  22172791.858   -14239192.559 8 -11075439.15646  22172798.091    22172808.3874
  20049500.773   -25240852.573 9 -19371168.96148  20049502.763    20049510.4004
  24051104.189    -2356541.129 8  -1810856.53345  24051111.323    24051124.3394
  22970103.659   -10584458.955 8  -8229101.03746  22970108.481    22970121.8174
  23293186.880    -6647152.059 8  -5151894.83246  23293184.543    23293196.4364
 00  4  3  1 27 30.0000000  0  6 17 06 26 09 23 10
  20781994.244   -21394195.503 9 -16652406.14048  20781995.528    20782004.4474
  22187494.948   -14161950.529 8 -11015250.59847  22187496.071    22187508.4754
  20054088.547   -25216738.429 9 -19352378.68748  20054091.695    20054099.6544
  24031255.584    -2460850.393 8  -1892136.23545  24031260.580    24031275.0184
  22958932.751   -10643168.050 8  -8274848.23646  22958937.324    22958949.1144
  23307515.832    -6571823.065 8  -5093196.98046  23307519.462    23307530.5994
 00  4  3  1 28  0.0000000  0  6 17 06 26 09 23 10
  20770664.285   -21453721.708 9 -16698790.09148  20770667.728    20770676.8074
  22202258.437   -14084363.959 8 -10954793.58947  22202260.790    22202272.2134
  20058778.567   -25192082.804 9 -19333166.49048  20058783.540    20058791.4254
  24011419.239    -2565132.425 8  -1973394.73145  24011416.324    24011430.9694
  22947783.715   -10701780.111 8  -8320519.79346  22947784.278    22947795.4404
  23321867.472    -6496427.542 8  -5034447.27446  23321866.927    23321877.9124
 00  4  3  1 28 30.0000000  0  6 17 06 26 09 23 10
  20759399.642   -21512926.059 9 -16744923.36448  20759401.784    20759410.3514
  22217089.777   -14006429.941 8 -10894065.83946  22217091.195    22217102.8814
  20063575.654   -25166890.008 9 -19313535.71048  20063577.568    20063585.3844
  23991570.516    -2669392.060 8  -2054635.74645  23991576.079    23991590.8794
  22936650.180   -10760273.777 8  -8366099.12246  22936652.903    22936663.8434
  23336229.951    -6420960.998 8  -4975642.23646  23336227.462    23336238.4234
 00  4  3  1 29  0.0000000  0  6 17 06 26 09 23 10
  20748195.340   -21571790.473 9 -16790791.84348  20748200.080    20748208.7404
  22231985.051   -13928146.656 8 -10833065.95046  22231987.762    22231998.4194
  20068470.119   -25141164.528 9 -19293489.86548  20068473.094    20068480.5474
  23971747.718    -2773616.598 8  -2135849.43945  23971743.121    23971757.4864
  22925546.075   -10818638.150 8  -8411577.69346  22925547.065    22925557.7064
  23350597.748    -6345425.876 8  -4916783.74546  23350602.480    23350612.7394
 00  4  3  1 29 30.0000000  0  6 17 06 26 09 23 10
  20737063.563   -21630288.903 9 -16836375.11348  20737068.491    20737076.6394
  22246944.708   -13849522.656 8 -10771800.54246  22246949.699    22246960.1224
  20073470.944   -25114886.451 9 -19273013.42148  20073473.719    20073481.5484
  23951913.436    -2877807.604 8  -2217036.96245  23951915.538    23951929.8574
  22914465.824   -10876852.446 8  -8456939.33546  22914468.945    22914479.5554
  23364984.790    -6269838.974 8  -4857884.90646  23364986.524    23364996.8514
 00  4  3  1 30  0.0000000  0  6 17 06 26 09 23 10
  20726008.247   -21688397.841 9 -16881654.76348  20726010.733    20726019.0694
  22261972.435   -13770555.018 8 -10710267.37946  22261976.912    22261987.5014
  20078579.282   -25088041.005 9 -19252094.90048  20078582.200    20078590.1274
  23932079.977    -2981977.954 8  -2298208.42945  23932093.552    23932106.2654
  22903415.777   -10934916.505 8  -8502183.91046  22903419.040    22903430.1894
  23379373.818    -6194209.495 8  -4798952.89546  23379377.706    23379387.2484
 00  4  3  1 30 30.0000000  0  6 17 06 26 09 23 10
  20715023.291   -21746115.304 9 -16926629.26048  20715027.386    20715036.1874
  22277065.388   -13691241.254 8 -10648464.50346  22277069.939    22277080.8044
  20083795.678   -25060632.996 9 -19230738.03348  20083798.007    20083805.2294
  23912275.511    -3086130.549 8  -2379366.06245  23912273.768    23912286.9544
  22892393.127   -10992846.852 8  -8547324.30046  22892395.122    22892406.4674
  23393769.710    -6118539.707 8  -4739989.48446  23393776.672    23393787.9174
 00  4  3  1 31  0.0000000  0  6 17 06 26 09 23 10
  20704118.803   -21803437.402 9 -16971295.75648  20704119.882    20704127.7604
  22292226.211   -13611582.183 8 -10586392.56546  22292228.984    22292239.8794
  20089115.907   -25032658.932 9 -19208940.02348  20089120.935    20089128.3224
  23892455.940    -3190264.117 8  -2460508.86745  23892456.947    23892470.9834
  22881390.198   -11050669.937 8  -8592381.06946  22881391.338    22881402.4234
  23408183.227    -6042823.727 8  -4680990.06446  23408183.708    23408196.4804
 00  4  3  1 31 30.0000000  0  6 17 06 26 09 23 10
  20693282.935   -21860363.286 9 -17015653.64048  20693286.595    20693295.5644
  22307451.038   -13531580.092 8 -10524053.33846  22307452.512    22307463.7544
  20094550.485   -25004115.202 9 -19186698.08348  20094552.603    20094560.0384
  23872630.643    -3294387.712 8  -2541643.89645  23872642.987    23872656.3994
  22870400.809   -11108402.183 8  -8637367.05746  22870405.788    22870416.4084
  23422597.876    -5967062.793 8  -4621955.63946  23422601.329    23422613.4404
 00  4  3  1 32  0.0000000  0  6 17 06 26 09 23 10
  20682526.656   -21916893.797 9 -17059703.36448  20682529.292    20682537.7324
  22322741.104   -13451225.349 8 -10461439.33346  22322743.496    22322754.4114
  20100083.777   -24975033.830 9 -19164037.21348  20100086.478    20100094.1194
  23852830.306    -3398486.347 8  -2622759.44745  23852832.640    23852846.5754
  22859430.018   -11166059.123 8  -8682294.39246  22859435.173    22859443.9954
  23437026.364    -5891242.669 8  -4562875.10946  23437030.677    23437039.8494
 00  4  3  1 32 30.0000000  0  6 17 06 26 09 23 10
  20671843.245   -21973035.175 9 -17103449.76048  20671845.630    20671854.1604
  22338093.590   -13370535.011 8 -10398563.80246  22338098.243    22338109.4424
  20105717.077   -24945423.248 9 -19140964.06448  20105721.331    20105728.7534
  23833031.969    -3502536.427 8  -2703837.17045  23833033.049    23833046.4244
  22848473.942   -11223648.270 8  -8727168.88646  22848475.383    22848485.6604
  23451475.660    -5815348.923 8  -4503737.17546  23451472.776    23451482.8944
 00  4  3  1 33  0.0000000  0  6 17 06 26 09 23 10
  20661234.199   -22028776.506 9 -17146884.46648  20661238.063    20661246.9964
  22353511.345   -13289515.545 8 -10335431.80246  22353515.903    22353526.2114
  20111456.998   -24915271.091 9 -19117468.89448  20111458.807    20111466.1904
  23813251.246    -3606527.073 8  -2784868.57045  23813243.630    23813257.5434
  22837526.390   -11281160.456 8  -8771983.39746  22837529.686    22837542.1874
  23465923.605    -5739386.634 8  -4444545.84846  23465927.524    23465939.1174
 00  4  3  1 33 30.0000000  0  6 17 06 26 09 23 10
  20650700.930   -22084127.530 9 -17190015.14648  20650705.123    20650713.9934
  22368994.450   -13208175.653 8 -10272050.13346  22368994.601    22369005.4634
  20117294.941   -24884581.806 9 -19093555.16948  20117298.932    20117306.3614
  23793464.689    -3710450.821 7  -2865847.87345  23793467.978    23793480.9904
  22826602.017   -11338568.287 8  -8816716.59346  22826605.494    22826617.0364
  23480390.611    -5663367.048 8  -4385309.87146  23480393.385    23480404.1794
 00  4  3  1 34  0.0000000  0  6 17 06 26 09 23 10
  20640241.147   -22139108.725 9 -17232857.47948  20640242.302    20640251.3354
  22384528.615   -13126519.721 8 -10208422.19746  22384533.325    22384544.2814
  20123237.228   -24853357.714 9 -19069224.68148  20123240.585    20123248.0204
  23773704.308    -3814296.807 8  -2946766.56445  23773706.139    23773720.0064
  22815701.268   -11395865.941 8  -8861363.92546  22815702.375    22815713.8004
  23494868.130    -5587288.951 8  -4326028.32646  23494870.569    23494881.2114
 00  4  3  1 34 30.0000000  0  6 17 06 26 09 23 10
  20629846.002   -22193732.048 9 -17275420.99548  20629847.845    20629857.1204
  22400122.856   -13044557.007 8 -10144555.19546  22400129.594    22400141.3594
  20129283.695   -24821575.240 9 -19044459.11348  20129288.207    20129296.1844
  23753955.594    -3918068.720 8  -3027627.54445  23753958.241    23753972.7554
  22804813.679   -11453043.419 8  -8905917.68346  22804821.302    22804832.2904
  23509349.920    -5511169.530 8  -4266714.55246  23509355.961    23509366.2514
 00  4  3  1 35  0.0000000  0  6 17 06 26 09 23 10
  20619517.551   -22248001.220 9 -17317708.74048  20619520.996    20619529.8004
  22415783.090   -12962276.524 8 -10080440.59546  22415787.807    22415798.4094
  20135438.032   -24789240.637 9 -19019263.34548  20135441.572    20135449.0964
  23734225.532    -4021772.451 8  -3108435.42745  23734224.696    23734238.5724
  22793964.217   -11510080.093 8  -8950361.71346  22793967.799    22793978.8394
  23523844.765    -5435019.492 8  -4207376.94646  23523846.869    23523858.2184
 00  4  3  1 35 30.0000000  0  6 17 06 26 09 23 10
  20609256.181   -22301925.264 9 -17359727.41848  20609259.449    20609268.3624
  22431508.305   -12879671.744 8 -10016073.29846  22431507.468    22431517.5524
  20141695.227   -24756365.201 9 -18993646.13048  20141697.680    20141705.3914
  23714504.321    -4125404.088 8  -3189187.12145  23714504.593    23714517.6224
  22783138.389   -11566977.954 8  -8994697.56347  22783140.499    22783151.7574
  23538346.154    -5358824.889 8  -4148004.64045  23538345.788    23538357.0804
 00  4  3  1 36  0.0000000  0  6 17 06 26 09 23 10
  20599065.572   -22355479.859 9 -17401458.16848  20599068.202    20599077.1294
  22447285.768   -12796740.397 8  -9951451.55346  22447288.964    22447298.1784
  20148054.552   -24722951.808 9 -18967609.69648  20148056.386    20148063.8094
  23694795.076    -4228963.230 8  -3269882.32646  23694797.417    23694811.1754
  22772335.944   -11623756.632 8  -9038940.56147  22772336.278    22772346.4934
  23552853.267    -5282580.299 8  -4088593.34846  23552856.260    23552866.0584
 00  4  3  1 36 30.0000000  0  6 17 06 26 09 23 10
  20588947.810   -22408646.649 9 -17442886.71848  20588950.663    20588959.8654
  22463131.386   -12713492.026 8  -9886582.74046  22463130.983    22463140.2474
  20154513.482   -24688992.392 9 -18941147.81248  20154518.494    20154526.0584
  23675106.483    -4332456.035 8  -3350525.81546  23675103.717    23675116.6364
  22761555.789   -11680403.052 8  -9083080.51347  22761556.376    22761566.8514
  23567371.298    -5206278.555 8  -4029137.52745  23567374.553    23567386.0174
 00  4  3  1 37  0.0000000  0  6 17 06 26 09 23 10
  20578906.160   -22461427.755 9 -17484014.86148  20578906.984    20578915.7934
  22479034.891   -12629921.554 8  -9821462.96546  22479033.100    22479044.3944
  20161079.680   -24654502.167 9 -18914272.30648  20161081.540    20161089.4134
  23655420.522    -4435880.346 8  -3431115.94746  23655421.567    23655435.2634
  22750798.986   -11736918.375 8  -9127118.27647  22750801.410    22750812.3704
  23581904.871    -5129903.884 8  -3969624.88045  23581908.626    23581919.7104
 00  4  3  1 37 30.0000000  0  6 17 06 26 09 23 10
  20568934.253   -22513818.392 9 -17524838.76348  20568937.763    20568946.0094
  22494993.681   -12546045.136 8  -9756104.80646  22494994.999    22495005.4044
  20167741.912   -24619480.179 9 -18886982.43148  20167746.080    20167753.6014
  23635750.282    -4539230.828 8  -3511648.54146  23635754.918    23635767.9054
  22740066.061   -11793323.219 8  -9171069.99647  22740068.115    22740078.5994
  23596465.446    -5053446.654 8  -3910047.91345  23596458.486    23596468.5704
 00  4  3  1 38  0.0000000  0  6 17 06 26 09 23 10
  20559039.651   -22565815.597 9 -17565355.96448  20559042.915    20559051.2094
  22511006.194   -12461884.069 8  -9690524.83846  22511010.305    22511021.3284
  20174507.796   -24583929.311 9 -18859280.47748  20174510.913    20174518.4124
  23616104.531    -4642506.570 8  -3592122.90246  23616102.151    23616115.1964
  22729354.189   -11849612.757 8  -9214931.85847  22729357.007    22729366.8614
  23611020.227    -4976915.839 8  -3850413.60545  23611021.358    23611033.3094
 00  4  3  1 38 30.0000000  0  6 17 06 26 09 23 10
  20549218.692   -22617434.241 9 -17605578.21848  20549220.374    20549228.5394
  22527072.408   -12377442.780 8  -9624726.49946  22527078.977    22527089.0434
  20181371.273   -24547860.288 9 -18831174.76748  20181374.641    20181382.2364
  23596460.843    -4745702.265 8  -3672534.87246  23596464.504    23596477.4924
  22718664.245   -11905788.865 8  -9258705.35347  22718667.052    22718676.7704
  23625602.423    -4900318.718 8  -3790727.65845  23625598.311    23625608.4084
 00  4  3  1 39  0.0000000  0  6 17 06 26 09 23 10
  20539465.945   -22668668.214 9 -17645500.80148  20539470.654    20539479.0954
  22543196.331   -12292719.587 8  -9558708.47546  22543201.009    22543212.1004
  20188329.470   -24511297.150 9 -18802684.04348  20188332.389    20188340.1094
  23576839.327    -4848812.735 8  -3752880.48046  23576842.908    23576855.5684
  22707993.491   -11961869.522 8  -9302404.44847  22707995.197    22708004.1014
  23640184.375    -4823673.840 8  -3731004.45545  23640183.484    23640193.5324
 00  4  3  1 39 30.0000000  0  6 17 06 26 09 23 10
  20529797.188   -22719489.615 9 -17685102.01248  20529799.703    20529808.1684
  22559375.805   -12207726.073 8  -9492479.83846  22559374.822    22559384.6914
  20195380.954   -24474240.050 9 -18773808.39848  20195384.286    20195391.7684
  23557246.819    -4951830.864 8  -3833154.14446  23557239.414    23557251.6674
  22697338.104   -12017859.691 8  -9346033.04947  22697339.732    22697350.7414
  23654766.812    -4746993.991 8  -3671253.98446  23654775.146    23654786.0464
 00  4  3  1 40  0.0000000  0  6 17 06 26 09 23 10
  20520206.465   -22769884.476 9 -17724370.67648  20520209.556    20520218.2084
  22575594.127   -12122448.886 8  -9426030.15246  22575602.641    22575613.9174
  20202527.692   -24436682.354 9 -18744542.67248  20202531.146    20202538.8884
  23537654.620    -5054749.622 8  -3913350.35746  23537654.374    23537667.3714
  22686700.294   -12073759.406 8  -9389591.15047  22686701.928    22686713.1784
  23669363.197    -4670292.355 8  -3611486.57945  23669368.936    23669381.9564
 00  4  3  1 40 30.0000000  0  6 17 06 26 09 23 10
  20510701.736   -22819841.766 9 -17763298.41548  20510703.350    20510711.7184
  22591881.002   -12036888.280 8  -9359359.61846  22591884.313    22591894.8454
  20209770.939   -24398619.992 9 -18714883.69848  20209774.376    20209782.1224
  23518084.873    -5157556.123 8  -3993459.11246  23518090.338    23518103.1134
  22676076.880   -12129580.224 8  -9433087.78647  22676079.970    22676089.8124
  23683966.854    -4593572.429 8  -3551704.95045  23683970.363    23683979.8884
 00  4  3  1 41  0.0000000  0  6 17 06 26 09 23 10
  20501278.050   -22869356.265 9 -17801881.10148  20501280.881    20501288.9304
  22608215.783   -11951051.200 8  -9292473.66046  22608218.181    22608229.9474
  20217112.450   -24360043.303 9 -18684823.93048  20217115.357    20217122.8134
  23498546.218    -5260240.850 8  -4073472.97046  23498550.145    23498562.6844
  22665467.685   -12185310.977 8  -9476514.25847  22665474.641    22665484.6454
  23698575.910    -4516821.695 8  -3491899.26245  23698575.336    23698585.6194
 00  4  3  1 41 30.0000000  0  6 17 06 26 09 23 10
  20491939.453   -22918434.786 9 -17840124.06248  20491941.478    20491950.0544
  22624600.240   -11864946.859 8  -9225379.46746  22624603.005    22624614.4774
  20224555.414   -24320932.061 9 -18654347.65948  20224557.996    20224565.6734
  23479030.383    -5362795.255 8  -4153385.27746  23479033.994    23479046.2784
  22654885.409   -12240940.136 8  -9519861.58747  22654889.243    22654898.9294
  23713186.792    -4440022.507 8  -3432055.80045  23713188.854    23713200.3194
 00  4  3  1 42  0.0000000  0  6 17 06 26 09 23 10
  20482678.883   -22967101.223 9 -17878045.87848  20482681.093    20482688.7554
  22641035.158   -11778589.920 8  -9158088.40746  22641037.126    22641047.8964
  20232099.018   -24281287.169 9 -18623455.60648  20232102.352    20232110.0254
  23459539.406    -5465231.427 8  -4233205.46946  23459541.610    23459552.8614
  22644322.756   -12296455.211 8  -9563119.97747  22644325.321    22644334.1904
  23727816.010    -4363166.772 8  -3372168.33345  23727813.578    23727825.6084
 00  4  3  1 42 30.0000000  0  6 17 06 26 09 23 10
  20473491.982   -23015376.990 9 -17915663.21848  20473493.489    20473502.1274
  22657509.323   -11692005.720 8  -9090620.27646  22657513.354    22657524.6564
  20239740.984   -24241125.512 9 -18592160.80548  20239744.542    20239752.2124
  23440060.907    -5567557.823 8  -4312940.11645  23440069.914    23440080.7044
  22633784.913   -12351837.262 8  -9606274.75447  22633785.174    22633795.1274
  23742449.690    -4286243.063 8  -3312227.88645  23742452.599    23742464.2374
 00  4  3  1 43  0.0000000  0  6 17 06 26 09 23 10
  20464377.210   -23063263.565 9 -17952977.38048  20464380.877    20464389.4734
  22674033.515   -11605181.661 8  -9022965.24746  22674035.244    22674045.7854
  20247482.000   -24200448.541 9 -18560464.47948  20247485.184    20247492.9054
  23420611.629    -5669782.452 8  -4392595.45745  23420616.497    23420627.5894
  22623273.250   -12407079.276 8  -9649320.37947  22623273.752    22623283.1234
  23757106.119    -4209240.292 8  -3252225.80445  23757107.113    23757118.1834
 00  4  3  1 43 30.0000000  0  6 17 06 26 09 23 10
  20455341.284   -23110754.321 9 -17989983.04648  20455343.828    20455352.0024
  22690599.686   -11518115.877 8  -8955121.88346  22690603.705    22690614.9464
  20255319.847   -24159257.556 9 -18528367.61648  20255323.794    20255331.3134
  23401177.769    -5771911.588 8  -4472176.38745  23401181.187    23401193.4344
  22612784.005   -12462192.534 8  -9692265.67747  22612785.654    22612795.4964
  23771772.046    -4132166.563 8  -3192168.43145  23771772.302    23771785.0004
 00  4  3  1 44  0.0000000  0  6 17 06 26 09 23 10
  20446379.803   -23157842.365 9 -18026675.04448  20446383.355    20446391.5984
  22707221.763   -11430795.044 8  -8887079.76446  22707220.361    22707232.0274
  20263252.633   -24117570.894 9 -18495884.49548  20263256.385    20263264.1924
  23381757.646    -5873936.144 8  -4551675.89546  23381766.333    23381778.6214
  22602318.098   -12517192.313 8  -9735122.52347  22602319.796    22602329.2704
  23786449.534    -4055022.758 8  -3132056.50745  23786451.161    23786463.4584
 00  4  3  1 44 30.0000000  0  6 17 06 26 09 23 10
  20437499.779   -23204511.286 9 -18063040.42948  20437502.817    20437511.2024
  22723884.291   -11343195.830 8  -8818820.74546  22723889.797    22723901.6644
  20271279.758   -24075384.858 9 -18463012.25148  20271283.883    20271291.5444
  23362371.812    -5975834.297 8  -4631076.86446  23362376.466    23362388.3624
  22591868.787   -12572091.919 8  -9777901.33147  22591872.372    22591882.0594
  23801134.398    -3977819.077 8  -3071897.89445  23801142.765    23801154.5604
 00  4  3  1 45  0.0000000  0  6 17 06 26 09 23 10
  20428702.435   -23250737.470 9 -18099060.94848  20428705.935    20428715.3474
  22740613.366   -11255296.559 8  -8750327.89846  22740616.956    22740629.2384
  20279403.936   -24032694.777 9 -18429747.23848  20279407.791    20279415.6284
  23343013.754    -6077597.728 8  -4710372.83246  23343010.668    23343022.0984
  22581436.182   -12626902.542 8  -9820610.87247  22581441.599    22581451.4434
  23815851.537    -3900567.316 8  -3011701.79145  23815845.809    23815855.8824
 00  4  3  1 45 30.0000000  0  6 17 06 26 09 23 10
  20419993.009   -23296515.046 9 -18134731.85048  20419995.137    20420003.1534
  22757390.784   -11167112.678 8  -8681613.29546  22757397.028    22757409.2844
  20287622.780   -23989513.586 9 -18396099.56748  20287624.834    20287632.4334
  23323672.547    -6179223.245 8  -4789561.38746  23323671.935    23323683.7864
  22571026.871   -12681623.398 8  -9863250.45647  22571029.188    22571038.5794
  23830551.047    -3823277.891 8  -2951476.37145  23830553.335    23830564.8894
 00  4  3  1 46  0.0000000  0  6 17 06 26 09 23 10
  20411366.061   -23341838.266 9 -18170048.63948  20411370.392    20411378.9424
  22774234.073   -11078654.431 8  -8612684.87846  22774229.671    22774242.5954
  20295928.021   -23945845.938 9 -18362072.84348  20295934.592    20295942.2014
  23304354.492    -6280694.487 8  -4868629.69446  23304362.748    23304374.6424
  22560635.682   -12736239.025 8  -9905807.99847  22560635.830    22560646.4664
  23845263.088    -3745959.632 8  -2891228.49345  23845265.365    23845277.9884
 00  4  3  1 46 30.0000000  0  6 17 06 26 09 23 10
  20402828.993   -23386700.041 9 -18205005.79548  20402833.587    20402841.6794
  22791109.546   -10989935.996 8  -8543553.75146  22791113.439    22791124.6354
  20304333.549   -23901687.906 9 -18327663.99448  20304337.461    20304345.2124
  23285079.691    -6382010.953 8  -4947577.42246  23285082.210    23285094.4924
  22550262.992   -12790733.056 8  -9948270.82247  22550265.414    22550276.2794
  23859977.720    -3668627.237 8  -2830969.62145  23859980.841    23859993.9784
 00  4  3  1 47  0.0000000  0  6 17 06 26 09 23 10
  20394381.690   -23431094.921 9 -18239599.30248  20394385.373    20394393.6244
  22808039.061   -10900977.449 8  -8474235.51046  22808042.064    22808052.9034
  20312830.176   -23857048.543 9 -18292880.08748  20312831.703    20312839.6574
  23265828.434    -6483176.765 8  -5026407.75846  23265830.938    23265843.1664
  22539916.136   -12845110.681 8  -9990642.96647  22539918.298    22539929.0814
  23874699.630    -3591275.354 8  -2770695.50545  23874701.707    23874711.2004
 00  4  3  1 47 30.0000000  0  6 17 06 26 09 23 10
  20386020.913   -23475030.892 9 -18273835.03448  20386024.395    20386032.5804
  22825011.463   -10811800.367 8  -8404746.95646  22825011.546    22825022.9574
  20321413.603   -23811931.723 9 -18257724.13548  20321417.191    20321424.9924
  23246604.643    -6584180.971 8  -5105112.15446  23246611.079    23246622.8314
  22529590.152   -12899372.684 8 -10032925.00547  22529592.422    22529602.6264
  23889429.174    -3513891.166 8  -2710396.20845  23889428.224    23889438.0364
 00  4  3  1 48  0.0000000  0  6 17 06 26 09 23 10
  20377747.451   -23518511.540 9 -18307715.80848  20377750.597    20377758.9024
  22842021.695   -10722397.418 8  -8335082.42946  22842023.562    22842036.7964
  20330092.229   -23766331.864 9 -18222191.77548  20330094.791    20330102.6284
  23227417.439    -6685021.957 8  -5183689.37246  23227420.637    23227433.1234
  22519284.673   -12953521.843 8 -10075119.05547  22519288.027    22519298.4664
  23904152.738    -3436475.006 8  -2650072.01645  23904159.592    23904171.9714
 00  4  3  1 48 30.0000000  0  6 17 06 26 09 23 10
  20369558.972   -23561541.222 9 -18341245.38348  20369562.397    20369570.5224
  22859082.358   -10632762.682 8  -8265237.30146  22859081.948    22859093.1614
  20338860.861   -23720252.675 9 -18186285.92048  20338863.942    20338871.0464
  23208258.587    -6785712.576 8  -5262149.43646  23208260.671    23208273.0264
  22508995.232   -13007575.490 8 -10117238.71647  22509002.184    22509012.0494
  23918898.850    -3359012.141 8  -2589711.50245  23918899.683    23918912.0724
 00  4  3  1 49  0.0000000  0  6 17 06 26 09 23 10
  20361456.669   -23604125.712 9 -18374428.26448  20361458.714    20361467.0044
  22876174.742   -10542906.636 8  -8195219.71846  22876180.607    22876191.2104
  20347718.177   -23673699.650 9 -18150010.86348  20347722.320    20347730.0414
  23189127.357    -6886257.099 8  -5340495.66246  23189127.485    23189139.2064
  22498730.068   -13061543.978 8 -10159291.99647  22498732.374    22498742.2624
  23933655.527    -3281490.947 8  -2529305.52245  23933652.525    23933663.4664
 00  4  3  1 49 30.0000000  0  6 17 06 26 09 23 10
  20353435.434   -23646274.177 9 -18407271.11848  20353438.061    20353445.8884
  22893323.463   -10452828.199 8  -8125028.85146  22893322.039    22893332.2414
  20356669.225   -23626677.614 9 -18113370.33048  20356670.237    20356677.8034
  23170022.072    -6986648.762 8  -5418722.80046  23170023.208    23170035.6754
  22488478.310   -13115414.596 8 -10201269.04747  22488481.012    22488490.7224
  23948410.585    -3203912.041 8  -2468854.45945  23948414.003    23948425.3744
 00  4  3  1 50  0.0000000  0  6 17 06 26 09 23 10
  20345498.853   -23687983.895 9 -18439772.23648  20345500.903    20345509.1634
  22910499.744   -10362522.366 8  -8054660.76946  22910506.178    22910518.6704
  20365704.047   -23579183.541 9 -18076361.96048  20365708.026    20365715.8644
  23150939.557    -7086892.815 8  -5496834.90146  23150947.423    23150958.8034
  22478246.948   -13169190.724 8 -10243172.46847  22478247.490    22478257.2964
  23963186.167    -3126282.866 8  -2408364.28845  23963186.450    23963198.6444
 00  4  3  1 50 30.0000000  0  6 17 06 26 09 23 10
  20337643.478   -23729257.875 9 -18471933.76348  20337646.384    20337654.9394
  22927726.292   -10272007.954 8  -7984130.18046  22927730.023    22927742.8944
  20374832.262   -23531222.411 9 -18038989.66248  20374834.766    20374842.4904
  23131894.749    -7186980.501 8  -5574825.11846  23131900.718    23131913.1394
  22468032.154   -13222868.829 8 -10284999.46847  22468033.413    22468042.7994
  23977974.419    -3048593.073 8  -2347826.93645  23977970.713    23977982.9324
 00  4  3  1 51  0.0000000  0  6 17 06 26 09 23 10
  20329873.252   -23770100.477 9 -18503759.20948  20329874.758    20329883.1134
  22944991.258   -10181285.921 8  -7913437.80446  22944994.712    22945006.4244
  20384046.234   -23482800.792 9 -18001258.53448  20384048.991    20384056.8924
  23112882.140    -7286906.281 8  -5652689.21546  23112885.363    23112897.4864
  22457838.381   -13276436.588 9 -10326740.49247  22457840.319    22457848.8814
  23992771.442    -2970847.882 8  -2287246.44545  23992765.816    23992776.1544
 00  4  3  1 51 30.0000000  0  6 17 06 26 09 23 10
  20322181.680   -23810507.955 9 -18535245.54048  20322185.268    20322193.3254
  22962294.544   -10090335.179 8  -7842567.23446  22962301.790    22962313.7854
  20393347.453   -23433917.306 9 -17963167.49648  20393351.104    20393359.1814
  23093893.608    -7386666.101 8  -5730423.97946  23093902.032    23093913.8904
  22447665.676   -13329887.250 8 -10368390.31847  22447668.532    22447676.3184
  24007567.599    -2893044.555 8  -2226620.55645  24007571.625    24007583.1134
 00  4  3  1 52  0.0000000  0  6 17 06 26 09 23 10
  20314578.859   -23850468.766 9 -18566383.72348  20314581.176    20314588.9104
  22979655.556    -9999156.209 8  -7771518.79346  22979653.526    22979664.5514
  20402737.799   -23384568.060 9 -17924713.53548  20402742.011    20402749.9894
  23074943.018    -7486264.569 8  -5808033.03046  23074949.081    23074960.4964
  22437512.847   -13383221.155 8 -10409949.12047  22437518.497    22437527.3674
  24022379.699    -2815174.825 7  -2165942.92645  24022388.681    24022401.1424
 00  4  3  1 52 30.0000000  0  6 17 06 26 09 23 10
  20307059.775   -23889981.501 9 -18597172.81948  20307061.922    20307069.8784
  22997050.073    -9907755.009 8  -7700297.22046  22997046.462    22997057.6334
  20412217.704   -23334760.083 9 -17885902.12348  20412220.217    20412228.0374
  23056030.123    -7585694.493 8  -5885510.73846  23056028.081    23056039.6854
  22427390.353   -13436437.462 9 -10451416.29147  22427392.914    22427401.4744
  24037214.858    -2737234.762 7  -2105210.56745  24037219.196    24037233.5144
 00  4  3  1 53  0.0000000  0  6 17 06 26 09 23 10
  20299628.400   -23929030.200 9 -18627600.33948  20299630.956    20299639.2344
  23014479.249    -9816130.560 8  -7628901.66446  23014482.444    23014493.2194
  20421781.801   -23284496.492 9 -17846735.70748  20421785.284    20421793.1604
  23037140.510    -7684948.213 8  -5962851.17046  23037139.736    23037152.3344
  22417285.678   -13489537.418 9 -10492792.82047  22417288.042    22417296.6654
  24052063.423    -2659234.117 8  -2044430.98545  24052064.496    24052076.2594
 00  4  3  1 53 30.0000000  0  6 17 06 26 09 23 10
  20292288.788   -23967596.798 9 -18657652.19648  20292292.308    20292300.3364
  23031953.411    -9724295.028 8  -7557341.63346  23031958.147    23031969.8604
  20431435.251   -23233769.621 9 -17807208.29748  20431438.289    20431446.1914
  23018284.275    -7784015.848 8  -6040046.60446  23018288.543    23018299.7054
  22407202.245   -13542524.341 8 -10534081.32547  22407204.499    22407212.9194
  24066916.153    -2581177.865 8  -1983608.06345  24066918.523    24066929.7044
 00  4  3  1 54  0.0000000  0  6 17 06 26 09 23 10
  20285042.827   -24005670.690 9 -18687320.07048  20285046.821    20285055.0504
  23049462.043    -9632277.722 8  -7485639.96346  23049467.771    23049480.8894
  20441178.189   -23182575.968 9 -17767317.16148  20441180.313    20441188.3104
  22999462.268    -7882887.711 8  -6117089.46146  22999473.981    22999485.4934
  22397141.380   -13595404.485 8 -10575286.52247  22397141.344    22397150.6234
  24081776.179    -2503076.202 8  -1922749.72845  24081780.119    24081791.3254
 00  4  3  1 54 30.0000000  0  6 17 06 26 09 23 10
  20277894.004   -24043245.661 9 -18716599.21048  20277896.445    20277904.7314
  23067010.529    -9540082.618 8  -7413799.75546  23067012.682    23067024.2374
  20451006.216   -23130920.484 9 -17727066.13448  20451009.760    20451017.5954
  22980693.367    -7981545.470 8  -6193965.49246  22980698.830    22980710.4594
  22387096.143   -13648181.040 8 -10616411.04647  22387097.582    22387107.5824
  24096650.586    -2424944.376 8  -1861867.94445  24096647.027    24096659.3724
 00  4  3  1 55  0.0000000  0  6 17 06 26 09 23 10
  20270841.844   -24080304.943 9 -18745476.51448  20270844.413    20270852.5194
  23084588.060    -9447703.164 8  -7341815.91046  23084592.126    23084604.1604
  20460923.809   -23078804.528 9 -17686456.31548  20460927.320    20460934.8454
  22961966.213    -8079987.663 8  -6270673.62846  22961965.654    22961977.8864
  22377072.700   -13700843.788 8 -10657446.86747  22377076.500    22377086.2284
  24111517.363    -2346791.123 8  -1800969.41945  24111519.931    24111532.3844
 00  4  3  1 55 30.0000000  0  6 17 06 26 09 23 10
  20263884.938   -24116860.628 9 -18773961.43448  20263887.914    20263896.1584
  23102202.721    -9355132.304 8  -7269682.91746  23102208.099    23102218.3994
  20470926.003   -23026234.568 9 -17645492.72548  20470930.721    20470938.7624
  22943275.080    -8178218.872 8  -6347217.28346  22943273.330    22943285.9604
  22367074.016   -13753392.546 8 -10698393.85747  22367077.210    22367086.7674
  24126384.525    -2268610.294 8  -1740049.43045  24126397.821    24126411.1474
 00  4  3  1 56  0.0000000  0  6 17 06 26 09 23 10
  20257021.842   -24152930.106 9 -18802067.48048  20257024.285    20257032.6584
  23119858.083    -9262374.802 8  -7197404.48446  23119859.435    23119869.7374
  20481013.674   -22973229.790 9 -17604190.31448  20481016.942    20481024.9764
  22924615.768    -8276227.327 8  -6423587.33846  22924622.348    22924634.2714
  22357093.881   -13805831.773 8 -10739255.62547  22357098.325    22357107.1614
  24141283.242    -2190392.019 7  -1679100.29945  24141281.541    24141295.7894
 00  4  3  1 56 30.0000000  0  6 17 06 26 09 23 10
  20250248.835   -24188525.898 9 -18829804.40748  20250250.289    20250258.6374
  23137545.101    -9169420.666 8  -7124972.80246  23137547.464    23137558.3164
  20491180.962   -22919797.965 9 -17562555.13748  20491184.766    20491192.7654
  22906002.481    -8374018.658 8  -6499788.26246  22906013.991    22906025.3534
  22347138.406   -13858159.754 8 -10780030.66847  22347140.743    22347149.0024
  24156165.790    -2112128.775 7  -1618116.09645  24156175.231    24156187.2144
 00  4  3  1 57  0.0000000  0  6 17 06 26 09 23 10
  20243559.929   -24223663.092 9 -18857183.92248  20243563.667    20243572.1554
  23155262.234    -9076283.512 8  -7052398.54346  23155270.638    23155283.4844
  20501431.106   -22865938.278 9 -17520586.57748  20501434.392    20501441.9844
  22887441.495    -8471612.357 8  -6575835.21246  22887442.516    22887454.3444
  22337196.499   -13910379.827 8 -10820721.51947  22337203.591    22337212.6484
  24171082.344    -2033808.127 8  -1557087.20045  24171080.922    24171090.9024
 00  4  3  1 57 30.0000000  0  6 17 06 26 09 23 10
  20236956.627   -24258360.563 9 -18884220.74548  20236960.877    20236969.1764
  23173022.091    -8982980.390 8  -6979694.94246  23173025.973    23173037.8084
  20511762.127   -22811646.552 9 -17478281.36848  20511765.674    20511773.3674
  22868910.223    -8568999.860 8  -6651721.45646  22868910.896    22868921.5244
  22327279.391   -13962506.276 8 -10861339.46347  22327284.123    22327293.5194
  24185988.329    -1955422.358 8  -1496007.46245  24185996.469    24186006.1414
 00  4  3  1 58  0.0000000  0  6 17 06 26 09 23 10
  20230444.521   -24292596.531 9 -18910898.11548  20230446.534    20230454.4654
  23190805.404    -8889520.284 8  -6906869.03746  23190811.612    23190822.7184
  20522178.597   -22756909.478 9 -17435629.09248  20522181.823    20522189.6514
  22850421.216    -8666176.273 8  -6727443.22146  22850417.813    22850428.8874
  22317378.708   -14014540.316 8 -10901885.40547  22317382.201    22317390.9194
  24200915.036    -1876983.398 7  -1434886.33545  24200921.921    24200934.7444
 00  4  3  1 58 30.0000000  0  6 17 06 26 09 23 10
  20224018.641   -24326349.462 9 -18937199.15748  20224022.918    20224031.4524
  23208626.624    -8795900.852 8  -6833918.96246  23208626.580    23208637.7844
  20532679.679   -22701719.001 9 -17392623.53048  20532684.234    20532692.0054
  22831958.428    -8763155.867 8  -6803011.58846  22831962.791    22831974.6504
  22307492.353   -14066481.554 8 -10942359.02447  22307497.610    22307506.4814
  24215850.030    -1798503.082 7  -1373733.02345  24215854.968    24215870.1864
 00  4  3  1 59  0.0000000  0  6 17 06 26 09 23 10
  20217690.991   -24359608.049 9 -18963114.88148  20217694.237    20217702.4834
  23226467.964    -8702127.976 8  -6760849.32146  23226471.417    23226480.6144
  20543266.715   -22646093.394 9 -17349278.90748  20543269.796    20543277.4014
  22813545.493    -8859918.351 8  -6878410.79146  22813549.689    22813561.2184
  22297628.783   -14118330.468 8 -10982760.65247  22297631.438    22297640.5424
  24230796.207    -1719990.083 8  -1312554.26845  24230798.149    24230810.3344
 00  4  3  1 59 30.0000000  0  6 17 06 26 09 23 10
  20211457.590   -24392365.567 9 -18988640.18848  20211460.965    20211468.6384
  23244346.873    -8608192.532 8  -6687653.00746  23244347.458    23244357.7194
  20553929.591   -22590044.341 9 -17305604.32548  20553934.885    20553942.9644
  22795176.264    -8956440.886 8  -6953623.03546  22795181.879    22795193.2474
  22287777.930   -14170082.178 8 -11023086.57247  22287783.146    22287792.3794
  24245746.494    -1641460.766 8  -1251362.70845  24245742.038    24245753.6084
 00  4  3  2  0  0.0000000  0  6 17 06 26 09 23 10
  20205322.447   -24424607.628 9 -19013763.88548  20205325.328    20205333.3354
  23262251.515    -8514089.774 8  -6614326.34346  23262254.155    23262265.4384
  20564676.291   -22533575.381 9 -17261602.53448  20564680.593    20564688.5004
  22776855.075    -9052731.891 8  -7028654.87646  22776857.885    22776869.6914
  22277952.267   -14221728.662 9 -11063330.46347  22277954.928    22277964.4434
  24260691.638    -1562921.439 8  -1190163.35645  24260688.116    24260698.3394
 00  4  3  2  0 30.0000000  0  6 17 06 26 09 23 10
  20199281.983   -24456359.521 9 -19038505.65248  20199283.398    20199291.5494
  23280190.899    -8419828.157 8  -6540875.85446  23280192.620    23280202.7934
  20575504.412   -22476688.924 9 -17217275.41848  20575506.065    20575513.6744
  22758579.310    -9148790.285 8  -7103505.46846  22758578.601    22758589.9114
  22268146.353   -14273262.187 9 -11103486.29547  22268149.231    22268157.8624
  24275643.302    -1484353.498 7  -1128941.67845  24275637.997    24275651.3924
 00  4  3  2  1  0.0000000  0  6 17 06 26 09 23 10
  20193326.983   -24487640.983 9 -19062880.71748  20193330.393    20193338.1984
  23298156.727    -8325416.063 8  -6467308.15746  23298157.333    23298171.0364
  20586407.289   -22419374.290 9 -17172614.66848  20586412.321    20586420.2304
  22740340.287    -9244606.266 8  -7178167.12646  22740345.183    22740357.0424
  22258360.710   -14324675.928 8 -11143548.89747  22258364.813    22258373.8084
  24290595.637    -1405747.489 7  -1067690.44545  24290594.764    24290609.6324
 00  4  3  2  1 30.0000000  0  6 17 06 26 09 23 10
  20187464.229   -24518449.714 9 -19086887.23148  20187467.505    20187475.6604
  23316156.895    -8230845.479 8  -6393616.94446  23316154.215    23316166.3574
  20597402.000   -22361606.832 9 -17127601.06248  20597405.171    20597412.8364
  22722153.723    -9340191.422 8  -7252648.95246  22722155.759    22722167.1224
  22248601.710   -14375969.310 9 -11183517.74547  22248604.004    22248613.2784
  24305561.090    -1327088.656 8  -1006397.99345  24305565.062    24305576.9694
 00  4  3  2  2  0.0000000  0  6 17 06 26 09 23 10
  20181692.723   -24548776.925 9 -19110518.88948  20181696.439    20181705.0774
  23334176.810    -8136124.765 8  -6319808.74046  23334178.332    23334189.5224
  20608482.550   -22303385.693 9 -17082233.94048  20608484.512    20608492.1894
  22704001.354    -9435548.282 8  -7326952.92346  22704010.460    22704021.4604
  22238866.922   -14427136.288 9 -11223388.05347  22238867.878    22238876.8824
  24320553.245    -1248350.967 8   -945044.12045  24320548.150    24320561.1454
 00  4  3  2  2 30.0000000  0  6 17 06 26 09 23 10
  20176014.372   -24578619.622 9 -19133773.20348  20176017.842    20176026.1974
  23352228.422    -8041261.065 8  -6245889.11346  23352231.206    23352242.1484
  20619645.201   -22244728.255 9 -17036526.83448  20619646.871    20619654.1154
  22685912.517    -9530665.358 8  -7401070.00146  22685909.911    22685921.8204
  22229150.576   -14478184.658 9 -11263165.94447  22229153.034    22229162.3014
  24335551.127    -1169533.094 7   -883627.76845  24335547.496    24335558.9534
 00  4  3  2  3  0.0000000  0  6 17 06 26 09 23 10
  20170434.155   -24607946.990 9 -19156625.70448  20170437.004    20170445.1944
  23370306.836    -7946249.412 8  -6171854.23446  23370310.240    23370323.4314
  20630883.233   -22185653.779 9 -16990494.77548  20630888.354    20630895.4954
  22667853.693    -9625536.636 8  -7474995.53846  22667856.206    22667868.1524
  22219451.311   -14529127.553 8 -11302861.66447  22219457.547    22219467.6884
  24350556.416    -1090652.587 7   -822162.60045  24350555.047    24350568.7564
 00  4  3  2  3 30.0000000  0  6 17 06 26 09 23 10
  20164957.689   -24636730.613 9 -19179054.53948  20164959.950    20164967.7494
  23388415.477    -7851091.049 8  -6097705.01346  23388417.795    23388431.2694
  20642200.172   -22126187.640 9 -16944157.52748  20642203.772    20642211.6894
  22649843.114    -9720155.511 8  -7548724.37546  22649849.872    22649862.3334
  22209781.387   -14579969.322 9 -11342478.52147  22209784.339    22209793.2834
  24365570.321    -1011709.985 7   -760649.03745  24365578.663    24365592.9744
 00  4  3  2  4  0.0000000  0  6 17 06 26 09 23 10
  20159585.950   -24664958.060 9 -19201049.92048  20159587.970    20159596.4784
  23406542.981    -7755803.901 8  -6023455.41446  23406552.171    23406563.4254
  20653585.544   -22066346.431 9 -16897528.00448  20653591.528    20653599.0944
  22631883.599    -9814523.576 8  -7622257.83246  22631892.557    22631904.1424
  22200127.680   -14630713.344 9 -11382019.25747  22200127.474    22200138.0284
  24380594.402     -932722.351 7   -699100.39845  24380609.701    24380623.9134
 00  4  3  2  4 30.0000000  0  6 17 06 26 09 23 10
  20154318.315   -24692630.249 9 -19222612.62648  20154322.031    20154330.5724
  23424709.345    -7660379.236 8  -5949098.65745  23424710.287    23424722.5594
  20665049.106   -22006129.725 9 -16850605.88648  20665050.698    20665058.1454
  22613983.730    -9908642.438 8  -7695597.09246  22613983.781    22613994.6734
  22190482.536   -14681383.145 9 -11421502.13347  22190485.745    22190495.5174
  24395643.721     -853703.054 7   -637527.08645  24395647.621    24395660.3134
 00  4  3  2  5  0.0000000  0  6 17 06 26 09 23 10
  20149159.099   -24719750.404 9 -19243745.13148  20149161.289    20149169.3014
  23442887.656    -7564816.022 8  -5874633.93945  23442896.268    23442907.7144
  20676578.237   -21945538.478 9 -16803391.92848  20676580.610    20676588.3744
  22596118.295   -10002510.136 8  -7768740.63946  22596120.592    22596131.0444
  22180855.508   -14731973.002 8 -11460922.74647  22180858.271    22180867.8474
  24410685.022     -774652.907 7   -575929.76245  24410690.910    24410703.7204
 00  4  3  2  5 30.0000000  0  6 17 06 26 09 23 10
  20144097.267   -24746340.688 9 -19264464.87748  20144101.540    20144109.8234
  23461103.221    -7469115.054 8  -5800061.91345  23461106.321    23461118.6484
  20688177.255   -21884575.236 9 -16755888.09248  20688181.316    20688189.2594
  22578306.299   -10096121.997 8  -7841684.82746  22578306.428    22578317.9974
  22171243.234   -14782474.591 8 -11500274.54947  22171247.668    22171257.5374
  24425730.685     -695574.433 7   -514310.34245  24425738.670    24425752.5414
 00  4  3  2  6  0.0000000  0  6 17 06 26 09 23 10
  20139134.506   -24772423.311 9 -19284788.97348  20139138.127    20139146.1444
  23479345.973    -7373279.657 8  -5725385.12145  23479343.843    23479356.1124
  20699851.295   -21823231.601 9 -16708087.85748  20699854.503    20699862.8154
  22560543.985   -10189478.888 8  -7914430.33446  22560541.397    22560552.9414
  22161653.262   -14832884.122 9 -11539554.59347  22161655.728    22161664.7114
  24440776.451     -616475.823 7   -452675.17745  24440789.881    24440802.8214
 00  4  3  2  6 30.0000000  0  6 17 06 26 09 23 10
  20134265.451   -24798018.040 9 -19304732.93548  20134267.664    20134275.7554
  23497603.533    -7277323.046 8  -5650613.90845  23497604.779    23497616.6514
  20711597.470   -21761502.647 9 -16659987.36548  20711601.466    20711609.3714
  22542823.884   -10282558.295 8  -7986959.59846  22542828.942    22542840.5854
  22152079.430   -14883188.634 9 -11578752.83947  22152083.544    22152091.9174
  24455860.167     -537342.882 7   -391013.30245  24455849.318    24455861.4684
 00  4  3  2  7  0.0000000  0  6 17 06 26 09 23 10
  20129487.455   -24823122.863 9 -19324295.30648  20129490.264    20129498.4464
  23515881.002    -7181266.862 8  -5575765.06546  23515883.700    23515895.1014
  20723419.597   -21699390.604 9 -16611588.37248  20723421.327    20723428.7124
  22525167.458   -10375349.819 8  -8059264.58246  22525172.159    22525181.9044
  22142534.116   -14933360.518 9 -11617847.80947  22142535.310    22142544.5744
  24470913.320     -458176.873 7   -329325.68945  24470915.280    24470927.0964
 00  4  3  2  7 30.0000000  0  6 17 06 26 09 23 10
  20124804.253   -24847734.872 9 -19343473.54348  20124806.911    20124814.6164
  23534175.779    -7085113.402 8  -5500840.43446  23534181.021    23534193.2494
  20735312.473   -21636878.194 9 -16562877.41848  20735316.624    20735324.2194
  22507564.262   -10467852.319 8  -8131344.35646  22507568.041    22507579.4134
  22133014.081   -14983400.597 9 -11656840.02347  22133013.240    22133021.8124
  24485974.182     -378967.084 7   -267603.92445  24485989.126    24486001.0934
 00  4  3  2  8  0.0000000  0  6 17 06 26 09 23 10
  20120216.271   -24871835.896 9 -19362253.45548  20120220.206    20120228.6124
  23552493.418    -6988866.213 8  -5425842.76946  23552495.680    23552508.4954
  20747285.884   -21573952.905 9 -16513844.72548  20747290.485    20747298.9554
  22490013.484   -10560067.351 8  -8203200.08146  22490019.871    22490030.4814
  22123511.687   -15033313.092 9 -11695732.63947  22123515.749    22123523.9814
  24501068.154     -299696.779 7   -205835.01145  24501072.060    24501084.0514
 00  4  3  2  8 30.0000000  0  6 17 06 26 09 23 10
  20115732.432   -24895409.105 9 -19380622.17148  20115734.730    20115742.5264
  23570823.471    -6892513.558 8  -5350762.94245  23570831.717    23570843.4674
  20759338.764   -21510621.883 9 -16464495.84948  20759342.215    20759349.7554
  22472520.663   -10651993.396 8  -8274830.61846  22472527.465    22472537.4024
  22114036.636   -15083107.570 9 -11734533.60647  22114040.292    22114048.2884
  24516157.991     -220365.166 7   -144018.35345  24516169.102    24516183.0934
 00  4  3  2  9  0.0000000  0  6 17 06 26 09 23 10
  20111347.604   -24918445.862 9 -19398572.92448  20111350.665    20111358.6314
  23589194.282    -6796030.618 8  -5275581.59646  23589192.874    23589203.5214
  20771466.310   -21446889.084 9 -16414833.91347  20771469.670    20771477.8484
  22455080.192   -10743641.171 8  -8346244.33946  22455087.451    22455098.0834
  22104583.458   -15132793.826 9 -11773250.02647  22104585.105    22104593.9854
  24531262.170     -140984.833 7    -82163.67145  24531273.215    24531287.4414
 00  4  3  2  9 30.0000000  0  6 17 06 26 09 23 10
  20107067.022   -24940946.086 9 -19416105.61748  20107069.360    20107077.3164
  23607573.395    -6699410.547 8  -5200293.35745  23607578.404    23607590.3374
  20783672.344   -21382757.141 9 -16364860.98247  20783674.451    20783681.7114
  22437698.338   -10835006.022 8  -8417437.61346  22437700.460    22437711.2094
  22095147.787   -15182379.924 9 -11811888.55347  22095148.449    22095158.4424
  24546373.113      -61562.946 7    -20276.75145  24546388.701    24546399.5214
 00  4  3  2 10  0.0000000  0  6 17 06 26 09 23 10
  20102887.668   -24962905.861 9 -19433217.14448  20102890.602    20102898.5434
  23625983.127    -6602674.123 8  -5124914.47745  23625987.313    23625999.2854
  20795947.735   -21318241.707 9 -16314589.21747  20795951.092    20795958.3834
  22420367.588   -10926077.071 8  -8488401.96246  22420371.308    22420380.8024
  22085727.569   -15231856.072 9 -11850441.30747  22085733.131    22085743.5224
  24561502.593       17883.161 7     41629.10145  24561505.868    24561520.0584
 00  4  3  2 10 30.0000000  0  6 17 06 26 09 23 10
  20098810.925   -24984328.858 9 -19449910.38148  20098814.230    20098821.9304
  23644412.232    -6505844.137 8  -5049462.69446  23644411.901    23644425.8354
  20808295.321   -21253350.236 9 -16264024.42847  20808299.727    20808307.1344
  22403098.655   -11016837.532 8  -8559124.28746  22403099.471    22403109.0404
  22076337.688   -15281217.221 9 -11888904.55047  22076340.012    22076349.3734
  24576629.289       97355.439 7    103555.43845  24576630.597    24576642.9474
 00  4  3  2 11  0.0000000  0  6 17 06 26 09 23 10
  20094837.763   -25005216.429 9 -19466186.36948  20094839.154    20094847.1234
  23662843.216    -6408946.844 8  -4973958.49446  23662852.004    23662864.1514
  20820715.905   -21188088.290 9 -16213170.95347  20820718.791    20820726.0304
  22385885.365   -11107276.680 8  -8629596.21646  22385889.338    22385899.2494
  22066970.248   -15330451.250 9 -11927268.62147  22066971.752    22066980.3294
  24591757.660      176862.116 7    165508.55645  24591759.158    24591771.9324
 00  4  3  2 11 30.0000000  0  6 17 06 26 09 23 10
  20090962.896   -25025562.848 9 -19482040.66748  20090967.165    20090975.3754
  23681306.243    -6311996.075 8  -4898412.61545  23681300.587    23681312.8514
  20833203.143   -21122472.124 9 -16162041.46747  20833205.493    20833212.5244
  22368738.714   -11197394.758 8  -8699817.97646  22368740.028    22368750.8404
  22057625.149   -15379553.421 9 -11965529.95947  22057627.341    22057636.5084
  24606891.392      256412.555 7    227495.76944  24606896.812    24606909.9524
 00  4  3  2 12  0.0000000  0  6 17 06 26 09 23 10
  20087197.055   -25045367.021 9 -19497472.46748  20087198.746    20087206.7914
  23699758.491    -6214990.013 8  -4822823.63145  23699760.186    23699773.2664
  20845753.045   -21056503.232 9 -16110637.11247  20845758.218    20845766.0954
  22351645.372   -11287200.513 8  -8769796.36446  22351650.984    22351662.1584
  22048303.629   -15428534.609 9 -12003696.98247  22048305.472    22048315.4004
  24622053.414      336024.461 7    289530.86745  24622047.799    24622060.6144
 00  4  3  2 12 30.0000000  0  6 17 06 26 09 23 10
  20083529.755   -25064632.639 9 -19512484.61548  20083532.209    20083540.7494
  23718229.956    -6117905.267 8  -4747173.32945  23718235.098    23718248.1824
  20858376.518   -20990179.354 9 -16058956.18247  20858379.317    20858386.8604
  22334614.615   -11376699.996 8  -8839536.07946  22334619.178    22334629.7324
  22039000.304   -15477407.090 8 -12041779.31147  22039005.745    22039015.6244
  24637216.044      415714.049 7    351626.45145  24637210.925    24637225.2154
 00  4  3  2 13  0.0000000  0  6 17 06 26 09 23 10
  20079963.077   -25083361.426 9 -19527078.44648  20079968.285    20079976.8904
  23736730.789    -6020721.802 8  -4671446.10745  23736728.508    23736741.3984
  20871059.000   -20923510.695 9 -16007006.56647  20871065.811    20871073.3034
  22317642.345   -11465908.839 8  -8909049.32046  22317643.157    22317654.5894
  22029723.513   -15526176.960 9 -12079781.76947  22029725.236    22029734.7134
  24652389.562      495463.351 7    413768.57344  24652386.052    24652402.6904
 00  4  3  2 13 30.0000000  0  6 17 06 26 09 23 10
  20076506.368   -25101547.615 9 -19541249.46348  20076507.730    20076516.0464
  23755242.812    -5923438.016 8  -4595640.71145  23755241.879    23755254.7434
  20883816.178   -20856486.133 9 -15954779.64547  20883820.425    20883827.6614
  22300723.692   -11554817.636 8  -8978328.78146  22300724.705    22300735.5384
  22020460.027   -15574851.526 9 -12117709.89047  22020462.956    22020470.8734
  24667567.343      575268.637 7    475954.36044  24667575.295    24667589.6174
 00  4  3  2 14  0.0000000  0  6 17 06 26 09 23 10
  20073147.730   -25119183.340 9 -19554991.57348  20073151.498    20073159.8934
  23773764.688    -5826072.265 8  -4519771.44445  23773769.496    23773783.0214
  20896642.432   -20789085.139 9 -15902259.39047  20896646.494    20896653.4664
  22283862.636   -11643410.029 8  -9047361.67146  22283866.448    22283876.6324
  22011217.573   -15623435.365 9 -12155567.38947  22011217.813    22011225.9914
  24682761.649      655122.262 7    538177.78445  24682770.309    24682782.8344
 00  4  3  2 14 30.0000000  0  6 17 06 26 09 23 10
  20069900.093   -25136259.448 9 -19568297.61248  20069902.291    20069910.4124
  23792307.570    -5728635.320 8  -4443846.74645  23792311.196    23792324.3794
  20909538.956   -20721318.498 9 -15849454.20747  20909541.880    20909549.6524
  22267067.439   -11731676.801 8  -9116140.85647  22267069.118    22267080.0644
  22001988.518   -15671919.738 9 -12193347.31047  22001992.096    22001999.9134
  24697960.069      735003.934 7    600423.10345  24697971.273    24697985.7034
 00  4  3  2 15  0.0000000  0  6 17 06 26 09 23 10
  20066757.254   -25152769.899 9 -19581162.92448  20066760.585    20066768.5884
  23810854.374    -5631139.654 8  -4367876.22345  23810864.519    23810876.0814
  20922503.114   -20653196.124 9 -15796371.83047  20922505.311    20922512.7274
  22250332.010   -11819611.957 8  -9184661.62347  22250335.360    22250346.1894
  21992784.418   -15720297.075 9 -12231043.97947  21992785.557    21992794.2734
  24713165.167      814902.235 7    662681.32844  24713177.538    24713187.7664
 00  4  3  2 15 30.0000000  0  6 17 06 26 09 23 10
  20063724.327   -25168712.481 9 -19593585.75648  20063726.914    20063735.0414
  23829430.859    -5533595.234 8  -4291867.70745  23829426.664    23829439.7304
  20935533.053   -20584712.503 9 -15743007.95247  20935536.896    20935544.4974
  22233659.241   -11907207.161 8  -9252917.51146  22233666.598    22233677.5074
  21983600.048   -15768564.740 9 -12268655.00847  21983600.066    21983608.9854
  24728394.395      894825.073 7    724958.67644  24728382.927    24728399.7114
 00  4  3  2 16  0.0000000  0  6 17 06 26 09 23 10
  20060796.108   -25184096.131 9 -19605572.99548  20060799.106    20060807.5954
  23847994.145    -5435981.036 8  -4215804.86645  23848001.670    23848015.2614
  20948629.874   -20515882.328 9 -15689374.03947  20948634.493    20948642.5654
  22217054.927   -11994485.537 8  -9320926.48947  22217058.179    22217069.4764
  21974432.281   -15816728.246 9 -12306185.01247  21974435.344    21974443.2864
  24743592.701      974773.387 7    787255.89744  24743596.474    24743611.3364
 00  4  3  2 16 30.0000000  0  6 17 06 26 09 23 10
  20057972.924   -25198932.734 9 -19617134.00148  20057976.083    20057984.2674
  23866584.913    -5338274.012 8  -4139669.67445  23866594.763    23866607.8864
  20961790.055   -20446726.481 9 -15635486.36547  20961794.891    20961802.3974
  22200508.157   -12081448.739 8  -9388689.89346  22200509.793    22200520.4164
  21965287.214   -15864788.258 9 -12343634.22647  21965289.693    21965298.0484
  24758809.934     1054755.093 7    849579.16544  24758817.011    24758832.8114
 00  4  3  2 17  0.0000000  0  6 17 06 26 09 23 10
  20055251.950   -25213229.286 9 -19628274.17048  20055255.627    20055263.4514
  23885191.778    -5240481.250 7  -4063467.70145  23885204.372    23885217.3564
  20975014.845   -20377238.556 9 -15581339.92447  20975017.926    20975025.5754
  22184018.360   -12168087.177 8  -9456200.23646  22184023.245    22184031.9884
  21956162.284   -15912740.150 9 -12380999.34047  21956164.437    21956173.6414
  24774042.417     1134780.187 7    911936.23545  24774048.617    24774060.1584
 00  4  3  2 17 30.0000000  0  6 17 06 26 09 23 10
  20052634.816   -25226986.278 9 -19638993.89148  20052637.668    20052645.4834
  23903827.331    -5142608.503 8  -3987203.36945  23903829.327    23903842.5654
  20988301.365   -20307414.494 9 -15526931.55747  20988304.821    20988313.2284
  22167599.502   -12254396.652 8  -9523454.24147  22167598.549    22167608.6414
  21947055.033   -15960584.697 9 -12418280.59347  21947060.062    21947068.7114
  24789266.287     1214849.678 7    974327.90544  24789282.417    24789297.9614
 00  4  3  2 18  0.0000000  0  5 17 06 26 09 23
  20050120.134   -25240207.969 9 -19649296.46648  20050121.782    20050129.7734
  23922473.541    -5044667.163 8  -3910885.59345  23922467.222    23922481.1044
  21001650.543   -20237254.084 9 -15472261.11147  21001656.032    21001663.6214
  22151233.944   -12340374.251 8  -9590449.63447  22151236.878    22151247.9514
  21937975.674   -16008313.152 9 -12455471.56647  21937977.650    21937985.8644
 00  4  3  2 18 30.0000000  0  5 17 06 26 09 23
  20047703.748   -25252896.533 9 -19659183.63748  20047707.103    20047715.1034
  23941108.949    -4946698.791 7  -3834546.78345  23941109.905    23941122.8804
  21015068.714   -20166759.099 9 -15417329.94347  21015071.189    21015078.4394
  22134944.596   -12425990.536 8  -9657163.46547  22134945.330    22134955.4984
  21928915.438   -16055907.697 9 -12492558.12247  21928920.197    21928928.9184
 00  4  3  2 19  0.0000000  0  5 17 06 26 09 23
  20045393.239   -25265044.652 9 -19668649.73648  20045395.353    20045403.6694
  23959742.461    -4848727.499 8  -3758205.67545  23959753.981    23959767.3374
  21028548.388   -20095924.082 9 -15362133.80647  21028550.411    21028557.9064
  22118715.990   -12511240.791 8  -9723592.09647  22118722.829    22118732.8554
  21919886.837   -16103365.168 9 -12529537.79747  21919889.219    21919897.9164
 00  4  3  2 19 30.0000000  0  6 03 17 06 26 09 23
  24643333.413    -1290484.07718   -994165.29255  24643333.242    24643340.8644
  20043184.813   -25276644.045 9 -19677688.22748  20043188.252    20043196.2424
  23978395.425    -4750753.266 8  -3681862.26145  23978397.749    23978411.7814
  21042091.228   -20024756.189 9 -15306678.31547  21042093.268    21042100.9214
  22102570.567   -12596123.478 8  -9789734.30747  22102569.817    22102580.1894
  21910878.440   -16150692.932 9 -12566416.45047  21910883.228    21910891.4944
 00  4  3  2 20  0.0000000  0  6 03 17 06 26 09 23
  24635582.487    -1331193.458 7  -1025886.86045  24635585.670    24635593.9184
  20041080.648   -25287691.961 9 -19686296.97948  20041085.493    20041093.8714
  23997037.698    -4652777.317 8  -3605517.49945  23997041.902    23997055.1534
  21055695.999   -19953263.913 9 -15250970.04747  21055698.061    21055705.1794
  22086483.890   -12680623.492 8  -9855578.33347  22086489.401    22086499.9114
  21901900.420   -16197894.496 9 -12603197.01447  21901900.945    21901909.3774
 00  4  3  2 20 30.0000000  0  6 03 17 06 26 09 23
  24627924.507    -1371419.906 7  -1057232.20045  24627930.193    24627938.4504
  20039091.961   -25298161.508 9 -19694455.02148  20039093.203    20039101.5644
  24015681.681    -4554790.167 8  -3529164.01545  24015688.525    24015702.9184
  21069360.006   -19881453.747 9 -15195014.07547  21069362.891    21069370.6104
  22070482.479   -12764728.680 8  -9921114.72347  22070484.788    22070495.1414
  21892940.433   -16244983.503 9 -12639889.72547  21892940.448    21892949.0354
 00  4  3  2 21  0.0000000  0  6 03 17 06 26 09 23
  24620370.444    -1411165.767 7  -1088203.06245  24620366.121    24620376.2394
  20037209.383   -25308039.539 9 -19702152.14848  20037213.593    20037221.7904
  24034345.910    -4456762.994 7  -3452779.36545  24034341.766    24034355.7684
  21083087.635   -19809319.485 9 -15138805.55647  21083089.808    21083097.1844
  22054552.341   -12848452.567 8  -9986353.98247  22054552.720    22054562.8034
  21883996.661   -16291976.015 9 -12676507.33747  21883998.204    21884006.4824
 00  4  3  2 21 30.0000000  0  6 03 17 06 26 09 23
  24612892.527    -1450437.519 7  -1118804.73745  24612892.724    24612904.3224
  20035441.798   -25317334.707 9 -19709395.11848  20035444.592    20035452.9174
  24052997.621    -4358680.402 7  -3376351.54745  24053005.197    24053021.4274
  21096873.864   -19736862.728 9 -15082345.72947  21096877.188    21096884.9164
  22038688.747   -12931794.257 8 -10051295.43847  22038692.690    22038702.6294
  21875069.036   -16338876.102 9 -12713052.83747  21875073.033    21875081.2964
 00  4  3  2 22  0.0000000  0  6 03 17 06 26 09 23
  24605507.060    -1489235.346 7  -1149036.84445  24605512.001    24605519.6294
  20033782.045   -25326051.878 9 -19716187.68748  20033785.895    20033794.0444
  24071670.788    -4260538.749 7  -3299877.68745  24071683.243    24071697.8604
  21110723.352   -19664083.745 9 -15025634.80247  21110726.893    21110734.1114
  22022904.780   -13014757.410 8 -10115941.91647  22022906.279    22022915.5174
  21866162.089   -16385689.691 9 -12749530.72047  21866164.972    21866172.4964
 00  4  3  2 22 30.0000000  0  6 03 17 06 26 09 23
  24598214.714    -1527539.451 7  -1178884.49345  24598222.479    24598232.9934
  20032233.580   -25334196.823 9 -19722534.35248  20032236.005    20032243.9984
  24090347.683    -4162348.291 7  -3223365.80045  24090365.376    24090381.8584
  21124633.330   -19590978.762 9 -14968669.84847  21124637.828    21124645.4134
  22007188.082   -13097353.715 8 -10180302.55447  22007187.632    22007197.9404
  21857270.498   -16432422.599 9 -12785945.80747  21857272.296    21857280.1954
 00  4  3  2 23  0.0000000  0  7 03 17 06 26 09 21 23
  24591030.056    -1565336.373 7  -1208336.75445  24591029.389    24591038.6904
  20030787.333   -25341794.043 9 -19728454.27848  20030790.385    20030798.5304
  24109058.476    -4064116.095 8  -3146821.42045  24109061.097    24109075.3054
  21138603.946   -19517562.284 9 -14911462.17347  21138608.651    21138616.6324
  21991537.936   -13179579.716 8 -10244374.63647  21991540.932    21991551.0014
  24983222.446     -232414.94917   -173157.83955  24983223.505    24983235.3184
  21848392.226   -16479063.852 9 -12822289.52347  21848396.376    21848403.5724
 00  4  3  2 23 30.0000000  0  7 03 17 06 26 09 21 23
  24583931.449    -1602621.370 7  -1237390.08545  24583935.399    24583943.4854
  20029445.463   -25348838.033 9 -19733943.13948  20029449.512    20029457.7834
  24127749.954    -3965869.780 7  -3070265.98245  24127756.392    24127770.3414
  21152633.212   -19443849.576 9 -14854023.69247  21152635.558    21152643.2144
  21975962.958   -13261427.087 8 -10308151.68247  21975966.207    21975976.2664
  24968502.218     -309762.595 7   -233428.65545  24968504.210    24968515.5344
  21839537.541   -16525611.821 9 -12858560.71947  21839538.528    21839546.4574
 00  4  3  2 24  0.0000000  0  7 03 17 06 26 09 21 23
  24576931.257    -1639385.654 7  -1266037.53145  24576938.736    24576948.4804
  20028214.853   -25355300.584 9 -19738978.90248  20028219.956    20028228.0254
  24146442.742    -3867627.967 7  -2993714.06745  24146451.690    24146466.4914
  21166716.934   -19369844.241 9 -14796357.17947  21166718.708    21166726.0854
  21960463.535   -13342902.717 8 -10371639.06847  21960461.619    21960471.7174
  24953765.225     -387168.931 7   -293745.15345  24953772.550    24953787.2114
  21830698.005   -16572054.037 9 -12894749.28447  21830700.764    21830708.9164
 00  4  3  2 24 30.0000000  0  7 03 17 06 26 09 21 23
  24570036.139    -1675629.809 7  -1294279.64445  24570042.587    24570051.2064
  20027100.377   -25361171.695 9 -19743553.77148  20027102.958    20027110.8644
  24165137.537    -3769393.742 7  -2917168.09245  24165145.054    24165160.1654
  21180852.866   -19295549.361 9 -14738465.05947  21180856.269    21180864.0484
  21945026.809   -13424002.557 8 -10434833.60647  21945028.622    21945037.9454
  24939030.285     -464626.994 7   -354101.92245  24939031.948    24939044.2774
  21821882.244   -16618372.130 9 -12930841.24547  21821886.298    21821895.6334
 00  4  3  2 25  0.0000000  0  7 03 17 06 26 09 21 23
  24563237.796    -1711363.126 7  -1322123.85145  24563241.408    24563250.1974
  20026097.020   -25366438.837 9 -19747658.03548  20026100.451    20026108.5394
  24183834.342    -3671160.547 7  -2840622.91045  24183837.504    24183852.8424
  21195047.519   -19220962.592 9 -14680345.48147  21195049.841    21195057.6714
  21929664.268   -13504717.108 8 -10497727.97347  21929668.301    21929678.5154
  24924285.501     -542126.774 7   -414491.26945  24924286.444    24924298.9554
  21813098.824   -16664547.325 9 -12966821.84347  21813099.665    21813107.5774
 00  4  3  2 25 30.0000000  0  7 03 17 06 26 09 21 23
  24556532.614    -1746600.200 7  -1349581.32845  24556537.236    24556546.3234
  20025211.882   -25371096.433 9 -19751287.32148  20025214.046    20025222.0184
  24202512.102    -3572932.330 7  -2764081.58945  24202531.085    24202544.7224
  21209303.515   -19146064.261 9 -14621983.11447  21209302.479    21209310.3784
  21914376.290   -13585043.896 8 -10560320.14747  21914382.869    21914392.9084
  24909530.515     -619653.765 7   -474901.74745  24909532.328    24909546.5644
  21804336.682   -16710580.394 9 -13002691.75547  21804339.781    21804348.5744
 00  4  3  2 26  0.0000000  0  7 03 17 06 26 09 21 23
  24549921.952    -1781336.644 7  -1376648.78245  24549925.898    24549936.0294
  20024436.629   -25375170.448 9 -19754461.87448  20024438.653    20024446.7894
  24221218.143    -3474692.141 8  -2687530.94545  24221226.351    24221240.2904
  21223610.030   -19070856.936 9 -14563379.97947  21223613.619    21223621.3344
  21899169.241   -13664981.483 8 -10622609.04947  21899171.633    21899180.8894
  24894773.244     -697200.064 7   -535327.27745  24894777.785    24894787.1694
  21795603.330   -16756463.917 9 -13038445.01147  21795607.815    21795616.6234
 00  4  3  2 26 30.0000000  0  7 03 17 06 26 09 21 23
  24543412.851    -1815572.174 8  -1403325.79945  24543412.229    24543419.4134
  20023765.781   -25378687.297 9 -19757202.27648  20023769.411    20023777.6244
  24239911.149    -3376435.964 7  -2610967.85745  24239922.011    24239936.6564
  21237978.587   -18995350.148 9 -14504543.52447  21237981.867    21237990.1644
  21884035.394   -13744506.057 8 -10684576.12547  21884037.649    21884047.4634
  24880014.772     -774757.728 7   -595761.66645  24880018.867    24880030.3214
  21786899.547   -16802212.334 9 -13074093.01247  21786902.423    21786911.5994
 00  4  3  2 27  0.0000000  0  7 03 17 06 26 09 21 23
  24536991.662    -1849301.754 8  -1429608.51345  24536994.480    24537001.9194
  20023204.462   -25381651.929 9 -19759512.40448  20023205.406    20023213.4384
  24258594.377    -3278174.148 7  -2534400.35745  24258621.091    24258636.1804
  21252401.778   -18919552.918 9 -14445480.74247  21252405.907    21252414.1904
  21868979.792   -13823621.723 8 -10746224.57647  21868982.971    21868992.6874
  24865252.016     -852325.921 7   -656204.27745  24865255.558    24865268.3884
  21778216.459   -16847847.172 9 -13109652.67747  21778218.841    21778226.7704
 00  4  3  2 27 30.0000000  0  7 03 17 06 26 09 21 23
  24530663.008    -1882518.316 8  -1455491.60445  24530673.764    24530680.5794
  20022742.611   -25384066.127 9 -19761393.58748  20022746.098    20022754.4504
  24277308.156    -3179911.692 7  -2457832.35645  24277318.484    24277334.9944
  21266880.568   -18843482.372 9 -14386204.98647  21266881.517    21266889.4054
  21854003.145   -13902338.995 9 -10807562.56847  21854004.093    21854013.2514
  24850489.434     -929910.022 7   -716659.23545  24850491.177    24850504.2704
  21769549.571   -16893392.413 9 -13145142.38647  21769551.770    21769558.7744
 00  4  3  2 28  0.0000000  0  7 03 17 06 26 09 21 23
  24524448.409    -1915209.759 8  -1480965.34645  24524452.551    24524459.8474
  20022392.225   -25385907.552 9 -19762828.44648  20022395.483    20022404.0514
  24296011.881    -3081655.303 7  -2381269.12345  24296018.039    24296032.8584
  21281404.905   -18767151.969 9 -14326726.73047  21281407.020    21281414.1934
  21839098.976   -13980664.171 9 -10868595.06347  21839098.897    21839108.5534
  24835722.156    -1007523.673 7   -777137.26545  24835724.154    24835735.9904
  21760896.115   -16938861.497 9 -13180572.71247  21760898.334    21760906.7724
 00  4  3  2 28 30.0000000  0  7 03 17 06 26 09 21 23
  24518331.399    -1947375.522 7  -1506029.46945  24518328.957    24518339.1614
  20022157.754   -25387139.711 9 -19763788.55548  20022160.878    20022169.4804
  24314716.213    -2983420.071 7  -2304722.40445  24314712.244    24314725.5034
  21295980.682   -18690544.606 9 -14267032.69047  21295985.146    21295992.5134
  21824265.596   -14058593.689 8 -10929319.24647  21824268.838    21824278.8404
  24820935.885    -1085164.746 7   -837636.60445  24820947.515    24820957.2934
  21752256.743   -16984259.729 9 -13215947.91147  21752259.765    21752268.5614
 00  4  3  2 29  0.0000000  0  8 03 17 06 26 09 29 21 23
  24512309.575    -1979015.546 7  -1530684.09045  24512309.988    24512318.0994
  20022043.724   -25387746.981 9 -19764261.75248  20022045.358    20022053.6364
  24333409.834    -2885205.066 7  -2228191.38845  24333403.070    24333416.5644
  21310614.393   -18613654.433 9 -14207118.26647  21310617.115    21310624.1704
  21809511.462   -14136136.455 8 -10989742.06147  21809513.305    21809522.0534
  24554666.573    -1436471.68717  -1107302.46455  24554663.095    24554675.3944
  24806156.585    -1162840.951 7   -898163.35245  24806166.467    24806178.9584
  21743632.688   -17029575.577 9 -13251258.98747  21743636.635    21743645.3574
 00  4  3  2 29 30.0000000  0  8 03 17 06 26 09 29 21 23
  24506385.899    -2010130.830 7  -1554929.87745  24506389.123    24506399.4914
  20022046.826   -25387725.492 9 -19764245.01548  20022049.856    20022057.8134
  24352096.783    -2787004.811 7  -2151671.83345  24352087.421    24352103.6254
  21325301.448   -18536477.091 9 -14146980.09647  21325303.419    21325310.5544
  21794836.087   -14213272.308 9 -11049847.78447  21794834.266    21794844.4344
  24536692.181    -1530868.360 7  -1180858.04645  24536700.779    24536713.8214
  24791379.001    -1240554.785 7   -958719.35745  24791378.375    24791389.2424
  21735031.212   -17074782.089 9 -13286484.67047  21735033.753    21735042.3714
 00  4  3  2 30  0.0000000  0  8 03 17 06 26 09 29 21 23
  24500560.446    -2040723.637 7  -1578768.30345  24500565.483    24500575.8964
  20022169.818   -25387078.869 9 -19763741.21148  20022172.888    20022180.6884
  24370786.135    -2688822.388 7  -2075166.19145  24370773.214    24370787.0654
  21340042.169   -18459006.416 9 -14086613.31847  21340045.374    21340053.3624
  21780231.782   -14289982.216 8 -11109621.61647  21780236.959    21780246.6124
  24518763.025    -1625141.670 7  -1254317.55445  24518759.468    24518773.3234
  24776588.083    -1318295.751 7  -1019296.66945  24776585.069    24776596.2194
  21726454.952   -17119857.933 9 -13321608.67747  21726456.594    21726464.1474
 00  4  3  2 30 30.0000000  0  8 03 17 06 26 09 29 21 23
  24494845.399    -2070807.241 7  -1602210.25245  24494842.514    24494849.8274
  20022405.349   -25385839.872 9 -19762775.75948  20022408.403    20022416.7734
  24389463.120    -2590655.408 7  -1998672.61345  24389452.976    24389467.6224
  21354837.405   -18381252.907 9 -14026026.17947  21354841.120    21354849.4104
  21765719.069   -14366252.430 8 -11169052.84147  21765722.786    21765732.0084
  24500834.652    -1719282.514 7  -1327673.81645  24500845.212    24500857.5064
  24761781.021    -1396045.686 7  -1079880.80345  24761790.389    24761800.7294
  21717905.287   -17164781.999 9 -13356614.33447  21717907.265    21717915.6864
 00  4  3  2 31  0.0000000  0  8 03 17 06 26 09 29 21 23
  24489209.962    -2100386.516 7  -1625259.04245  24489214.055    24489222.7234
  20022747.619   -25384037.284 9 -19761371.13748  20022751.234    20022759.8494
  24408126.583    -2492497.433 7  -1922186.04645  24408131.887    24408145.7614
  21369683.115   -18303235.837 9 -13965233.66347  21369687.064    21369695.4344
  21751290.885   -14442075.605 9 -11228135.72847  21751294.609    21751303.4744
  24482955.893    -1813285.332 7  -1400922.57345  24482957.619    24482970.8994
  24746983.423    -1473811.380 7  -1140477.29445  24746988.647    24747003.0184
  21709386.641   -17209544.736 9 -13391494.28947  21709388.940    21709397.4684
 00  4  3  2 31 30.0000000  0  8 03 17 06 26 09 29 21 23
  24483673.833    -2129460.016 7  -1647913.56345  24483679.976    24483689.5404
  20023195.835   -25381682.870 9 -19759536.54748  20023199.477    20023207.8864
  24426790.562    -2394365.189 7  -1845719.53845  24426805.505    24426819.6084
  21384580.160   -18224953.782 9 -13904234.68347  21384583.185    21384592.0074
  21736948.567   -14517452.591 9 -11286870.92647  21736950.487    21736959.9174
  24465099.502    -1907137.038 7  -1474053.53845  24465098.537    24465110.2924
  24732190.776    -1551593.355 7  -1201086.44945  24732190.496    24732202.0914
  21700897.658   -17254158.400 9 -13426258.24047  21700899.984    21700907.7074
 00  4  3  2 32  0.0000000  0  8 03 17 06 26 09 29 21 23
  24478245.712    -2158030.934 7  -1670176.61045  24478244.247    24478252.0784
  20023750.283   -25378781.146 9 -19757275.47248  20023751.996    20023759.8594
  24445456.729    -2296270.673 7  -1769282.40745  24445471.783    24445488.2984
  21399529.268   -18146403.688 9 -13843026.81347  21399531.534    21399539.3764
  21722687.694   -14592387.711 9 -11345261.80447  21722690.721    21722700.4494
  24447250.239    -2000841.627 7  -1547069.86345  24447264.900    24447278.7984
  24717380.956    -1629397.311 7  -1261712.70145  24717381.986    24717395.7694
  21692431.467   -17298643.553 9 -13460921.99547  21692434.554    21692442.7144
 00  4  3  2 32 30.0000000  0  8 03 17 06 26 09 29 21 23
  24472899.263    -2186094.829 7  -1692044.71345  24472902.769    24472911.7764
  20024405.497   -25375328.378 9 -19754585.01748  20024408.653    20024416.9194
  24464130.075    -2198216.467 7  -1692876.67745  24464132.774    24464147.3914
  21414525.998   -18067588.751 9 -13781612.56847  21414529.052    21414537.5394
  21708511.642   -14666882.045 9 -11403309.22147  21708514.967    21708524.0964
  24429462.644    -2094391.212 7  -1619965.39045  24429462.708    24429475.7594
  24702565.626    -1707241.075 7  -1322370.00045  24702569.637    24702581.1584
  21683990.423   -17343007.337 9 -13495491.17047  21683992.494    21684001.0964
 00  4  3  2 33  0.0000000  0  8 03 17 06 26 09 29 21 23
  24467658.178    -2213644.553 7  -1713512.04245  24467659.359    24467668.2734
  20025171.041   -25371302.955 9 -19751448.33748  20025174.555    20025182.9944
  24482783.949    -2100206.540 8  -1616505.44745  24482784.248    24482796.9284
  21429578.979   -17988499.156 9 -13719984.32747  21429579.654    21429587.7944
  21694416.904   -14740939.044 9 -11461015.85347  21694422.503    21694431.3594
  24411682.312    -2187788.316 7  -1692742.15045  24411690.192    24411704.3724
  24687744.752    -1785145.853 7  -1383074.90445  24687744.110    24687758.4344
  21675568.930   -17387258.159 9 -13529972.29847  21675571.250    21675579.8244
 00  4  3  2 33 30.0000000  0  8 03 17 06 26 09 29 21 23
  24462512.380    -2240681.177 7  -1734579.87245  24462514.872    24462524.7614
  20026051.653   -25366682.618 9 -19747848.06848  20026054.055    20026062.4334
  24501420.927    -2002252.005 7  -1540177.37045  24501423.991    24501437.9394
  21444678.345   -17909137.913 9 -13658144.42047  21444681.708    21444689.9084
  21680409.470   -14814560.914 9 -11518383.44047  21680412.428    21680421.5904
  24393942.544    -2281026.084 7  -1765394.77345  24393946.927    24393959.3514
  24672912.326    -1863107.518 7  -1443824.06945  24672910.074    24672922.4804
  21667167.380   -17431403.534 9 -13564371.18247  21667170.709    21667179.3014
 00  4  3  2 34  0.0000000  0  8 03 17 06 26 09 29 21 23
  24457473.789    -2267210.926 7  -1755252.45645  24457471.720    24457476.3464
  20027046.499   -25361453.678 9 -19743773.57248  20027048.965    20027057.7094
  24520055.282    -1904346.069 7  -1463887.19745  24520053.939    24520066.5034
  21459830.153   -17829523.799 9 -13596107.47447  21459831.641    21459840.2614
  21666484.436   -14887729.238 9 -11575397.60947  21666488.838    21666498.3904
  24376232.817    -2374105.151 7  -1837923.66745  24376235.066    24376249.4724
  24658047.140    -1941113.851 7  -1504608.07545  24658063.980    24658076.9714
  21658791.375   -17475432.940 9 -13598679.81947  21658792.880    21658801.0454
 00  4  3  2 34 30.0000000  0  7 03 17 26 09 29 21 23
  24452507.388    -2293238.734 7  -1775533.75245  24452514.235    24452524.8614
  20028157.589   -25355612.575 9 -19739222.08248  20028160.137    20028169.2174
  21475023.131   -17749666.824 9 -13533881.24947  21475028.075    21475035.9064
  21652647.753   -14960445.215 9 -11632059.31847  21652651.681    21652661.1294
  24358559.072    -2466999.528 7  -1910308.66445  24358558.322    24358571.3384
  24643204.991    -2019159.498 7  -1565422.68245  24643212.652    24643226.5474
  21650435.488   -17519336.970 9 -13632890.79647  21650437.754    21650446.0664
 00  4  3  2 35  0.0000000  0  7 03 17 26 09 29 21 23
  24447655.711    -2318763.969 8  -1795423.56745  24447658.170    24447667.1584
  20029386.240   -25349153.758 9 -19734189.25548  20029389.544    20029398.4324
  21490263.276   -17669567.227 9 -13471466.00547  21490270.332    21490277.9834
  21638894.849   -15032717.620 9 -11688375.38047  21638898.766    21638907.4874
  24340908.059    -2559717.304 8  -1982556.05845  24340913.789    24340925.5164
  24628357.016    -2097222.203 7  -1626250.61745  24628357.009    24628370.0834
  21642104.791   -17563112.655 9 -13667001.55247  21642107.576    21642115.7804
 00  4  3  2 35 30.0000000  0  7 03 17 26 09 29 21 23
  24442901.995    -2343780.828 8  -1814917.11245  24442897.161    24442905.7544
  20030731.890   -25342082.484 9 -19728679.16648  20030735.348    20030743.8444
  21505553.152   -17589230.960 9 -13408866.33047  21505558.262    21505565.5844
  21625227.771   -15104547.763 9 -11744346.83747  21625229.549    21625238.0084
  24323302.872    -2652264.430 8  -2054670.49545  24323304.681    24323314.7084
  24613489.480    -2175296.459 7  -1687087.60245  24613500.557    24613512.6864
  21633796.665   -17606773.045 9 -13701022.92747  21633799.556    21633808.0334
 00  4  3  2 36  0.0000000  0  7 03 17 26 09 29 21 23
  24438226.901    -2368282.979 7  -1834009.61345  24438234.212    24438244.3454
  20032191.793   -25334414.850 9 -19722704.38548  20032194.555    20032202.8074
  21520888.812   -17508656.596 9 -13346081.11847  21520891.066    21520898.7024
  21611642.324   -15175933.283 9 -11799971.83147  21611645.252    21611653.9304
  24305724.080    -2744652.513 8  -2126660.98245  24305723.377    24305733.7384
  24598642.177    -2253388.485 7  -1747938.33245  24598640.529    24598652.4544
  21625509.989   -17650320.684 9 -13734956.14147  21625512.918    21625520.4174
 00  4  3  2 36 30.0000000  0  7 03 17 26 09 29 21 23
  24433667.815    -2392259.053 8  -1852692.11545  24433671.994    24433680.9094
  20033764.304   -25326154.755 9 -19716267.95948  20033766.348    20033774.5314
  21536265.892   -17427834.374 9 -13283102.74547  21536271.175    21536278.0314
  21598135.467   -15246898.893 9 -11855269.62347  21598140.534    21598149.7864
  24288166.738    -2836886.527 7  -2198531.42045  24288170.697    24288181.8534
  24583771.589    -2331504.780 7  -1808808.03345  24583774.679    24583787.1514
  21617244.194   -17693757.765 9 -13768802.90747  21617246.467    21617254.5484
 00  4  3  2 37  0.0000000  0  7 03 17 26 09 29 21 23
  24429206.822    -2415691.036 7  -1870950.79145  24429211.185    24429223.0974
  20035448.381   -25317300.060 9 -19709368.21048  20035451.279    20035459.6044
  21551695.056   -17346770.871 9 -13219936.37347  21551696.917    21551703.7654
  21584716.011   -15317424.389 9 -11910224.46547  21584719.772    21584728.6074
  24270635.777    -2928994.482 7  -2270303.65545  24270641.987    24270654.9604
  24568908.843    -2409643.393 7  -1869695.13745  24568906.108    24568917.8244
  21608997.132   -17737093.953 9 -13802571.27647  21608999.880    21609008.3964
 00  4  3  2 37 30.0000000  0  7 03 17 26 09 29 21 23
  24424859.756    -2438579.246 7  -1888785.79045  24424857.656    24424868.0254
  20037245.878   -25307850.018 9 -19702004.56548  20037249.638    20037257.8874
  21567164.890   -17265475.216 9 -13156589.11247  21567166.166    21567173.7364
  21571388.401   -15387481.884 9 -11964814.63947  21571388.574    21571398.2314
  24253139.109    -3020959.999 7  -2341964.82045  24253141.470    24253153.0304
  24554021.042    -2487819.251 7  -1930611.23145  24554026.547    24554041.7044
  21600769.847   -17780334.877 9 -13836265.64947  21600771.471    21600779.8164
 00  4  3  2 38  0.0000000  0  7 03 17 26 09 29 21 23
  24420602.712    -2460927.473 8  -1906200.03745  24420605.763    24420613.0964
  20039162.354   -25297789.659 9 -19694165.35348  20039164.015    20039172.4954
  21582678.034   -17183946.565 9 -13093060.25347  21582681.033    21582688.4364
  21558145.150   -15457061.035 9 -12019032.05647  21558148.231    21558157.1084
  24235669.151    -3112775.021 7  -2413508.77445  24235668.849    24235682.3764
  24539141.199    -2566016.055 7  -1991543.68445  24539147.682    24539160.5584
  21592561.292   -17823453.819 9 -13869865.01847  21592566.341    21592574.5024
 00  4  3  2 38 30.0000000  0  7 03 17 26 09 29 21 23
  24416450.760    -2482743.466 7  -1923199.69145  24416452.749    24416462.1784
  20041195.187   -25287100.793 9 -19685836.38748  20041198.251    20041206.4284
  21598239.299   -17102187.056 9 -13029351.54547  21598239.915    21598246.9664
  21544998.787   -15526144.049 9 -12072862.89247  21545002.140    21545011.2394
  24218217.970    -3204424.365 7  -2484923.56445  24218228.695    24218242.0004
  24524262.121    -2644224.563 7  -2052485.26945  24524265.590    24524278.0524
  21584385.147   -17866438.295 9 -13903359.19347  21584386.701    21584394.5464
 00  4  3  2 39  0.0000000  0  7 03 17 26 09 29 21 23
  24412397.427    -2504036.482 8  -1939791.73145  24412402.500    24412411.0814
  20043349.080   -25275787.758 9 -19677021.05248  20043351.021    20043359.2964
  21613837.795   -17020193.773 9 -12965460.66947  21613842.628    21613849.5804
  21531954.622   -15594708.206 9 -12126289.42347  21531954.658    21531963.5014
  24200817.425    -3295901.649 7  -2556204.37745  24200821.576    24200833.6104
  24509369.097    -2722457.839 7  -2113446.04245  24509377.357    24509389.3734
  21576229.985   -17909287.679 9 -13936748.30647  21576232.942    21576240.5674
 00  4  3  2 39 30.0000000  0  7 03 17 26 09 29 21 23
  24408452.507    -2524824.036 8  -1955989.92345  24408446.889    24408456.0754
  20045619.240   -25263853.679 9 -19667721.78348  20045622.027    20045630.2474
  21629489.623   -16937960.817 9 -12901383.00847  21629490.985    21629497.9194
  21518998.626   -15662774.283 9 -12179327.84347  21519001.908    21519010.8384
  24183446.256    -3387191.122 7  -2627338.82645  24183451.043    24183461.5164
  24494484.808    -2800728.670 7  -2174436.13345  24494483.704    24494495.9084
  21568101.888   -17951997.751 9 -13970028.87947  21568105.000    21568112.8264
 00  4  3  2 40  0.0000000  0  7 03 17 26 09 29 21 23
  24404575.304    -2545111.219 7  -1971798.18545  24404584.389    24404593.9434
  20048003.562   -25251321.041 9 -19657956.10348  20048007.005    20048015.1054
  21645180.068   -16855488.374 8 -12837118.72947  21645184.363    21645191.9824
  21506139.687   -15730358.771 9 -12231991.01847  21506141.246    21506149.7324
  24166110.668    -3478300.748 7  -2698333.08745  24166113.311    24166124.3234
  24479580.966    -2879029.559 7  -2235449.59545  24479584.076    24479595.8954
  21560000.284   -17994568.677 9 -14003201.00247  21560004.506    21560012.1164
 00  4  3  2 40 30.0000000  0  7 03 17 26 09 29 21 23
  24400814.102    -2564893.979 7  -1987213.39845  24400820.370    24400831.3324
  20050498.512   -25238211.997 9 -19647741.28048  20050501.644    20050509.7214
  21660918.434   -16772784.224 9 -12772673.93247  21660922.586    21660929.8594
  21493371.784   -15797456.054 9 -12284274.53847  21493372.882    21493381.7384
  24148803.297    -3569239.329 7  -2769194.08845  24148807.055    24148818.2924
  24464672.618    -2957374.815 7  -2296497.70945  24464674.559    24464686.8214
  21551921.243   -18037025.076 9 -14036283.82247  21551925.033    21551932.7204
 00  4  3  2 41  0.0000000  0  7 03 17 26 09 29 21 23
  24397144.171    -2584164.712 7  -2002229.69545  24397152.567    24397163.7004
  20053102.870   -25224533.178 9 -19637082.47048  20053104.481    20053112.6984
  21676702.568   -16689848.260 8 -12708048.51547  21676704.621    21676711.7984
  21480690.438   -15864076.086 9 -12336186.16847  21480695.076    21480704.7794
  24131532.895    -3660022.115 8  -2839933.71245  24131531.956    24131543.6254
  24449761.146    -3035764.316 8  -2357580.26345  24449759.412    24449768.8574
  21543862.696   -18079374.744 9 -14069283.66347  21543865.866    21543873.5904
 00  4  3  2 41 30.0000000  0  7 03 17 26 09 29 21 23
  24393580.459    -2602925.381 7  -2016848.41045  24393585.021    24393593.7674
  20055812.556   -25210281.830 9 -19625977.52548  20055816.141    20055824.6714
  21692525.942   -16606688.497 8 -12643248.69547  21692529.653    21692537.0864
  21468101.086   -15930222.007 8 -12387728.36747  21468107.334    21468117.5244
  24114287.692    -3750652.651 7  -2910554.71845  24114284.259    24114295.6394
  24434823.971    -3114169.584 7  -2418675.03245  24434837.202    24434849.8164
  21535825.763   -18121612.824 9 -14102196.41447  21535828.136    21535836.5674
 00  4  3  2 42  0.0000000  0  7 03 17 26 09 29 21 23
  24390109.081    -2621168.929 7  -2031064.20245  24390113.360    24390122.8734
  20058636.855   -25195443.856 9 -19614415.47548  20058639.764    20058648.0864
  21708392.821   -16523306.292 8 -12578275.52347  21708397.096    21708404.4734
  21455611.242   -15995874.982 9 -12438886.45347  21455614.755    21455623.6814
  24097062.080    -3841131.722 8  -2981057.70445  24097068.042    24097078.7044
  24419907.717    -3192572.627 7  -2479768.16345  24419917.059    24419928.2244
  21527808.311   -18163732.512 9 -14135016.99647  21527813.051    21527821.2494
 00  4  3  2 42 30.0000000  0  7 03 17 26 09 29 21 23
  24386735.905    -2638891.725 7  -2044874.29545  24386740.569    24386749.1584
  20061577.253   -25179993.716 9 -19602376.42748  20061580.014    20061588.1504
  21724300.012   -16439700.009 8 -12513127.76647  21724306.157    21724314.2414
  21443215.151   -16061031.594 9 -12489657.76347  21443215.831    21443224.3734
  24079876.531    -3931454.797 7  -3051439.09145  24079879.216    24079890.7664
  24405000.401    -3270982.939 8  -2540866.95645  24404996.767    24405008.0954
  21519818.855   -18205725.895 9 -14167738.97747  21519822.542    21519829.5124
 00  4  3  2 43  0.0000000  0  7 03 17 26 09 29 21 23
  24383465.104    -2656101.879 7  -2058284.91145  24383464.533    24383474.3044
  20064635.214   -25163920.293 9 -19589851.69748  20064638.952    20064646.7034
  21740254.023   -16355873.063 8 -12447808.08047  21740257.792    21740266.1424
  21430904.591   -16125708.015 9 -12540054.90747  21430907.853    21430916.3784
  24062711.830    -4021608.880 7  -3121688.83645  24062723.203    24062735.2954
  24390074.166    -3349402.087 7  -2601972.66245  24390073.337    24390085.7904
  21511857.564   -18247578.739 9 -14200351.54547  21511857.912    21511865.2894
 00  4  3  2 43 30.0000000  0  7 03 17 26 09 29 21 23
  24380287.760    -2672795.411 7  -2071292.93045  24380289.225    24380299.5804
  20067811.171   -25147233.011 9 -19576848.64648  20067814.230    20067822.6504
  21756248.153   -16271834.637 8 -12382323.59547  21756249.547    21756257.9344
  21418686.215   -16189905.774 9 -12590079.06047  21418691.950    21418699.9664
  24045603.808    -4111572.842 7  -3191790.43045  24045602.780    24045614.9024
  24375146.014    -3427838.669 8  -2663091.91045  24375148.287    24375159.0074
  21503919.233   -18289282.968 9 -14232848.35547  21503921.742    21503929.3884
 00  4  3  2 44  0.0000000  0  7 03 17 26 09 29 21 23
  24377210.942    -2688962.936 7  -2083891.11645  24377212.515    24377222.1554
  20071103.983   -25129923.956 9 -19563361.09848  20071108.002    20071116.5764
  21772279.085   -16187596.318 8 -12316683.35247  21772280.588    21772287.3734
  21406565.927   -16253620.380 9 -12639726.74747  21406567.137    21406576.1324
  24028517.555    -4201333.294 7  -3261733.45645  24028523.212    24028534.0514
  24360210.096    -3506321.057 8  -2724246.82745  24360213.352    24360223.3044
  21496007.816   -18330846.035 9 -14265234.90947  21496012.389    21496020.0154
 00  4  3  2 44 30.0000000  0  7 03 17 26 09 29 21 23
  24374234.252    -2704603.609 7  -2096078.70045  24374235.814    24374245.6354
  20074512.200   -25112014.418 9 -19549405.63448  20074516.237    20074524.3124
  21788340.986   -16103171.930 9 -12250898.13047  21788346.356    21788353.1514
  21394531.050   -16316860.654 9 -12689004.81847  21394532.932    21394541.2394
  24011468.351    -4290893.248 7  -3331520.25845  24011478.751    24011492.5024
  24345261.245    -3584857.904 8  -2785444.20945  24345268.960    24345278.6034
  21488131.732   -18372267.624 9 -14297511.84947  21488130.796    21488137.9224
 00  4  3  2 45  0.0000000  0  7 03 17 26 09 29 21 23
  24371356.227    -2719717.641 7  -2107855.94245  24371360.022    24371368.4214
  20078032.970   -25093519.541 9 -19534994.06048  20078035.545    20078043.5624
  21804446.879   -16018563.013 9 -12184969.08347  21804446.786    21804454.2004
  21382584.507   -16379614.197 9 -12737903.62047  21382591.215    21382599.5204
  23994474.856    -4380257.745 8  -3401154.77545  23994474.668    23994483.8154
  24330313.816    -3663438.742 8  -2846675.85845  24330316.514    24330325.7274
  21480272.473   -18413540.372 9 -14329672.34247  21480276.066    21480283.6874
 00  4  3  2 45 30.0000000  0  7 03 17 26 09 29 21 23
  24368577.898    -2734296.434 7  -2119216.12045  24368586.880    24368594.8194
  20081664.090   -25074435.449 9 -19520123.35948  20081667.306    20081675.2684
  21820582.211   -15933770.384 9 -12118896.93647  21820581.992    21820589.6254
  21370740.506   -16441863.698 9 -12786409.66547  21370745.168    21370753.9654
  23977504.208    -4469430.315 8  -3470639.71445  23977504.730    23977516.0454
  24315347.182    -3742048.180 7  -2907929.76645  24315355.369    24315366.9184
  21472445.699   -18454671.909 9 -14361722.82547  21472449.066    21472457.1774
 00  4  3  2 46  0.0000000  0  7 03 17 26 09 29 21 23
  24365907.290    -2748348.479 7  -2130165.78445  24365911.115    24365921.8204
  20085410.061   -25054751.584 9 -19504785.28748  20085413.028    20085421.1214
  21836750.066   -15848793.471 9 -12052681.15047  21836752.366    21836760.3344
  21358996.179   -16503602.552 9 -12834517.80347  21358996.897    21359005.7354
  23960566.755    -4558434.509 8  -3539993.48745  23960568.074    23960578.2584
  24300383.034    -3820673.234 7  -2969195.88345  24300392.934    24300405.0194
  21464644.541   -18495670.457 9 -14393669.67047  21464647.704    21464654.9224
 00  4  3  2 46 30.0000000  0  7 03 17 26 09 29 21 23
  24363337.727    -2761873.266 7  -2140704.63845  24363337.190    24363348.1314
  20089267.724   -25034471.199 9 -19488982.41148  20089272.131    20089280.5844
  21852956.754   -15763613.437 8 -11986307.09947  21852961.504    21852969.3264
  21347345.670   -16564831.673 9 -12882228.73747  21347345.286    21347354.3574
  23943655.762    -4647288.172 8  -3609229.96945  23943660.103    23943671.3404
  24285426.348    -3899298.085 8  -3030461.82345  24285430.966    24285443.3934
  21456872.001   -18536530.275 9 -14425508.39848  21456872.406    21456880.0794
 00  4  3  2 47  0.0000000  0  7 03 17 26 09 29 21 23
  24360857.299    -2774869.223 7  -2150831.33745  24360864.211    24360875.2394
  20093245.793   -25013572.226 9 -19472697.52148  20093249.166    20093257.2724
  21869206.092   -15678217.657 8 -11919764.93947  21869211.056    21869219.7084
  21335790.040   -16625544.175 9 -12929537.11847  21335792.217    21335800.7674
  23926782.969    -4735977.319 7  -3678338.22345  23926780.214    23926793.4834
  24270461.889    -3977916.647 8  -3091722.98545  24270470.275    24270482.0694
  21449117.286   -18577254.240 9 -14457241.37947  21449122.224    21449130.0294
 00  4  3  2 47 30.0000000  0  7 03 17 26 09 29 21 23
  24358495.299    -2787335.023 7  -2160544.95145  24358492.467    24358503.2914
  20097343.501   -24992038.089 9 -19455917.69448  20097346.846    20097354.9904
  21885498.065   -15592610.988 8 -11853058.44847  21885502.448    21885510.1654
  21324336.834   -16685734.939 9 -12976438.94847  21324338.058    21324346.1564
  23909934.168    -4824494.454 8  -3747312.46745  23909937.961    23909949.5534
  24255501.934    -4056541.144 8  -3152988.72845  24255509.423    24255520.2914
  21441396.183   -18617851.558 9 -14488875.57647  21441397.119    21441405.0314
 00  4  3  2 48  0.0000000  0  7 03 17 26 09 29 21 23
  24356212.451    -2799272.794 7  -2169847.10745  24356220.515    24356231.1674
  20101560.643   -24969877.837 9 -19438649.97948  20101563.740    20101571.8234
  21901832.337   -15506793.850 8 -11786187.94047  21901832.701    21901840.0544
  21312982.189   -16745400.331 9 -13022931.40247  21312983.766    21312992.7524
  23893111.140    -4912841.168 7  -3816153.93745  23893125.250    23893136.7214
  24240534.788    -4135188.982 7  -3214272.58745  24240542.813    24240554.3304
  21433690.042   -18658321.968 9 -14520410.76548  21433695.811    21433703.6774
 00  4  3  2 48 30.0000000  0  7 03 17 26 09 29 21 23
  24354046.627    -2810679.888 7  -2178735.83945  24354050.314    24354060.5564
  20105895.951   -24947095.137 9 -19420897.23648  20105899.322    20105907.5684
  21918201.797   -15420764.164 8 -11719151.86147  21918203.857    21918210.4164
  21301728.604   -16804534.183 9 -13069009.64747  21301731.151    21301740.3584
  23876347.656    -5000997.712 8  -3884847.19745  23876350.426    23876361.0884
  24225566.355    -4213862.323 8  -3275576.32545  24225570.738    24225583.5984
  21426018.495   -18698661.887 9 -14551844.73648  21426019.383    21426028.1804
 00  4  3  2 49  0.0000000  0  7 03 17 26 09 29 21 23
  24351975.969    -2821567.590 7  -2187219.88045  24351978.954    24351988.2224
  20110347.389   -24923706.472 9 -19402672.32148  20110349.914    20110358.4294
  21934610.455   -15334544.333 8 -11651967.55147  21934611.051    21934617.8474
  21290577.946   -16863132.278 9 -13114670.43147  21290580.154    21290589.6464
  23859609.575    -5088954.969 8  -3953385.20445  23859612.427    23859623.8764
  24210591.490    -4292565.793 8  -3336903.46845  24210594.283    24210605.2794
  21418363.101   -18738877.874 9 -14583181.96748  21418366.512    21418374.2144
 00  4  3  2 49 30.0000000  0  7 03 17 26 09 29 21 23
  24350000.948    -2831936.234 7  -2195299.40945  24350003.797    24350014.9814
  20114908.838   -24899732.929 9 -19383991.66848  20114911.958    20114920.5094
  21951046.041   -15248150.932 8 -11584648.02447  21951051.074    21951058.3834
  21279529.025   -16921195.391 9 -13159914.34947  21279531.269    21279539.9244
  23842911.787    -5176725.429 8  -4021777.62345  23842910.357    23842922.1474
  24195603.024    -4371310.003 8  -3398262.49945  24195611.427    24195623.1194
  21410733.081   -18778976.413 9 -14614427.55647  21410736.109    21410743.9434
 00  4  3  2 50  0.0000000  0  7 03 17 26 09 29 21 23
  24348133.362    -2841786.049 7  -2202974.63545  24348132.325    24348141.0324
  20119577.821   -24875185.980 9 -19364864.19248  20119582.690    20119591.5464
  21967524.903   -15161581.527 8 -11517191.37747  21967524.365    21967531.6974
  21268574.910   -16978734.956 9 -13204750.31847  21268581.766    21268590.5044
  23826235.211    -5264307.813 7  -4090023.49545  23826243.084    23826253.7074
  24180618.403    -4450077.075 8  -3459639.38245  24180620.806    24180632.6224
  21403124.811   -18818957.795 9 -14645581.81947  21403127.525    21403136.0844
 00  4  3  2 50 30.0000000  0  7 03 17 26 09 29 21 23
  24346352.771    -2851120.651 7  -2210248.34745  24346352.998    24346363.5174
  20124360.224   -24850063.351 9 -19345288.14848  20124363.476    20124372.1174
  21984026.513   -15074837.807 8 -11449598.88747  21984031.343    21984039.0404
  21257730.177   -17035755.234 9 -13249181.63047  21257731.343    21257740.0504
  23809613.338    -5351703.416 8  -4158123.82245  23809612.124    23809623.9484
  24165625.172    -4528865.672 8  -3521032.93845  24165627.606    24165638.7794
  21395540.811   -18858810.573 9 -14676635.96347  21395544.129    21395552.2304
 00  4  3  2 51  0.0000000  0  7 03 17 26 09 29 21 23
  24344673.594    -2859938.630 7  -2217119.60145  24344676.953    24344685.7624
  20129252.634   -24824358.687 9 -19325258.55948  20129255.220    20129263.3684
  22000564.431   -14987937.146 8 -11381884.08447  22000567.579    22000575.6974
  21246973.837   -17092256.424 9 -13293208.46847  21246979.211    21246987.7474
  23793010.244    -5438917.304 7  -4226082.58745  23793014.902    23793028.2594
  24150617.158    -4607689.319 8  -3582453.80445  24150628.010    24150638.9564
  21387984.835   -18898529.149 9 -14707585.31348  21387985.958    21387993.7494
 00  4  3  2 51 30.0000000  0  7 03 17 26 09 29 21 23
  24343089.335    -2868232.854 7  -2223582.59545  24343097.024    24343106.5694
  20134259.696   -24798047.905 9 -19304756.66348  20134262.155    20134270.3764
  22017133.444   -14900869.370 8 -11314039.05047  22017136.398    22017143.9014
  21236325.736   -17148222.852 9 -13336818.61147  21236329.107    21236337.6924
  23776449.524    -5525951.213 8  -4293901.12245  23776453.936    23776464.6734
  24135623.532    -4686547.339 8  -3643901.51345  24135621.687    24135631.8714
  21380452.261   -18938103.848 9 -14738422.86047  21380455.054    21380462.8354
 00  4  3  2 52  0.0000000  0  7 03 17 26 09 29 21 23
  24341617.483    -2876006.325 7  -2229639.86145  24341619.523    24341629.5294
  20139381.587   -24771125.302 9 -19283778.02748  20139385.097    20139393.5964
  22033730.272   -14813632.129 8 -11246061.94247  22033736.485    22033744.1834
  21225779.971   -17203646.089 9 -13380005.48847  21225782.764    21225790.6684
  23759928.811    -5612804.179 8  -4361578.62845  23759925.906    23759938.0614
  24120610.913    -4765432.881 8  -3705370.70445  24120610.273    24120620.7264
  21372948.938   -18977526.265 9 -14769141.66447  21372952.954    21372961.2834
 00  4  3  2 52 30.0000000  0  7 03 17 26 09 29 21 23
  24340234.002    -2883260.030 7  -2235292.08545  24340238.148    24340248.3524
  20144621.195   -24743593.951 9 -19262325.04748  20144624.231    20144632.7324
  22050366.402   -14726233.361 8 -11177959.04847  22050368.072    22050375.6564
  21215336.837   -17258506.683 9 -13422753.94047  21215342.986    21215351.4544
  23743427.245    -5699471.814 8  -4429111.70445  23743434.677    23743445.9464
  24105584.348    -4844360.163 8  -3766872.37145  24105590.492    24105600.6474
  21365479.889   -19016787.793 9 -14799735.02747  21365481.916    21365489.8414
 00  4  3  2 53  0.0000000  0  7 03 17 26 09 29 21 23
  24338949.574    -2889987.269 7  -2240534.15545  24338957.072    24338968.4784
  20149978.337   -24715446.894 9 -19240392.29348  20149980.709    20149988.8084
  22067030.007   -14638677.446 8 -11109733.65246  22067029.579    22067036.7124
  21205007.802   -17312797.113 9 -13465058.10247  21205011.766    21205020.2324
  23726968.860    -5785942.849 8  -4496491.58345  23726978.911    23726990.4914
  24090565.708    -4923312.344 8  -3828393.48545  24090565.580    24090577.7134
  21358033.487   -19055908.308 9 -14830218.53247  21358037.712    21358045.3944
 00  4  3  2 53 30.0000000  0  7 03 17 26 09 29 21 23
  24337775.834    -2896185.463 7  -2245363.96845  24337780.998    24337789.9474
  20155451.267   -24686694.488 9 -19217987.83648  20155452.415    20155460.1874
  22083721.865   -14550943.155 8 -11041369.27547  22083725.156    22083732.2644
  21194785.488   -17366513.530 9 -13506914.98447  21194789.426    21194797.9094
  23710562.431    -5872210.777 8  -4563713.19645  23710563.340    23710573.5604
  24075539.136    -5002270.601 8  -3889919.25145  24075542.223    24075552.1704
  21350616.282   -19094895.453 9 -14860598.11847  21350618.579    21350626.4484
 00  4  3  2 54  0.0000000  0  7 03 17 26 09 29 21 23
  24336694.256    -2901860.921 7  -2249786.51645  24336699.386    24336709.5094
  20161033.401   -24657346.514 9 -19195119.29148  20161037.023    20161044.9544
  22100449.879   -14463040.236 8 -10972873.52147  22100452.790    22100460.6764
  21184672.890   -17419672.808 9 -13548337.73947  21184673.679    21184681.9804
  23694182.398    -5958269.753 8  -4630772.02545  23694186.648    23694196.6814
  24060508.838    -5081228.611 8  -3951444.86545  24060516.929    24060526.8964
  21343223.733   -19133748.012 9 -14890872.83147  21343225.012    21343233.1834
 00  4  3  2 54 30.0000000  0  7 03 17 26 09 29 21 23
  24335715.589    -2907018.888 7  -2253805.77345  24335718.067    24335727.4384
  20166734.493   -24627388.525 9 -19171775.41848  20166737.881    20166745.7284
  22117212.946   -14374968.817 8 -10904246.45647  22117211.827    22117219.3364
  21174661.617   -17472278.635 9 -13589329.24147  21174663.502    21174671.4224
  23677849.438    -6044123.604 8  -4697670.97745  23677848.956    23677859.1674
  24045488.213    -5160181.771 8  -4012966.67145  24045492.299    24045502.2044
  21335853.362   -19172469.001 9 -14921045.00347  21335856.718    21335864.4354
 00  4  3  2 55  0.0000000  0  7 03 17 26 09 29 21 23
  24334832.866    -2911663.394 7  -2257425.00845  24334833.887    24334845.6774
  20172553.004   -24596811.630 9 -19147949.28648  20172556.532    20172564.5754
  22134000.590   -14286729.559 8 -10835488.62047  22134003.416    22134010.7914
  21164751.170   -17524347.251 9 -13629902.12547  21164754.445    21164763.1634
  23661540.161    -6129781.594 8  -4764417.29445  23661547.554    23661560.0164
  24030473.379    -5239122.865 8  -4074479.08946  24030471.682    24030480.7004
  21328508.559   -19211066.226 9 -14951120.68847  21328512.048    21328519.8034
 00  4  3  2 55 30.0000000  0  7 03 17 26 09 29 21 23
  24334040.637    -2915811.419 7  -2260657.33645  24334043.570    24334055.5674
  20178490.114   -24565622.339 9 -19123645.96848  20178491.672    20178499.6664
  22150826.517   -14198324.364 8 -10766601.46447  22150826.241    22150833.5974
  21154946.859   -17575886.645 9 -13670062.63547  21154947.467    21154955.5674
  23645281.719    -6215250.802 8  -4831016.53045  23645284.475    23645295.9424
  24015442.473    -5318070.625 8  -4135996.84446  24015447.894    24015457.6434
  21321190.626   -19249518.630 9 -14981083.58747  21321194.627    21321202.3464
 00  4  3  2 56  0.0000000  0  7 03 17 26 09 29 21 23
  24333346.898    -2919472.075 7  -2263509.99945  24333347.713    24333358.8164
  20184542.022   -24533811.650 9 -19098858.43648  20184544.857    20184552.9574
  22167672.982   -14109775.993 8 -10697602.74746  22167676.272    22167684.4124
  21145237.052   -17626897.571 9 -13709811.34947  21145240.233    21145248.5764
  23629050.198    -6300539.294 8  -4897474.96346  23629054.738    23629064.8574
  24000411.454    -5397038.860 8  -4197530.52746  24000419.263    24000430.8164
  21313902.167   -19287824.243 9 -15010932.08347  21313905.364    21313913.3064
 00  4  3  2 56 30.0000000  0  7 03 17 26 09 29 21 23
  24332747.083    -2922631.175 7  -2265971.79745  24332745.863    24332757.6374
  20190713.927   -24501380.433 9 -19073587.37448  20190716.247    20190724.3654
  22184547.592   -14021082.822 8 -10628491.19646  22184553.677    22184561.8014
  21135632.430   -17677367.150 9 -13749138.23647  21135635.840    21135644.4294
  23612853.112    -6385647.935 8  -4963793.25746  23612858.111    23612870.3464
  23985379.209    -5476041.505 8  -4259090.94145  23985386.334    23985396.2694
  21306642.354   -19325981.923 9 -15040665.30347  21306644.039    21306651.9234
 00  4  3  2 57  0.0000000  0  7 03 17 26 09 29 21 23
  24332238.772    -2925278.973 7  -2268035.15645  24332244.583    24332254.4124
  20196999.887   -24468347.019 9 -19047847.06848  20197002.335    20197010.5274
  22201456.620   -13932243.211 8 -10559265.51046  22201459.550    22201467.9434
  21126134.060   -17727291.671 9 -13788040.39847  21126135.788    21126144.1604
  23596692.604    -6470564.230 8  -5029961.64645  23596698.203    23596710.5414
  23970350.033    -5555079.019 8  -4320678.54345  23970346.140    23970356.7334
  21299410.087   -19363981.631 9 -15070275.42547  21299412.881    21299420.9374
 00  4  3  2 57 30.0000000  0  7 03 17 26 09 29 21 23
  24331834.304    -2927412.439 7  -2269697.63345  24331837.186    24331847.1034
  20203399.751   -24434718.639 9 -19021643.15948  20203402.054    20203409.8774
  22218388.577   -13843264.654 8 -10489931.54646  22218391.441    22218399.8104
  21116738.191   -17776650.841 9 -13826502.02247  21116743.204    21116751.3304
  23580573.245    -6555287.125 8  -5095979.29345  23580576.743    23580587.9164
  23955297.054    -5634146.305 8  -4382289.25146  23955299.599    23955310.1494
  21292209.767   -19401815.495 9 -15099756.34047  21292213.562    21292221.0924
 00  4  3  2 58  0.0000000  0  7 03 17 26 09 29 21 23
  24331513.454    -2929013.515 7  -2270945.40345  24331530.974    24331543.0114
  20209909.664   -24400500.038 9 -18994979.33248  20209913.712    20209921.5434
  22235344.364   -13754153.188 8 -10420494.02946  22235348.559    22235357.1514
  21107460.340   -17825426.154 9 -13864508.71047  21107461.199    21107469.8994
  23564492.748    -6639811.362 8  -5161842.18045  23564492.405    23564502.3144
  23940249.827    -5713221.850 8  -4443906.52946  23940252.564    23940263.1254
  21285041.100   -19439490.910 9 -15129113.77847  21285043.604    21285051.7394
 00  4  3  2 58 30.0000000  0  7 03 17 26 09 29 21 23
  24331331.784    -2930076.186 7  -2271773.63745  24331330.998    24331341.0734
  20216532.296   -24365697.297 9 -18967860.33548  20216536.366    20216544.3324
  22252330.043   -13664901.400 8 -10350947.20846  22252332.607    22252341.3654
  21098287.761   -17873614.433 9 -13902057.97447  21098291.481    21098299.7054
  23548439.296    -6724132.488 8  -5227546.77745  23548447.083    23548456.8804
  23925206.461    -5792286.529 8  -4505515.13446  23925207.319    23925216.7124
  21277900.704   -19477008.520 9 -15158348.24647  21277904.118    21277912.2564
 00  4  3  2 59  0.0000000  0  7 03 17 26 09 29 21 23
  24331227.372    -2930620.373 7  -2272197.93645  24331228.172    24331237.1934
  20223267.087   -24330309.637 9 -18940285.54448  20223270.126    20223278.3074
  22269337.319   -13575521.361 8 -10281300.41346  22269341.233    22269349.9364
  21089229.982   -17921214.937 9 -13939149.22347  21089232.803    21089241.4814
  23532438.261    -6808254.599 8  -5293096.30645  23532438.581    23532448.0984
  23910157.182    -5871325.185 8  -4567103.47845  23910164.158    23910175.1204
  21270786.998   -19514386.451 9 -15187473.87447  21270791.519    21270799.1334
 00  4  3  2 59 30.0000000  0  7 03 17 26 09 29 21 23
  24331228.037    -2930640.685 7  -2272213.89345  24331223.769    24331234.1954
  20230115.589   -24294324.235 9 -18912244.99248  20230117.926    20230126.1954
  22286369.354   -13486022.214 8 -10211560.77047  22286372.701    22286380.9334
  21080281.446   -17968236.095 9 -13975789.02547  21080284.799    21080293.2914
  23516470.429    -6892173.866 8  -5358487.76645  23516469.797    23516478.7174
  23895121.418    -5950353.388 8  -4628683.66345  23895125.775    23895137.0204
  21263700.536   -19551636.731 9 -15216500.05047  21263702.949    21263710.7974
 00  4  3  3  0  0.0000000  0  7 03 17 26 09 29 21 23
  24331312.525    -2930137.732 7  -2271822.05645  24331320.696    24331329.1814
  20237079.152   -24257731.610 9 -18883731.27748  20237081.099    20237089.4294
  22303424.120   -13396391.270 8 -10141718.49746  22303429.390    22303436.9284
  21071441.771   -18014701.608 9 -14011995.85447  21071443.376    21071450.8904
  23500537.717    -6975877.855 8  -5423711.52145  23500540.862    23500550.7134
  23880086.163    -6029388.342 8  -4690269.08645  23880087.065    23880096.5234
  21256636.993   -19588756.394 9 -15245424.42347  21256639.521    21256647.1384
 00  4  3  3  0 30.0000000  0  7 03 17 26 09 29 21 23
  24331505.894    -2929121.113 7  -2271030.07145  24331511.932    24331523.2824
  20244157.914   -24220519.671 9 -18854734.98648  20244162.433    20244170.4674
  22320507.481   -13306621.953 8 -10071768.38346  22320511.394    22320518.8274
  21062702.055   -18060623.604 9 -14047779.17647  21062704.308    21062712.5354
  23484648.408    -7059374.479 8  -5488773.69745  23484651.710    23484661.5024
  23865038.645    -6108454.550 8  -4751878.90145  23865040.284    23865050.7124
  21249598.356   -19625746.424 9 -15274247.79447  21249600.111    21249608.1894
 00  4  3  3  1  0.0000000  0  7 03 17 26 09 29 21 23
  24331800.930    -2927586.049 7  -2269834.03845  24331805.683    24331814.7164
  20251360.371   -24182682.041 9 -18825251.14148  20251363.129    20251370.9234
  22337617.183   -13216709.674 8 -10001706.90046  22337621.516    22337627.9354
  21054063.380   -18106003.157 9 -14083139.80747  21054068.811    21054077.7214
  23468801.835    -7142657.786 8  -5553669.66245  23468802.837    23468813.9604
  23849979.127    -6187575.619 8  -4813531.44845  23849983.095    23849994.1024
  21242585.986   -19662595.815 9 -15302961.61747  21242588.413    21242595.9134
 00  4  3  3  1 30.0000000  0  7 03 17 26 09 29 21 23
  24332190.781    -2925527.324 7  -2268229.94645  24332196.864    24332205.8814
  20258679.016   -24144224.630 9 -18795284.35248  20258680.880    20258689.2374
  22354753.746   -13126634.707 8  -9931518.60246  22354761.759    22354769.2044
  21045535.539   -18150841.244 9 -14118078.52247  21045536.438    21045544.2964
  23452994.576    -7225720.668 8  -5618393.82445  23452996.480    23453007.0284
  23834914.196    -6266757.107 8  -4875231.12745  23834915.046    23834925.8684
  21235604.143   -19699282.600 9 -15331548.67348  21235606.855    21235614.6864
 00  4  3  3  2  0.0000000  0  7 03 17 26 09 29 21 23
  24332682.383    -2922968.784 7  -2266236.35745  24332685.185    24332693.0604
  20266112.953   -24105158.591 9 -18764843.30148  20266114.937    20266123.4664
  22371931.346   -13036392.312 8  -9861199.85646  22371934.250    22371941.8564
  21037109.543   -18195107.128 9 -14152571.36847  21037112.623    21037121.1924
  23437220.983    -7308579.928 8  -5682959.29845  23437228.645    23437238.9224
  23819838.143    -6345973.594 8  -4936958.04845  23819841.326    23819850.7804
  21228655.178   -19735802.453 9 -15360005.66848  21228657.430    21228665.4014
 00  4  3  3  2 30.0000000  0  7 03 17 26 09 29 21 23
  24333266.105    -2919910.616 7  -2263853.40045  24333266.388    24333275.6634
  20273658.418   -24065498.422 9 -18733939.29548  20273661.862    20273670.5634
  22389134.701   -12945994.862 8  -9790760.30546  22389137.053    22389144.2364
  21028803.212   -18238769.411 9 -14186593.87247  21028804.264    21028812.4654
  23421495.478    -7391247.778 8  -5747375.65646  23421498.148    23421507.7974
  23804761.362    -6425210.572 8  -4998701.05945  23804763.543    23804770.7664
  21221734.638   -19772171.943 9 -15388345.46748  21221736.945    21221744.2024
 00  4  3  3  3  0.0000000  0  7 03 17 26 09 29 21 23
  24333942.969    -2916356.737 7  -2261084.18145  24333943.997    24333949.9124
  20281317.166   -24025259.538 9 -18702584.34848  20281319.222    20281327.7274
  22406362.330   -12855450.701 8  -9720206.41346  22406366.480    22406374.3744
  21020610.836   -18281818.106 9 -14220138.25047  21020612.690    21020620.5014
  23405805.095    -7473711.718 8  -5811633.09446  23405806.338    23405814.7654
  23789686.852    -6504452.159 8  -5060447.65845  23789683.718    23789693.7364
  21214840.685   -19808392.849 9 -15416569.51148  21214844.017    21214851.6824
 00  4  3  3  3 30.0000000  0  7 03 17 26 09 29 21 23
  24334705.008    -2912320.010 7  -2257938.70045  24334711.432    24334719.2004
  20289081.305   -23984449.547 9 -18670784.38048  20289085.089    20289093.7414
  22423617.528   -12764782.391 8  -9649555.77546  22423620.132    22423627.8404
  21012533.771   -18324243.750 9 -14253197.13847  21012538.898    21012546.9224
  23390149.338    -7555978.070 8  -5875736.60845  23390150.486    23390160.0504
  23774613.300    -6583679.888 8  -5122183.40945  23774607.243    23774617.2694
  21207974.390   -19844472.607 9 -15444683.58148  21207978.399    21207985.6974
 00  4  3  3  4  0.0000000  0  7 03 17 26 09 29 21 23
  24335567.087    -2907790.347 7  -2254409.14745  24335573.085    24335581.8814
  20296957.890   -23943063.541 9 -18638535.56748  20296960.612    20296969.0654
  22440885.618   -12674017.248 8  -9578829.71946  22440892.090    22440900.2474
  21004582.005   -18366040.745 9 -14285766.16447  21004585.547    21004593.6364
  23374530.228    -7638048.691 8  -5939687.57245  23374532.278    23374542.2074
  23759530.069    -6662894.950 8  -5183909.12245  23759531.899    23759542.5514
  21201135.520   -19880417.863 9 -15472692.82548  21201138.546    21201145.0934
 00  4  3  3  4 30.0000000  0  7 03 17 26 09 29 21 23
  24336532.175    -2902745.746 7  -2250478.34945  24336531.809    24336544.1364
  20304946.687   -23901089.275 9 -18605828.37648  20304948.301    20304956.3844
  22458168.606   -12583166.190 8  -9508036.65846  22458179.992    22458187.1714
  20996746.068   -18407227.435 9 -14317859.64547  20996747.969    20996755.8824
  23358950.793    -7719910.203 8  -6003475.61746  23358955.197    23358965.4064
  23744458.594    -6742110.954 8  -5245635.68846  23744459.088    23744468.0454
  21194324.680   -19916213.617 9 -15500585.56548  21194326.879    21194334.0774
 00  4  3  3  5  0.0000000  0  7 03 17 26 09 29 21 23
  24337582.931    -2897189.805 7  -2246149.05545  24337589.887    24337599.5434
  20313047.173   -23858519.439 9 -18572657.09848  20313049.125    20313057.2044
  22475485.765   -12492235.874 8  -9437181.89346  22475484.220    22475491.1794
  20989021.836   -18447817.535 9 -14349488.24347  20989023.739    20989031.3974
  23343420.508    -7801559.932 8  -6067098.63046  23343419.255    23343427.9944
  23729378.853    -6821324.605 8  -5307360.44646  23729385.362    23729393.5604
  21187544.802   -19951837.337 9 -15528344.38348  21187547.489    21187555.6634
 00  4  3  3  5 30.0000000  0  7 03 17 26 09 29 21 23
  24338748.615    -2891109.152 7  -2241410.91245  24338748.479    24338756.5444
  20321263.952   -23815344.126 9 -18539014.01848  20321265.060    20321273.2124
  22492800.022   -12401217.348 8  -9366258.37546  22492803.921    22492811.9694
  20981407.824   -18487814.743 9 -14380654.85647  20981412.543    20981420.3494
  23327917.017    -7883007.024 8  -6130563.76946  23327919.819    23327928.7884
  23714301.387    -6900541.979 8  -5369088.04446  23714309.211    23714319.5854
  21180799.813   -19987270.986 9 -15555955.13348  21180804.439    21180812.2764
 00  4  3  3  6  0.0000000  0  7 03 17 26 09 29 21 23
  24340000.343    -2884503.788 7  -2236263.87445  24340004.423    24340011.8494
  20329591.550   -23771565.504 9 -18504900.82348  20329595.518    20329603.9834
  22510143.702   -12310092.455 8  -9295251.99846  22510145.261    22510152.8554
  20973909.860   -18527224.641 9 -14411363.81547  20973912.990    20973920.4864
  23312457.067    -7964247.628 8  -6193867.97746  23312458.654    23312469.2804
  23699233.740    -6979774.419 8  -5430827.39346  23699232.810    23699240.7884
  21174097.423   -20022510.224 9 -15583414.23648  21174099.115    21174106.5484
 00  4  3  3  6 30.0000000  0  7 03 17 26 09 29 21 23
  24341354.421    -2877391.606 7  -2230721.94745  24341358.111    24341369.0964
  20338037.175   -23727193.161 9 -18470324.99548  20338039.643    20338047.9244
  22527506.881   -12218838.722 8  -9224145.21446  22527510.236    22527518.1044
  20966521.839   -18566051.763 9 -14441618.66647  20966524.634    20966532.2374
  23297042.080    -8045275.798 8  -6257006.65746  23297039.800    23297050.0034
  23684153.938    -7059013.392 8  -5492571.85946  23684154.137    23684162.3264
  21167428.477   -20057553.181 9 -15610720.41248  21167431.003    21167438.0844
 00  4  3  3  7  0.0000000  0  7 03 17 26 09 29 21 23
  24342808.219    -2869786.924 7  -2224796.25145  24342803.836    24342815.1734
  20346591.509   -23682240.337 9 -18435296.84548  20346593.860    20346602.0624
  22544893.672   -12127443.785 8  -9152928.37046  22544901.692    22544910.2184
  20959240.837   -18604294.745 9 -14471418.33847  20959246.938    20959255.1704
  23281657.367    -8126086.378 8  -6319975.78646  23281661.677    23281671.9834
  23669070.488    -7138250.367 8  -5554314.88446  23669075.812    23669084.0294
  21160792.284   -20092419.827 9 -15637889.20748  21160795.368    21160803.0474
 00  4  3  3  7 30.0000000  0  7 03 17 26 09 29 21 23
  24344337.744    -2861687.959 7  -2218485.43845  24344346.660    24344355.3374
  20355254.421   -23636712.582 9 -18399820.69448  20355257.486    20355265.8664
  22562318.644   -12035903.259 8  -9081598.11246  22562320.864    22562328.8454
  20952077.273   -18641958.722 9 -14500766.83847  20952079.254    20952087.9144
  23266327.274    -8206671.447 8  -6382769.21146  23266327.158    23266336.6564
  23653995.805    -7217488.380 8  -5616058.64546  23653997.237    23654005.6164
  21154190.016   -20127128.144 9 -15664934.62948  21154191.282    21154198.5244
 00  4  3  3  8  0.0000000  0  7 03 17 26 09 29 21 23
  24345978.672    -2853108.945 7  -2211800.53545  24345979.168    24345987.9684
  20364024.678   -23590617.250 9 -18363902.27648  20364029.243    20364037.9214
  22579767.470   -11944227.487 8  -9010162.45446  22579766.933    22579774.8774
  20945020.920   -18679029.055 9 -14529652.75947  20945025.062    20945033.3554
  23251028.533    -8287032.772 8  -6445388.27346  23251034.423    23251043.7344
  23638919.562    -7296710.221 8  -5677789.81546  23638921.653    23638929.0194
  21147611.303   -20161696.764 9 -15691871.18648  21147612.546    21147620.1894
 00  4  3  3  8 30.0000000  0  7 03 17 26 09 29 21 23
  24347705.054    -2844039.607 7  -2204733.51845  24347706.262    24347714.4234
  20372906.619   -23543944.770 9 -18327534.13548  20372910.739    20372919.3694
  22597236.222   -11852430.317 8  -8938632.25146  22597235.592    22597242.2324
  20938083.152   -18715503.901 9 -14558074.66847  20938084.077    20938092.4664
  23235782.352    -8367174.956 8  -6507836.56546  23235782.129    23235793.2054
  23623848.603    -7375904.080 8  -5739499.24746  23623850.636    23623859.1634
  21141057.222   -20196130.870 9 -15718702.95348  21141059.506    21141067.3164
 00  4  3  3  9  0.0000000  0  7 03 17 26 09 29 21 23
  24349520.058    -2834461.331 7  -2197269.95245  24349529.028    24349536.6164
  20381900.809   -23496684.466 9 -18290707.95148  20381903.893    20381912.1184
  22614719.326   -11760534.215 8  -8867024.87246  22614723.086    22614730.2034
  20931254.322   -18751380.260 9 -14586030.22547  20931257.099    20931265.1124
  23220566.473    -8447111.446 8  -6570124.57146  23220570.677    23220582.0284
  23608780.221    -7455090.131 8  -5801202.60046  23608781.984    23608791.0534
  21134529.796   -20230435.150 9 -15745433.55148  21134531.741    21134539.6964
 00  4  3  3  9 30.0000000  0  7 03 17 26 09 29 21 23
  24351449.274    -2824376.348 7  -2189411.48145  24351444.558    24351457.2164
  20391005.235   -23448830.790 9 -18253419.39448  20391010.047    20391018.4804
  22632223.089   -11668559.927 8  -8795356.59146  22632225.106    22632232.8824
  20924542.716   -18786652.927 9 -14613515.36747  20924545.051    20924552.5144
  23205390.609    -8526863.149 8  -6632268.57246  23205395.520    23205405.4304
  23593709.297    -7534286.104 8  -5862913.56146  23593712.100    23593721.4174
  21128028.610   -20264593.444 9 -15772050.36448  21128031.358    21128040.0624
 00  4  3  3 10  0.0000000  0  7 03 17 26 09 29 21 23
  24353448.549    -2813797.916 7  -2181168.55845  24353459.800    24353468.9054
  20400228.013   -23400372.782 9 -18215659.93648  20400231.489    20400240.0424
  22649734.919   -11576514.918 8  -8723633.20046  22649740.189    22649748.3554
  20917944.992   -18821302.808 9 -14640515.22047  20917950.847    20917959.1694
  23190253.582    -8606428.890 8  -6694267.71546  23190255.000    23190263.8154
  23578633.712    -7613492.508 8  -5924632.76546  23578639.165    23578648.1274
  21121559.439   -20298594.356 9 -15798544.55748  21121561.732    21121569.9184
 00  4  3  3 10 30.0000000  0  7 03 17 26 09 29 21 23
  24355569.720    -2802729.768 7  -2172544.07245  24355565.146    24355574.0454
  20409564.161   -23351310.913 9 -18177429.94048  20409567.760    20409576.3704
  22667263.059   -11484403.501 8  -8651858.06546  22667268.927    22667276.6614
  20911471.865   -18855345.810 9 -14667042.18247  20911473.032    20911481.0044
  23175145.458    -8685799.459 8  -6756114.73746  23175150.135    23175161.0694
  23563558.677    -7692723.181 8  -5986370.89146  23563561.597    23563570.8884
  21115121.319   -20332429.146 9 -15824909.27648  21115123.112    21115130.6114
 00  4  3  3 11  0.0000000  0  7 03 17 26 09 29 21 23
  24357756.910    -2791183.931 7  -2163547.36845  24357760.918    24357770.9274
  20419013.179   -23301655.869 9 -18138737.73448  20419016.753    20419025.1984
  22684809.376   -11392215.349 8  -8580023.15546  22684810.662    22684818.9644
  20905109.182   -18888776.201 9 -14693091.78647  20905111.179    20905119.6414
  23160083.112    -8764976.924 8  -6817811.28146  23160082.234    23160093.2854
  23548475.601    -7771984.101 8  -6048132.54446  23548478.396    23548488.0394
  21108716.840   -20366080.478 9 -15851131.04648  21108719.415    21108727.1154
 00  4  3  3 11 30.0000000  0  7 03 17 26 09 29 21 23
  24360046.672    -2779174.578 7  -2154189.45145  24360047.537    24360057.8404
  20428574.953   -23251413.514 9 -18099587.87148  20428577.403    20428586.1654
  22702365.928   -11299942.479 8  -8508122.22746  22702369.784    22702378.4664
  20898867.486   -18921582.076 9 -14718654.76847  20898868.642    20898876.6354
  23145051.974    -8843937.897 8  -6879339.14646  23145057.095    23145068.4514
  23533390.497    -7851247.383 8  -6109895.90046  23533394.394    23533404.8774
  21102351.195   -20399536.106 9 -15877200.39348  21102353.071    21102361.3734
 00  4  3  3 12  0.0000000  0  7 03 17 26 09 29 21 23
  24362411.926    -2766693.944 7  -2144464.27445  24362419.514    24362432.1654
  20438247.223   -23200587.968 9 -18059983.57848  20438249.205    20438257.7914
  22719945.899   -11207568.756 8  -8436142.76446  22719947.748    22719955.9254
  20892741.286   -18953761.851 9 -14743729.87447  20892744.768    20892752.7434
  23130073.180    -8922663.814 8  -6940683.87646  23130076.582    23130086.5874
  23518312.512    -7930501.673 8  -6171652.48446  23518314.032    23518323.4824
  21096017.652   -20432808.891 9 -15903127.18648  21096021.302    21096029.2984
 00  4  3  3 12 30.0000000  0  7 03 17 26 09 29 21 23
  24364882.021    -2753719.758 7  -2134354.50745  24364891.965    24364903.8744
  20448026.436   -23149184.699 9 -18019929.10648  20448030.862    20448039.4644
  22737546.277   -11115082.035 8  -8364075.16446  22737547.416    22737555.1554
  20886732.534   -18985333.671 9 -14768331.24647  20886737.072    20886744.8034
  23115134.974    -9001164.759 8  -7001853.30846  23115137.207    23115148.5874
  23503229.630    -8009757.620 8  -6233410.28146  23503231.556    23503240.9434
  21089722.694   -20465897.492 9 -15928910.40848  21089725.094    21089732.7294
 00  4  3  3 13  0.0000000  0  7 03 17 26 09 29 21 23
  24367451.889    -2740235.095 7  -2123846.96245  24367457.543    24367468.0174
  20457919.988   -23097197.635 9 -17979419.74648  20457923.853    20457932.6854
  22755165.802   -11022482.352 8  -8291919.61146  22755168.842    22755177.2374
  20880841.170   -19016296.780 9 -14792458.29547  20880844.760    20880852.7744
  23100243.362    -9079432.679 8  -7062841.12946  23100243.540    23100253.8644
  23488140.287    -8089018.870 8  -6295172.23646  23488147.920    23488158.7354
  21083457.653   -20498810.956 9 -15954557.23248  21083461.402    21083469.3834
 00  4  3  3 13 30.0000000  0  7 03 17 26 09 29 21 23
  24370109.151    -2726246.538 7  -2112946.80845  24370115.867    24370131.7664
  20467925.147   -23044627.723 9 -17938456.21848  20467927.745    20467936.2964
  22772808.076   -10929783.200 8  -8219686.51246  22772809.144    22772816.2954
  20875064.779   -19046655.181 9 -14816114.14748  20875067.787    20875075.8874
  23085395.698    -9157453.907 8  -7123636.74746  23085397.651    23085407.1804
  23473064.543    -8168283.997 8  -6356937.27446  23473064.063    23473075.1534
  21077222.638   -20531577.473 9 -15980089.62848  21077226.256    21077234.0484
 00  4  3  3 14  0.0000000  0  7 03 17 26 09 29 21 23
  24372873.272    -2711751.089 7  -2101651.72645  24372878.801    24372889.4184
  20478039.913   -22991476.075 9 -17897039.38348  20478041.833    20478050.6344
  22790460.196   -10836981.239 8  -8147373.28346  22790468.126    22790475.9614
  20869401.928   -19076416.731 9 -14839304.93248  20869404.534    20869412.2834
  23070591.231    -9235249.523 8  -7184256.55246  23070592.832    23070603.1104
  23457976.499    -8247563.758 8  -6418713.50746  23457978.314    23457988.1694
  21071014.788   -20564206.288 9 -16005514.64848  21071016.903    21071024.8944
 00  4  3  3 14 30.0000000  0  7 03 17 26 09 29 21 23
  24375730.390    -2696746.434 7  -2089959.86445  24375732.818    24375742.6014
  20488262.898   -22937747.361 9 -17855172.88748  20488266.177    20488274.8354
  22808136.972   -10744088.684 8  -8074989.49346  22808145.718    22808152.7994
  20863854.134   -19105573.610 9 -14862024.52847  20863856.078    20863864.1094
  23055825.872    -9312828.683 8  -7244707.68446  23055829.389    23055839.8204
  23442889.645    -8326857.957 8  -6480501.15146  23442889.985    23442898.9774
  21064833.488   -20596684.799 9 -16030822.62348  21064836.477    21064844.1834
 00  4  3  3 15  0.0000000  0  7 03 17 26 09 29 21 23
  24378671.165    -2681256.223 7  -2077889.53944  24378680.469    24378689.9164
  20498594.072   -22883452.918 9 -17812865.56348  20498598.558    20498606.6914
  22825839.724   -10651125.979 8  -8002551.06546  22825836.575    22825844.1414
  20858423.370   -19134104.931 9 -14884256.67447  20858426.516    20858434.2394
  23041104.004    -9390182.580 8  -7304983.32346  23041109.470    23041118.5834
  23427803.203    -8406154.191 8  -6542290.33846  23427799.641    23427808.6224
  21058682.324   -20629010.418 9 -16056011.38648  21058685.053    21058692.7194
 00  4  3  3 15 30.0000000  0  7 03 17 26 09 29 21 23
  24381727.166    -2665297.953 7  -2065454.54245  24381719.783    24381726.8704
  20509032.639   -22828604.405 9 -17770126.49748  20509035.629    20509044.2354
  22843536.789   -10558090.050 8  -7930055.49046  22843540.301    22843547.8874
  20853113.293   -19161990.522 9 -14905985.66247  20853119.917    20853127.5504
  23026423.409    -9467328.893 8  -7365097.17746  23026429.228    23026437.6964
  23412708.305    -8485440.614 8  -6604072.00346  23412712.163    23412720.4514
  21052564.227   -20661165.077 9 -16081066.98148  21052566.548    21052574.0894
 00  4  3  3 16  0.0000000  0  7 03 17 26 09 29 21 23
  24384840.582    -2648854.995 7  -2052641.92145  24384847.266    24384857.5054
  20519574.855   -22773204.011 9 -17726957.40148  20519578.035    20519586.6404
  22861259.422   -10464984.463 8  -7857505.66746  22861258.090    22861264.7094
  20847933.971   -19189227.977 9 -14927209.61347  20847937.393    20847944.9224
  23011783.618    -9544281.581 8  -7425060.19446  23011786.632    23011794.7474
  23397621.622    -8564709.621 8  -6665839.90146  23397627.576    23397637.5024
  21046483.488   -20693115.587 9 -16105963.49348  21046486.800    21046493.9674
 00  4  3  3 16 30.0000000  0  7 03 17 26 09 29 21 23
  24388064.108    -2631939.044 7  -2039460.70945  24388066.492    24388077.1494
  20530221.756   -22717259.991 9 -17683364.69648  20530223.766    20530232.3534
  22878976.298   -10371823.555 8  -7784912.71846  22878985.252    22878993.1734
  20842873.672   -19215824.145 9 -14947933.85447  20842875.564    20842883.4994
  22997181.148    -9621022.932 8  -7484858.55446  22997182.731    22997190.6674
  23382553.679    -8643953.307 8  -6727588.32346  23382548.443    23382556.3334
  21040443.154   -20724855.859 9 -16130696.16748  21040446.243    21040454.0784
 00  4  3  3 17  0.0000000  0  7 03 17 26 09 29 21 23
  24391371.911    -2614562.964 7  -2025920.91445  24391373.879    24391383.5854
  20540973.098   -22660763.574 9 -17639341.54648  20540974.933    20540983.4264
  22896718.807   -10278608.987 8  -7712278.00346  22896722.888    22896731.5824
  20837931.433   -19241787.952 9 -14968165.34947  20837934.818    20837943.0324
  22982617.461    -9697538.043 8  -7544480.57746  22982621.398    22982630.4224
  23367470.060    -8723156.513 8  -6789305.04346  23367475.789    23367485.5694
  21034444.343   -20756390.707 9 -16155268.75448  21034445.962    21034453.2924
 00  4  3  3 17 30.0000000  0  7 03 17 26 09 29 21 23
  24394769.457    -2596719.018 7  -2012016.55445  24394768.965    24394778.0824
  20551827.444   -22603713.130 9 -17594886.69648  20551831.127    20551839.7214
  22914475.621   -10185329.360 8  -7639592.63646  22914473.238    22914481.3664
  20833108.511   -19267136.888 9 -14987917.72548  20833111.283    20833119.4664
  22968102.919    -9773828.011 8  -7603927.17046  22968104.431    22968113.3384
  23352412.338    -8802312.857 8  -6850985.34546  23352412.807    23352421.0754
  21028479.331   -20787735.071 9 -16179692.91448  21028481.295    21028488.4614
 00  4  3  3 18  0.0000000  0  7 03 17 26 09 29 21 23
  24398250.306    -2578406.409 7  -1997747.03044  24398250.415    24398261.5914
  20562790.804   -22546107.221 9 -17549999.01748  20562793.273    20562801.6844
  22932228.562   -10091991.366 8  -7566861.72146  22932234.905    22932242.5844
  20828395.252   -19291888.727 9 -15007204.81848  20828400.997    20828409.0914
  22953631.210    -9849879.313 8  -7663187.80846  22953632.109    22953640.5324
  23337351.979    -8881426.714 8  -6912632.35546  23337358.063    23337366.4134
  21022547.624   -20818893.234 9 -16203972.01048  21022551.884    21022559.3064
 00  4  3  3 18 30.0000000  0  7 03 17 26 09 29 21 23
  24401818.178    -2559638.163 7  -1983122.39844  24401822.324    24401834.5514
  20573861.477   -22487932.071 9 -17504667.76048  20573863.543    20573872.0554
  22950002.395    -9998587.661 8  -7494079.60046  22950009.144    22950016.5504
  20823803.875   -19316042.465 9 -15026025.87247  20823804.650    20823812.7804
  22939204.310    -9925679.680 8  -7722252.92646  22939207.766    22939216.5284
  23322305.458      -26959.46218
  21016651.458   -20849881.709 9 -16228118.87248  21016654.768    21016662.6274
 00  4  3  3 19  0.0000000  0  7 03 17 26 09 29 21 23
  24405482.703    -2540396.834 7  -1968129.22745  24405486.486    24405495.6914
  20585037.461   -22429185.221 9 -17458891.03148  20585042.532    20585051.5134
  22967797.412    -9905113.304 8  -7421242.53046  22967797.147    22967805.1034
  20819319.813   -19339584.619 9 -15044370.36847  20819324.542    20819332.7654
  22924825.541   -10001241.373 8  -7781132.02046  22924828.759    22924837.7264
  23307259.362     -106028.031 8    -66314.72056  23307263.705    23307273.0214
  21010788.076   -20880708.073 9 -16252139.40548  21010788.947    21010796.6964
 00  4  3  3 19 30.0000000  0  7 03 17 26 09 29 21 23
  24409235.384    -2520682.265 7  -1952767.28545  24409240.087    24409246.9364
  20596325.721   -22369875.025 9 -17412675.33848  20596329.046    20596337.7534
  22985592.912    -9811564.714 8  -7348347.52546  22985598.215    22985605.6814
  20814959.703   -19362511.283 9 -15062235.26348  20814962.132    20814970.3794
  22910489.947   -10076577.953 8  -7839835.68646  22910492.876    22910502.2154
  23292210.273     -185108.980 8   -127936.24946  23292215.601    23292222.2514
  21004954.008   -20911359.377 9 -16276023.55648  21004956.427    21004964.2214
 00  4  3  3 20  0.0000000  0  7 03 17 26 09 29 21 23
  24413084.844    -2500499.223 7  -1937040.17745  24413079.559    24413088.0584
  20607720.962   -22309992.249 9 -17366013.48948  20607724.730    20607733.0994
  23003406.998    -9717954.186 8  -7275404.26046  23003411.823    23003418.1044
  20810716.454   -19384802.542 9 -15079605.03148  20810720.226    20810728.1444
  22896198.133   -10151693.950 8  -7898367.54946  22896199.770    22896206.6644
  23277156.794                      -46010.16818
  20999155.335   -20941821.731 9 -16299760.42048  20999159.419    20999167.1594
 00  4  3  3 20 30.0000000  0  6 03 17 26 09 29 23
  24417005.389    -2479845.593 7  -1920946.42345  24417007.769    24417017.4454
  20619225.899   -22249538.495 9 -17318906.70748  20619228.442    20619237.0554
  23021232.636    -9624289.436 8  -7202418.75246  23021236.097    23021243.7334
  20806601.472   -19406440.137 9 -15096465.45748  20806602.749    20806610.3684
  22881942.129   -10226594.983 8  -7956731.89746  22881945.771    22881953.6964
  20993393.475   -20972108.705 9 -16323360.63248  20993395.997    20993403.7524
 00  4  3  3 21  0.0000000  0  7 03 17 26 09 29 21 23
  24421034.473    -2458723.251 7  -1904487.50145  24421030.478    24421036.5444
  20630836.137   -22188522.161 9 -17271361.55648  20630839.368    20630848.2814
  23039062.568    -9530575.751 8  -7129395.12046  23039069.440    23039076.5144
  20802610.532   -19427420.343 9 -15112813.62548  20802610.040    20802618.3034
  22867728.096   -10301289.215 8  -8014935.09846  22867731.888    22867740.4404
  23247028.755      -69254.88918    -41718.14756  23247040.931    23247048.1724
  20987664.581   -21002220.246 9 -16346824.17348  20987665.895    20987673.5414
 00  4  3  3 21 30.0000000  0  7 03 17 26 09 29 21 23
  24425135.337    -2437143.258 7  -1887671.96544  24425133.784    24425142.6784
  20642555.554   -22126940.683 9 -17223376.03248  20642558.122    20642566.8614
  23056907.327    -9436814.218 8  -7056334.14346  23056911.996    23056918.1444
  20798737.922   -19447744.468 9 -15128650.56448  20798742.481    20798750.9034
  22853556.590   -10375769.964 8  -8072971.93046  22853558.019    22853566.3224
  23231971.470     -148409.919 8   -103397.18946  23231975.529    23231984.8894
  20981968.354   -21032148.810 9 -16370145.12748  20981970.695    20981978.5664
 00  4  3  3 22  0.0000000  0  7 03 17 26 09 29 21 23
  24429322.744    -2415094.552 7  -1870491.21445  24429329.473    24429339.8394
  20654382.310   -22064793.609 9 -17174949.79548  20654384.419    20654393.3674
  23074760.242    -9343012.267 8  -6983241.75246  23074762.045    23074769.1874
  20794998.929   -19467410.774 9 -15143974.92648  20795000.175    20795008.1004
  22839421.572   -10450028.797 8  -8130835.86246  22839427.116    22839435.1944
  23216915.474     -227544.300 8   -165060.25046  23216917.545    23216925.8424
  20976304.328   -21061908.138 9 -16393334.20148  20976307.469    20976315.1014
 00  4  3  3 22 30.0000000  0  7 03 17 26 09 29 21 23
  24433615.478    -2392570.020 7  -1852939.62745  24433616.816    24433624.8554
  20666312.956   -22002085.633 9 -17126086.48847  20666317.591    20666326.1844
  23092624.822    -9249150.330 8  -6910102.56146  23092623.129    23092630.8604
  20791377.287   -19486433.089 9 -15158797.47348  20791380.559    20791388.2104
  22825339.054   -10524054.527 8  -8188518.11946  22825340.428    22825348.9204
  23201859.417     -306646.276 8   -226698.06546  23201864.854    23201872.6264
  20970675.797   -21091487.542 9 -16416383.05848  20970678.929    20970686.7854
 00  4  3  3 23  0.0000000  0  7 03 17 26 09 29 21 23
  24437990.337    -2369568.925 7  -1835016.75545  24437993.859    24438004.3004
  20678354.364   -21938819.514 9 -17076788.26447  20678356.696    20678365.2554
  23110488.232    -9155211.020 8  -6836903.12546  23110498.779    23110507.0474
  20787877.501   -19504827.130 9 -15173130.45848  20787880.070    20787887.2874
  22811292.215   -10597845.679 8  -8246017.62046  22811297.156    22811306.8644
  23186824.850     -385694.899 8   -288294.34446  23186822.995    23186831.3994
  20965087.488   -21120862.742 9 -16439272.80748  20965089.291    20965096.6294
 00  4  3  3 23 30.0000000  0  7 03 17 26 09 29 21 23
  24442456.854    -2346093.016 7  -1816723.83545  24442461.127    24442468.7984
  20690495.222   -21875011.695 9 -17027067.94248  20690498.842    20690507.6594
  23128392.537    -9061197.020 8  -6763645.45346  23128389.731    23128396.9284
  20784495.078   -19522600.929 9 -15186980.13348  20784497.859    20784505.5424
  22797296.804   -10671395.495 8  -8303329.05346  22797300.904    22797310.5914
  23171783.528     -464686.884 8   -349846.52546  23171789.814    23171799.9384
  20959540.048   -21150024.106 9 -16461995.90048  20959539.936    20959547.5034
 00  4  3  3 24  0.0000000  0  7 03 17 26 09 29 21 23
  24447014.813    -2322151.822 7  -1798068.29845  24447017.706    24447027.1334
  20702741.801   -21810660.435 9 -16976924.15747  20702744.509    20702753.0584
  23146295.429    -8967107.125 8  -6690328.70446  23146294.552    23146302.0374
  20781231.153   -19539756.687 9 -15200348.22848  20781233.270    20781241.0454
  22783349.789   -10744707.903 8  -8360455.51846  22783350.757    22783359.6594
  23156767.986     -543624.037 8   -411355.88846  23156769.428    23156777.8804
  20954028.531   -21178967.252 9 -16484548.98548  20954031.841    20954039.8554
 00  4  3  3 24 30.0000000  0  7 03 17 26 09 29 21 23
  24451647.760    -2297755.398 7  -1779058.17645  24451660.020    24451667.2274
  20715087.746   -21745773.770 9 -16926363.16847  20715092.363    20715101.0294
  23164214.154    -8872934.114 8  -6616947.19446  23164214.924    23164222.1264
  20778081.224   -19556296.950 9 -15213236.70748  20778085.602    20778093.2334
  22769439.362   -10817794.768 8  -8417406.22646  22769443.231    22769451.4134
  23141759.747     -622507.361 8   -472823.38846  23141758.721    23141767.0094
  20948564.576   -21207686.258 9 -16506927.41848  20948566.511    20948574.3494
 00  4  3  3 25  0.0000000  0  7 03 17 26 09 29 21 23
  24456385.026    -2272921.568 7  -1759707.16145  24456384.966    24456395.7184
  20727534.790   -21680368.830 9 -16875398.33747  20727538.546    20727547.0904
  23182142.963    -8778701.219 8  -6543519.02046  23182146.214    23182154.0624
  20775050.945   -19572220.202 9 -15225644.39547  20775055.127    20775062.9564
  22755572.034   -10890659.448 8  -8474183.79446  22755577.289    22755586.1704
  23126750.737     -701343.379 8   -534253.98046  23126755.700    23126764.6364
  20943139.454   -21236199.176 9 -16529145.25048  20943141.210    20943148.2244
 00  4  3  3 25 30.0000000  0  7 03 17 26 09 29 21 23
  24461188.204    -2247657.025 7  -1740020.47445  24461194.496    24461203.2954
  20740081.874   -21614437.902 9 -16824023.64447  20740084.543    20740093.2554
  23200078.076    -8684428.026 8  -6470059.40646  23200085.569    23200093.7114
  20772143.373   -19587512.338 9 -15237560.31147  20772145.242    20772153.2684
  22741745.176   -10963304.415 8  -8530790.17846  22741752.321    22741761.7064
  23111757.114     -780155.327 8   -595665.86346  23111758.123    23111767.4534
  20937750.163   -21264520.799 9 -16551214.02348  20937751.876    20937758.7014
 00  4  3  3 26  0.0000000  0  7 03 17 26 09 29 21 23
  24466079.646    -2221958.496 7  -1719995.63745  24466082.423    24466092.8644
  20752729.181   -21547966.952 9 -16772228.15947  20752733.545    20752742.3024
  23218024.993    -8590106.349 8  -6396562.05046  23218034.484    23218042.7664
  20769357.145   -19602158.785 9 -15248973.09248  20769358.563    20769366.0694
  22727967.853   -11035744.260 8  -8587236.76346  22727967.524    22727976.9244
  23096754.485     -858960.872 8   -657072.67946  23096762.135    23096771.8204
  20932398.185   -21292652.538 9 -16573134.82948  20932398.446    20932405.5494
 00  4  3  3 26 30.0000000  0  7 03 17 26 09 29 21 23
  24471052.330    -2195819.184 7  -1699627.36445  24471056.661    24471067.1624
  20765480.192   -21480960.866 9 -16720015.69847  20765484.543    20765493.0494
  23235988.296    -8495746.386 8  -6323034.88346  23235990.065    23235999.3934
  20766690.941   -19616158.319 9 -15259881.78348  20766694.341    20766701.8034
  22714216.104   -11107975.519 8  -8643520.72746  22714221.971    22714231.8274
  23081764.042     -937776.110 8   -718487.06946  23081764.684    23081773.3584
  20927073.828   -21320603.584 9 -16594914.83848  20927079.510    20927086.8584
 00  4  3  3 27  0.0000000  0  7 03 17 26 09 29 21 23
  24476111.881    -2169247.923 7  -1678922.49845  24476113.688    24476124.2304
  20778338.940   -21413402.567 9 -16667372.92947  20778340.668    20778349.4664
  23253943.105    -8401363.878 8  -6249490.15646  23253951.378    23253959.6744
  20764149.960   -19629503.479 9 -15270280.58048  20764154.506    20764162.0034
  22700516.816   -11179986.105 8  -8699632.79646  22700518.826    22700528.9094
  23066763.157    -1016607.554 8   -779914.19646  23066763.507    23066771.7974
  20921792.007   -21348373.525 9 -16616553.72848  20921794.996    20921802.1074
 00  4  3  3 27 30.0000000  0  7 03 17 26 09 29 21 23
  24481246.622    -2142231.814 7  -1657870.95745  24481255.367    24481263.6554
  20791301.789   -21345270.532 9 -16614283.09247  20791305.294    20791314.5324
  23271905.626    -8306959.797 8  -6175928.48946  23271915.518    23271923.1744
  20761740.005   -19642190.100 9 -15280166.22348  20761740.565    20761748.0244
  22686850.740   -11251788.222 8  -8755582.42746  22686856.470    22686865.2264
  23051756.197    -1095456.980 8   -841355.25146  23051759.357    23051768.5654
  20916543.028   -21375953.777 9 -16638044.78448  20916546.564    20916554.0784
 00  4  3  3 28  0.0000000  0  7 03 17 26 09 29 21 23
  24486467.630    -2114768.286 7  -1636470.79845  24486480.099    24486490.9334
  20804373.714   -21276577.569 9 -16560756.16847  20804377.100    20804386.3484
  23289880.799    -8212536.074 8  -6102351.60946  23289884.548    23289892.3814
  20759447.178   -19654232.499 9 -15289549.87448  20759449.081    20759456.4604
  22673233.904   -11323371.459 8  -8811361.48846  22673234.667    22673242.8944
  23036752.256    -1174306.099 8   -902796.12546  23036754.565    23036763.1934
  20911332.848   -21403345.051 9 -16659388.57248  20911334.453    20911341.5544
 00  4  3  3 28 30.0000000  0  7 03 17 26 09 29 21 23
  24491791.892    -2086858.251 7  -1614722.75545  24491792.924    24491801.8114
  20817548.250   -21207341.461 9 -16506806.03047  20817552.793    20817561.5204
  23307849.738    -8118103.106 8  -6028767.57646  23307854.124    23307861.8614
  20757275.762   -19665635.696 9 -15298435.45848  20757278.890    20757286.3854
  22659655.783   -11394709.692 8  -8866949.67746  22659659.542    22659667.3264
  23021749.180    -1253146.191 8   -964230.00146  23021752.047    23021760.0514
  20906155.113   -21430549.791 9 -16680587.03648  20906157.578    20906164.7774
 00  4  3  3 29  0.0000000  0  7 03 17 26 09 29 21 23
  24497179.692    -2058505.322 7  -1592629.52244  24497185.335    24497193.8634
  20830825.731   -21137571.668 9 -16452440.02047  20830829.671    20830838.2914
  23325822.778    -8023658.439 8  -5955174.35946  23325826.684    23325834.3374
  20755227.338   -19676403.403 9 -15306825.84848  20755230.027    20755237.8064
  22646125.707   -11465802.464 8  -8922346.56946  22646130.059    22646139.2884
  23006752.224    -1331966.590 8  -1025648.47546  23006754.072    23006761.6764
  20901015.506   -21457558.569 9 -16701632.81548  20901017.626    20901024.8374
 00  4  3  3 29 30.0000000  0  7 03 17 26 09 29 21 23
  24502667.785    -2029690.789 7  -1570176.58844  24502668.014    24502678.9864
  20844200.303   -21067292.880 9 -16397677.39547  20844203.138    20844211.9064
  23343802.788    -7929187.565 8  -5881560.72346  23343803.288    23343811.4854
  20753297.506   -19686542.560 9 -15314726.45148  20753300.674    20753308.5094
  22632647.100   -11536649.749 8  -8977552.18946  22632649.326    22632658.0494
  22991758.441    -1410752.322 8  -1087039.91946  22991760.143    22991769.3294
  20895914.762   -21484365.911 9 -16722521.64148  20895915.969    20895923.9044
 00  4  3  3 30  0.0000000  0  7 03 17 26 09 29 21 23
  24508237.402    -2000424.623 7  -1547371.81444  24508239.648    24508249.6084
  20857666.785   -20996523.440 9 -16342532.45047  20857670.608    20857679.1704
  23361788.247    -7834671.650 8  -5807912.03146  23361789.474    23361798.0864
  20751488.557   -19696049.781 9 -15322134.64248  20751491.593    20751499.0934
  22619217.786   -11607229.088 8  -9032549.01246  22619218.152    22619225.9634
  22976771.956    -1489498.106 8  -1148400.23246  22976775.249    22976784.4744
  20890848.381   -21510969.699 9 -16743251.84648  20890853.056    20890861.5674
 00  4  3  3 30 30.0000000  0  7 03 17 26 09 29 21 23
  24513904.185    -1970710.739 7  -1524218.13744  24513893.080    24513905.3354
  20871229.423   -20925253.758 9 -16286997.71247  20871232.795    20871241.3914
  23379784.992    -7740103.793 8  -5734222.82146  23379785.720    23379793.4174
  20749802.293   -19704912.740 9 -15329040.80848  20749805.206    20749812.0134
  22605831.888   -11677551.189 8  -9087345.40146  22605835.951    22605844.4394
  22961790.896    -1568206.273 8  -1209731.25246  22961797.388    22961805.5104
  20885829.121   -21537358.005 9 -16763814.14248  20885831.785    20885839.9464
 00  4  3  3 31  0.0000000  0  7 03 17 26 09 29 21 23
  24519630.631    -1940562.381 7  -1500725.93444  24519631.671    24519639.7364
  20884887.298   -20853477.464 9 -16231068.21447  20884891.171    20884900.1284
  23397789.364    -7645486.223 8  -5660494.93046  23397790.559    23397798.8974
  20748237.579   -19713137.324 9 -15335449.54248  20748239.883    20748246.7184
  22592495.821   -11747641.511 8  -9141961.17046  22592498.428    22592507.2474
  22946830.016    -1646864.006 8  -1271022.96546  22946830.420    22946838.8864
  20880847.998   -21563527.284 9 -16784205.81548  20880852.075    20880860.2764
 00  4  3  3 31 30.0000000  0  7 03 17 26 09 29 21 23
  24525446.263    -1909989.359 7  -1476902.76644  24525449.422    24525460.4874
  20898643.957   -20781194.316 9 -16174743.76847  20898646.481    20898655.3784
  23415801.099    -7550820.347 8  -5586729.34346  23415806.253    23415812.7604
  20746798.736   -19720716.098 9 -15341355.05048  20746797.876    20746804.8714
  22579202.883   -11817498.261 8  -9196394.94846  22579204.746    22579213.5934
  22931866.311    -1725469.520 8  -1332274.03946  22931871.160    22931880.4504
  20875909.898   -21589484.133 9 -16804431.91948  20875912.387    20875920.6334
 00  4  3  3 32  0.0000000  0  7 03 17 26 09 29 21 23
  24531340.822    -1879013.829 7  -1452766.09244  24531344.452    24531353.6034
  20912498.437   -20708392.122 9 -16118014.86447  20912500.149    20912508.9144
  23433820.852    -7456128.357 8  -5512943.40046  23433824.590    23433833.0184
  20745476.328   -19727640.391 9 -15346750.57748  20745479.702    20745487.3524
  22565948.018   -11887132.795 8  -9250655.56546  22565953.962    22565962.1294
  22916918.673    -1804036.480 8  -1393494.89046  22916920.683    22916930.2444
  20871010.612   -21615232.492 9 -16824495.53848  20871013.332    20871021.1964
 00  4  3  3 32 30.0000000  0  7 03 17 26 09 29 21 23
  24537307.310    -1847638.978 7  -1428318.21344  24537314.909    24537324.7694
  20926448.218   -20635066.212 9 -16060877.86647  20926453.466    20926462.2914
  23451845.210    -7361435.567 8  -5439156.80846  23451843.585    23451852.0844
  20744284.457   -19733911.052 9 -15351636.77448  20744286.094    20744294.1944
  22552739.516   -11956571.035 8  -9304763.22646  22552740.552    22552748.9804
  22901982.608    -1882553.300 8  -1454676.79646  22901979.593    22901987.6034
  20866149.134   -21640781.321 9 -16844403.70748  20866151.451    20866159.1114
 00  4  3  3 33  0.0000000  0  7 03 17 26 09 29 21 23
  24543360.693    -1815872.606 7  -1403565.29344  24543358.426    24543367.3064
  20940503.128   -20561226.403 9 -16003340.43647  20940505.366    20940513.7764
  23469864.746    -7266742.041 8  -5365369.75446  23469863.387    23469871.0684
  20743212.516   -19739529.029 9 -15356014.38648  20743217.124    20743225.0354
  22539560.003   -12025803.382 8  -9358710.45746  22539564.670    22539574.7954
  22887046.137    -1961018.975 8  -1515818.91646  22887048.733    22887056.0084
  20861323.787   -21666137.471 9 -16864161.72048  20861326.133    20861333.8094
 00  4  3  3 33 30.0000000  0  7 03 17 26 09 29 21 23
  24549469.217    -1783699.891 7  -1378495.63944  24549480.598    24549490.4594
  20954652.142   -20486872.098 9 -15945402.10247  20954654.386    20954662.8254
  23487879.728    -7172047.653 8  -5291581.98946  23487883.238    23487891.5114
  20742269.018   -19744490.272 9 -15359880.25548  20742273.128    20742280.7724
  22526435.336   -12094811.121 8  -9412482.63746  22526432.992    22526443.2234
  22872121.740    -2039438.045 8  -1576924.59746  22872124.695    22872133.7064
  20856533.455   -21691302.027 9 -16883770.46548  20856537.428    20856545.3404
 00  4  3  3 34  0.0000000  0  7 03 17 26 09 29 21 23
  24555673.246    -1751110.340 7  -1353101.13744  24555682.409    24555693.4744
  20968895.441   -20412009.957 9 -15887068.04547  20968899.772    20968909.1204
  23505901.297    -7077344.179 8  -5217787.08946  23505904.311    23505913.3954
  20741449.623   -19748795.418 9 -15363234.88948  20741453.993    20741461.5834
  22513339.951   -12163593.676 8  -9466079.34346  22513344.636    22513353.7484
  22857206.612    -2117804.420 8  -1637989.14746  22857211.794    22857221.3254
  20851782.529   -21716268.519 9 -16903224.87048  20851786.611    20851794.3064
 00  4  3  3 34 30.0000000  0  7 03 17 26 09 29 21 23
  24561961.557    -1718100.542 7  -1327379.29344  24561963.174    24561976.6534
  20983238.723   -20336647.527 9 -15828344.15347  20983240.859    20983250.0374
  23523926.906    -6982606.772 8  -5143965.84746  23523932.241    23523941.1844
  20740752.404   -19752451.578 9 -15366083.81848  20740757.916    20740765.6484
  22500297.225   -12232130.423 8  -9519484.51946  22500301.898    22500310.9634
  22842308.951    -2196114.314 8  -1699009.78346  22842310.802    22842318.7324
  20847071.200   -21741026.730 9 -16922516.96448  20847074.998    20847082.4524
 00  4  3  3 35  0.0000000  0  7 03 17 26 09 29 21 23
  24568321.257    -1684663.465 7  -1301324.43844  24568327.727    24568339.3354
  20997671.322   -20260800.659 9 -15769242.77947  20997674.125    20997683.3034
  23541967.873    -6887819.177 8  -5070105.39345  23541969.522    23541978.0384
  20740179.717   -19755467.012 9 -15368433.47948  20740184.238    20740191.8974
  22487307.434   -12300401.658 8  -9572682.83246  22487311.032    22487319.3114
  22827414.342    -2274389.296 8  -1760003.23446  22827416.153    22827423.7604
  20842404.034   -21765551.691 9 -16941627.30448  20842408.271    20842415.5524
 00  4  3  3 35 30.0000000  0  7 03 17 26 09 29 21 23
  24574771.743    -1650797.920 7  -1274935.71044  24574773.092    24574783.1644
  21012199.086   -20184467.114 9 -15709762.16747  21012199.999    21012209.0474
  23560018.516    -6792992.635 8  -4996214.65545  23560014.939    23560023.0654
  20739729.996   -19757839.203 9 -15370281.91248  20739732.866    20739740.7964
  22474365.998   -12368418.172 8  -9625682.64746  22474367.984    22474375.6984
  22812525.701    -2352637.126 8  -1820975.56046  22812525.711    22812533.3864
  20837781.987   -21789840.727 9 -16960553.80448  20837786.478    20837793.5494
 00  4  3  3 36  0.0000000  0  7 03 17 26 09 29 21 23
  24581290.526    -1616520.632 7  -1248226.18044  24581293.901    24581305.3404
  21026818.278   -20107641.323 9 -15649897.99747  21026819.635    21026828.2704
  23578056.154    -6698128.490 8  -4922294.61845  23578066.793    23578076.1874
  20739400.929   -19759563.370 9 -15371625.39148  20739404.738    20739412.3654
  22461468.964   -12436195.877 8  -9678496.36646  22461469.881    22461478.3304
  22797634.475    -2430865.614 8  -1881932.83446  22797639.416    22797646.8944
  20833208.575   -21813888.001 9 -16979291.93748  20833210.103    20833217.6804
 00  4  3  3 36 30.0000000  0  7 03 17 26 09 29 21 23
  24587899.525    -1581836.128 7  -1221199.38444  24587892.990    24587903.9904
  21041532.669   -20030311.389 9 -15589640.97447  21041535.222    21041543.9404
  23596124.257    -6603239.804 8  -4848355.44846  23596124.550    23596132.8574
  20739194.652   -19760653.272 9 -15372474.64648  20739197.545    20739205.0634
  22448610.147   -12503743.086 8  -9731130.49146  22448614.884    22448624.7574
  22782754.110    -2509084.516 8  -1942882.57446  22782754.729    22782762.1774
  20828678.266   -21837685.143 9 -16997835.15748  20828682.117    20828689.1074
 00  4  3  3 37  0.0000000  0  6 17 26 09 29 21 23
  21056342.864   -19952474.047 9 -15528988.58147  21056346.751    21056356.2494
  23614178.411    -6508354.970 8  -4774419.23045  23614180.245    23614187.9894
  20739106.740   -19761112.426 9 -15372832.40448  20739109.960    20739117.7444
  22435797.537   -12571075.107 8  -9783596.91946  22435802.105    22435811.8954
  22767872.402    -2587289.427 8  -2003821.43746  22767873.163    22767880.7234
  20824195.004   -21861247.012 9 -17016195.04948  20824198.228    20824205.3204
 00  4  3  3 37 30.0000000  0  6 17 26 09 29 21 23
  21071253.263   -19874122.623 9 -15467935.61147  21071257.011    21071266.3104
  23632231.388    -6413482.623 8  -4700492.76045  23632232.108    23632240.8804
  20739144.326   -19760929.384 9 -15372689.75148  20739144.615    20739152.3554
  22423027.102   -12638197.683 8  -9835900.13546  22423030.152    22423038.8804
  22752992.867    -2665463.052 8  -2064735.93346  22752996.818    22753003.4984
  20819751.288   -21884597.521 9 -17034390.23448  20819754.100    20819761.8104
 00  4  3  3 38  0.0000000  0  6 17 26 09 29 21 23
  21086261.565   -19795259.642 9 -15406484.01547  21086264.253    21086273.6554
  23650282.556    -6318614.560 8  -4626569.63045  23650286.176    23650294.5714
  20739296.197   -19760112.422 9 -15372053.13648  20739300.222    20739307.6724
  22410299.618   -12705096.473 8  -9888028.98946  22410299.798    22410307.7344
  22738124.826    -2743595.385 8  -2125618.23746  22738128.090    22738136.1164
  20815348.416   -21907735.676 9 -17052419.95948  20815351.516    20815359.3104
 00  4  3  3 38 30.0000000  0  7 03 17 26 09 29 21 23
  24615093.570       38141.10517
  21101363.698   -19715904.821 9 -15344649.17347  21101365.367    21101374.2484
  23668327.220    -6223756.572 8  -4552654.33845  23668336.499    23668345.4144
  20739572.995   -19758666.569 9 -15370926.47148  20739575.425    20739582.8934
  22397608.923   -12771757.834 8  -9939972.83946  22397614.272    22397622.0504
  22723270.570    -2821663.817 8  -2186450.77146  22723272.844    22723280.5584
  20810985.839   -21930669.415 9 -17070290.41648  20810987.340    20810994.8254
 00  4  3  3 39  0.0000000  0  7 03 17 26 09 29 21 23
  24622087.357       74921.298 7     47859.96354  24622091.016    24622100.0874
  21116556.825   -19636063.892 9 -15282435.54447  21116558.444    21116567.5464
  23686381.998    -6128910.113 8  -4478748.00745  23686386.269    23686393.1144
  20739971.476   -19756571.032 9 -15369293.56848  20739974.246    20739981.3324
  22384973.041   -12838174.266 8  -9991725.84546  22384976.149    22384984.2514
  22708426.008    -2899663.998 8  -2247230.13346  22708429.176    22708437.6864
  20806655.961   -21953411.975 9 -17088011.88248  20806659.452    20806666.9634
 00  4  3  3 39 30.0000000  0  6 17 26 09 29 21 23
  21131838.847   -19555732.720 9 -15219839.90947  21131844.510    21131854.2014
  23704433.639    -6034053.560 8  -4404833.88245  23704436.214    23704444.1144
  20740494.130   -19753820.641 9 -15367150.38648  20740497.596    20740504.8644
  22372379.808   -12904348.050 8 -10043289.73846  22372383.414    22372392.5044
  22693596.139    -2977594.428 8  -2307955.04946  22693600.005    22693607.2024
  20802368.837   -21975953.720 9 -17105576.86348  20802369.862    20802377.6274
 00  4  3  3 40  0.0000000  0  6 17 26 09 29 21 23
  21147222.620   -19474908.465 9 -15156860.05447  21147225.296    21147234.5184
  23722478.340    -5939193.685 8  -4330917.10345  23722487.252    23722495.1444
  20741140.070   -19750427.782 9 -15364506.58348  20741142.969    20741150.2174
  22359831.849   -12970288.891 8 -10094672.10246  22359834.569    22359843.6474
  22678778.632    -3055459.209 8  -2368628.92646  22678782.104    22678790.3434
  20798120.934   -21998276.669 9 -17122971.37248  20798122.190    20798129.4854
 00  4  3  3 40 30.0000000  0  6 17 26 09 29 21 23
  21162693.642   -19393597.177 9 -15093500.68447  21162698.357    21162707.6014
  23740530.718    -5844338.700 8  -4257004.16145  23740537.794    23740545.7984
  20741906.472   -19746388.593 9 -15361359.13848  20741911.501    20741919.1984
  22347328.300   -13036008.447 8 -10145882.05246  22347328.946    22347337.2254
  22663972.702    -3133262.013 8  -2429254.47546  22663977.202    22663984.8144
  20793915.519   -22020373.834 9 -17140189.95648  20793916.678    20793924.4284
 00  4  3  3 41  0.0000000  0  6 17 26 09 29 21 23
  21178261.704   -19311795.456 9 -15029759.17147  21178264.634    21178274.2544
  23758584.725    -5749476.254 8  -4183085.45645  23758589.071    23758597.9744
  20742802.802   -19741696.063 9 -15357702.59748  20742804.493    20742812.5414
  22334857.403   -13101515.624 8 -10196926.49946  22334863.192    22334871.8684
  22649176.296    -3211018.147 8  -2489843.62546  22649179.525    22649188.7424
  20789758.003   -22042224.006 9 -17157216.06048  20789758.934    20789766.7314
 00  4  3  3 41 30.0000000  0  6 17 26 09 29 21 23
  21193918.841   -19229516.411 9 -14965645.72047  21193921.995    21193931.6064
  23776643.872    -5654594.721 8  -4109151.87945  23776644.949    23776653.3124
  20743815.979   -19736365.539 9 -15353548.92248  20743818.935    20743826.4584
  22322437.124   -13166804.754 8 -10247801.05646  22322439.702    22322448.6614
  22634392.494    -3288716.847 8  -2550388.03146  22634395.175    22634403.0224
  20785648.121   -22063814.273 9 -17174039.63748  20785650.565    20785658.2464
 00  4  3  3 42  0.0000000  0  6 17 26 09 29 21 23
  21209662.109   -19146776.093 9 -14901172.83847  21209666.558    21209676.0124
  23794708.796    -5559703.527 8  -4035210.71545  23794702.549    23794711.1774
  20744952.909   -19730388.405 9 -15348891.39948  20744956.082    20744964.0144
  22310059.788   -13231859.586 8 -10298493.05546  22310059.387    22310067.5624
  22619617.570    -3366348.140 8  -2610879.82246  22619622.438    22619629.7804
  20781590.738   -22085142.832 9 -17190659.28748  20781591.804    20781599.4844
 00  4  3  3 42 30.0000000  0  6 17 26 09 29 21 23
  21225495.909   -19063576.609 9 -14836342.15447  21225499.160    21225508.4024
  23812755.053    -5464792.030 8  -3961253.74545  23812764.479    23812772.3594
  20746215.762   -19723754.740 9 -15343722.29148  20746218.535    20746226.1774
  22297719.783   -13296661.786 8 -10348988.20046  22297727.390    22297735.5464
  22604861.407    -3443907.268 8  -2671315.37246  22604862.903    22604870.2124
  20777576.431   -22106215.981 9 -17207079.91548  20777581.764    20777589.5934
 00  4  3  3 43  0.0000000  0  6 17 26 09 29 21 23
  21241415.946   -18979916.651 9 -14771152.66047  21241419.798    21241428.8204
  23830825.754    -5369858.263 8  -3887279.36145  23830828.619    23830836.9814
  20747601.608   -19716468.172 9 -15338044.42148  20747605.015    20747612.6704
  22285443.010   -13361200.235 8 -10399277.81546  22285446.255    22285455.2054
  22590113.284    -3521401.626 8  -2731700.60346  22590115.735    22590123.3024
  20773614.864   -22127043.600 9 -17223309.24748  20773618.614    20773626.2994
 00  4  3  3 43 30.0000000  0  6 17 26 09 29 21 23
  21257421.718   -18895792.098 9 -14705601.14547  21257427.719    21257437.3364
  23848896.677    -5274921.013 8  -3813302.29645  23848895.406    23848904.0204
  20749114.982   -19708532.287 9 -15331860.60448  20749115.432    20749122.7614
  22273213.419   -13425471.906 8 -10449359.53846  22273215.623    22273225.2264
  22575382.474    -3598830.555 8  -2792034.88646  22575382.517    22575389.8234
  20769695.156   -22147653.233 9 -17239368.70348  20769696.704    20769704.2744
 00  4  3  3 44  0.0000000  0  6 17 26 09 29 21 23
  21273521.658   -18811200.431 9 -14639685.64847  21273525.136    21273534.6174
  23866958.594    -5180004.579 8  -3739341.47645  23866957.023    23866965.2784
  20750747.389   -19699942.929 9 -15325167.58148  20750750.099    20750757.6924
  22261030.341   -13489487.750 8 -10499241.94246  22261034.224    22261042.6624
  22560657.999    -3676209.382 8  -2852329.99946  22560658.007    22560665.4374
  20765814.081   -22168043.122 9 -17255256.92648  20765816.697    20765824.3024
 00  4  3  3 44 30.0000000  0  6 17 26 09 29 21 23
  21289709.390   -18726135.943 9 -14573401.70747  21289712.132    21289721.5284
  23885006.144    -5085118.952 8  -3665404.71845  23885012.804    23885020.5804
  20752504.596   -19690708.918 9 -15317972.23248  20752506.848    20752514.3474
  22248894.765   -13553265.152 8 -10548938.55446  22248898.035    22248906.3994
  22545938.115    -3753553.768 8  -2912598.25946  22545939.780    22545946.9224
  20761976.866   -22188206.540 9 -17270968.69048  20761979.841    20761987.1324
 00  4  3  3 45  0.0000000  0  6 17 26 09 29 21 23
  21305981.469   -18640604.006 9 -14506753.51847  21305988.389    21305997.3324
  23903053.632    -4990270.317 8  -3591496.70045  23903061.241    23903069.0944
  20754382.646   -19680830.861 9 -15310275.02348  20754386.576    20754394.3524
  22236800.173   -13616821.840 8 -10598463.17746  22236803.807    22236811.9084
  22531228.244    -3830851.225 8  -2972830.09146  22531229.583    22531237.5184
  20758181.679   -22208145.566 9 -17286505.59148  20758185.580    20758192.7664
 00  4  3  3 45 30.0000000  0  6 17 26 09 29 21 23
  21322349.358   -18554613.075 9 -14439747.68047  21322352.361    21322361.9004
  23921095.090    -4895457.056 8  -3517616.24345  23921103.652    23921112.2714
  20756385.881   -19670313.556 9 -15302079.69548  20756388.167    20756395.5534
  22224747.071   -13680164.216 8 -10647820.79146  22224749.926    22224757.8374
  22516535.079    -3908082.863 8  -3033010.58746  22516533.183    22516541.5144
  20754437.359   -22227839.525 9 -17301851.53348  20754437.832    20754445.3734
 00  4  3  3 46  0.0000000  0  6 17 26 09 29 21 23
  21338800.991   -18468169.240 9 -14372388.93547  21338802.083    21338811.5794
  23939144.037    -4800671.236 8  -3443757.23745  23939141.819    23939150.0114
  20758508.557   -19659159.861 9 -15293388.49648  20758510.492    20758518.1924
  22212734.747   -13743291.059 8 -10697010.44346  22212736.672    22212745.5204
  22501844.634    -3985234.406 8  -3093128.66946  22501851.635    22501860.0504
  20750737.291   -22247270.597 9 -17316992.62048  20750740.075    20750747.3844
 00  4  3  3 46 30.0000000  0  6 17 26 09 29 21 23
  21355333.814   -18381273.514 9 -14304678.06847  21355338.585    21355347.9594
  23957173.350    -4705891.193 8  -3369902.71445  23957178.131    23957186.3664
  20760752.142   -19647369.622 9 -15284201.28048  20760754.036    20760761.3934
  22200763.855   -13806192.057 8 -10746024.12147  22200767.379    22200775.7404
  22487187.846    -4062289.284 8  -3153171.46146  22487188.901    22487196.9984
  20747087.187   -22266451.598 9 -17331938.85348  20747090.124    20747097.4344
 00  4  3  3 47  0.0000000  0  6 17 26 09 29 21 23
  21371950.846   -18293941.036 9 -14236626.87247  21371957.320    21371966.2204
  23975210.776    -4611105.031 8  -3296043.42945  23975214.923    23975223.0154
  20763112.933   -19634954.582 9 -15274527.19748  20763116.413    20763124.0654
  22188843.062   -13868847.430 8 -10794846.44347  22188844.769    22188852.4234
  22472538.990    -4139245.079 8  -3213136.98846  22472544.271    22472553.1244
  20743484.416   -22285392.258 9 -17346697.81448  20743485.884    20743493.0164
 00  4  3  3 47 30.0000000  0  6 17 26 09 29 21 23
  21388656.851   -18206179.385 9 -14168241.25747  21388657.411    21388666.5874
  23993257.871    -4516319.688 8  -3222184.73245  23993253.136    23993259.1044
  20765593.325   -19621919.443 9 -15264369.92647  20765596.683    20765604.5864
  22176969.125   -13931244.089 8 -10843467.13746  22176970.317    22176978.1004
  22457915.733    -4216128.120 8  -3273045.86246  22457914.440    22457922.5034
  20739923.539   -22304090.023 9 -17361267.49048  20739927.893    20739934.9064
 00  4  3  3 48  0.0000000  0  6 17 26 09 29 21 23
  21405436.514   -18117986.955 9 -14099519.96647  21405439.955    21405449.1434
  24011289.382    -4421540.130 8  -3148330.49345  24011288.639    24011296.2594
  20768189.568   -19608254.893 9 -15253722.21248  20768197.007    20768204.9584
  22165142.423   -13993383.778 8 -10891887.61546  22165145.779    22165153.1134
  22443295.434    -4292947.321 8  -3332904.89446  22443295.900    22443304.9934
  20736409.289   -22322564.584 9 -17375663.24748  20736412.213    20736419.4704
 00  4  3  3 48 30.0000000  0  6 17 26 09 29 21 23
  21422293.078   -18029372.356 8 -14030469.71647  21422302.301    21422312.0504
  24029319.252    -4326767.248 8  -3074481.48245  24029322.770    24029331.2714
  20770912.631   -19593965.280 9 -15242587.43047  20770916.422    20770923.8904
  22153367.865   -14055258.830 8 -10940101.89447  22153371.724    22153378.8474
  22428684.150    -4369713.017 8  -3392722.24246  22428687.200    22428696.4674
  20732937.071   -22340812.559 9 -17389882.44248  20732939.840    20732947.1794
 00  4  3  3 49  0.0000000  0  6 17 26 09 29 21 23
  21439243.623   -17940334.315 8 -13961089.50047  21439245.959    21439255.3254
  24047364.317    -4232012.232 8  -3000646.46245  24047354.224    24047362.8504
  20773750.668   -19579048.635 9 -15230964.05747  20773754.920    20773762.6144
  22141642.254   -14116876.707 8 -10988115.77047  22141646.555    22141653.5994
  22414086.175    -4446437.720 8  -3452507.73247  22414087.113    22414096.3884
  20729512.196   -22358816.638 9 -17403911.59148  20729513.859    20729521.1304
 00  4  3  3 49 30.0000000  0  6 17 26 09 29 21 23
  21456269.329   -17850858.190 8 -13891367.92347  21456272.390    21456282.4604
  24065373.356    -4137278.710 8  -2926828.22345  24065381.003    24065390.8514
  20776713.709   -19563489.240 9 -15218839.84047  20776715.909    20776723.4024
  22129960.561   -14178256.099 8 -11035943.79947  22129965.584    22129973.0914
  22399494.422    -4523106.730 8  -3512249.78247  22399497.938    22399506.2484
  20726133.758   -22376566.981 9 -17417743.01748  20726136.085    20726143.5504
 00  4  3  3 50  0.0000000  0  6 17 26 09 29 21 23
  21473380.588   -17760938.291 8 -13821300.54847  21473383.962    21473393.6744
  24083395.262    -4042556.175 8  -2853018.49945  24083406.475    24083414.9324
  20779795.762   -19547291.474 9 -15206218.18347  20779798.222    20779805.8194
  22118326.642   -14239399.047 8 -11083587.60547  22118330.114    22118338.0564
  22384921.849    -4599692.253 8  -3571926.73547  22384924.602    22384932.4804
  20722805.617   -22394057.701 9 -17431372.14448  20722807.663    20722815.0944
 00  4  3  3 50 30.0000000  0  7 17 15 26 09 29 21 23
  21490574.800   -17670570.694 8 -13750884.34247  21490580.569    21490589.8294
  24237277.823    -1738647.43817  -1330028.79655  24237279.235    24237290.5094
  24101428.489    -3947838.413 8  -2779212.47145  24101430.392    24101438.8764
  20782997.438   -19530464.068 9 -15193105.90647  20783000.451    20783007.3854
  22106736.401   -14300308.297 8 -11131049.30647  22106739.533    22106747.0694
  22370365.238    -4676189.512 8  -3631534.97647  22370366.893    22370376.3054
  20719525.585   -22411282.940 9 -17444794.40048  20719529.585    20719537.3584
 00  4  3  3 51  0.0000000  0  7 17 15 26 09 29 21 23
  21507863.365   -17579745.801 8 -13680111.78447  21507864.309    21507873.8104
  24217400.570    -1843074.991 7  -1411400.87345  24217406.042    24217416.9754
  24119450.373    -3853133.408 7  -2705416.41645  24119452.625    24119460.6924
  20786321.502   -19513003.448 9 -15179500.21347  20786323.155    20786330.5534
  22095187.243   -14361002.070 8 -11178343.09047  22095190.610    22095198.6524
  22355825.825    -4752597.170 8  -3691073.34547  22355827.682    22355835.8264
  20716298.329   -22428246.509 9 -17458012.77048  20716301.432    20716309.2634
 00  4  3  3 51 30.0000000  0  7 17 15 26 09 29 21 23
  21525231.330   -17488468.192 8 -13608986.45447  21525233.441    21525243.1954
  24197575.495    -1947281.138 7  -1492600.40345  24197577.798    24197588.3624
  24137463.793    -3758451.167 8  -2631638.10745  24137470.744    24137477.4074
  20789760.094   -19494924.144 9 -15165412.42847  20789762.980    20789771.0634
  22083677.941   -14421474.504 8 -11225464.38547  22083682.853    22083690.5184
  22341305.024    -4828897.849 8  -3750528.35947  22341307.429    22341315.9484
  20713119.169   -22444960.951 9 -17471037.00148  20713120.957    20713128.6394
 00  4  3  3 52  0.0000000  0  7 17 15 26 09 29 21 23
  21542682.890   -17396750.336 8 -13537518.07747  21542686.635    21542696.8754
  24177783.528    -2051262.671 7  -1573624.73445  24177788.611    24177798.7274
  24155474.425    -3663805.052 8  -2557887.91145  24155481.398    24155488.8904
  20793318.329   -19476231.378 9 -15150846.62647  20793319.863    20793328.0504
  22072214.171   -14481726.401 8 -11272413.85247  22072217.368    22072224.7684
  22326807.799    -4905093.139 8  -3809901.31347  22326807.727    22326815.8494
  20709987.758   -22461424.126 9 -17483865.45948  20709988.382    20709995.8454
 00  4  3  3 52 30.0000000  0  7 17 15 26 09 29 21 23
  21560219.891   -17304596.703 8 -13465710.13047  21560223.013    21560232.7654
  24158040.784    -2155017.610 7  -1654472.70845  24158044.542    24158055.3124
  24173475.581    -3569207.061 7  -2484175.26645  24173481.466    24173489.7884
  20796995.067   -19456915.188 9 -15135795.03747  20796996.199    20797003.9304
  22060788.928   -14541765.046 8 -11319197.16847  22060791.799    22060799.2444
  22312322.691    -4981201.522 8  -3869206.52147  22312325.487    22312333.6374
  20706899.547   -22477636.207 9 -17496498.24548  20706903.503    20706910.7674
 00  4  3  3 53  0.0000000  0  7 17 15 26 09 29 21 23
  21577837.128   -17212021.293 8 -13393573.53047  21577839.891    21577849.3654
  24138339.451    -2258542.473 7  -1735141.28745  24138345.579    24138355.6544
  24191457.235    -3474660.950 7  -2410502.97745  24191473.099    24191481.6014
  20800786.777   -19436960.810 9 -15120246.15647  20800792.833    20800801.3484
  22049405.218   -14601578.545 8 -11365805.01447  22049409.491    22049418.0024
  22297858.954    -5057219.101 9  -3928440.93847  22297860.763    22297868.1374
  20703863.420   -22493600.843 9 -17508938.20248  20703865.489    20703873.1354
 00  4  3  3 53 30.0000000  0  7 17 15 26 09 29 21 23
  21595526.613   -17119042.668 8 -13321122.75847  21595533.288    21595543.1284
  24118690.446    -2361834.536 7  -1815628.56645  24118688.731    24118698.6404
  24209458.388    -3380148.845 8  -2336857.24945  24209458.959    24209466.8834
  20804710.465   -19416369.661 9 -15104201.10147  20804711.735    20804719.3264
  22038069.336   -14661152.940 8 -11412226.54347  22038072.264    22038081.5434
  22283410.536    -5133141.051 9  -3987600.76847  22283412.230    22283420.7404
  20700873.474   -22509313.321 9 -17521181.67048  20700875.254    20700882.8204
 00  4  3  3 54  0.0000000  0  7 17 15 26 09 29 21 23
  21613300.208   -17025672.306 8 -13248366.71647  21613300.986    21613310.3684
  24099073.427    -2464891.046 7  -1895932.33745  24099078.141    24099088.2334
  24227436.567    -3285650.845 8  -2263222.44745  24227441.251    24227448.8664
  20808752.369   -19395125.977 9 -15087647.57247  20808754.316    20808761.3254
  22026776.202   -14720499.758 8 -11458470.75047  22026778.471    22026787.6164
  22268974.631    -5208994.430 8  -4046707.24247  22268978.083    22268985.8964
  20697929.793   -22524771.527 9 -17533227.02648  20697933.460    20697940.9894
 00  4  3  3 54 30.0000000  0  7 17 15 26 09 29 21 23
  21631142.355   -16931909.025 8 -13175304.50947  21631143.172    21631153.8874
  24079505.092    -2567709.029 7  -1976050.17245  24079512.562    24079521.8914
  24245415.483    -3191153.050 8  -2189587.92545  24245422.967    24245432.0804
  20812918.804   -19373224.865 9 -15070581.75647  20812921.828    20812929.2854
  22015527.894   -14779607.318 8 -11504528.52347  22015531.445    22015538.5534
  22254552.850    -5284779.231 8  -4105760.35047  22254556.586    22254564.3544
  20695036.063   -22539982.098 9 -17545079.41048  20695038.990    20695046.1764
 00  4  3  3 55  0.0000000  0  7 17 15 26 09 29 21 23
  21649054.486   -16837759.668 8 -13101941.46447  21649059.817    21649069.3084
  24059994.896    -2670285.675 7  -2055979.96845  24059992.207    24060002.1134
  24263398.864    -3096656.496 8  -2115954.31645  24263404.689    24263413.2254
  20817209.990   -19350679.176 9 -15053013.68447  20817212.440    20817219.7224
  22004327.765   -14838465.451 8 -11550391.92447  22004331.694    22004338.8114
  22240150.839    -5360484.624 9  -4164751.58147  22240150.878    22240157.5774
  20692192.426   -22554928.234 9 -17556725.72748  20692194.842    20692202.4184
 00  4  3  3 55 30.0000000  0  7 17 15 26 09 29 21 23
  21667045.461   -16743220.834 8 -13028274.93047  21667049.877    21667059.7744
  24040515.989    -2772617.697 7  -2135719.18445  24040520.738    24040527.9154
  24281374.816    -3002177.735 8  -2042334.43845  24281383.611    24281392.5984
  20821617.273   -19327511.521 9 -15034960.95047  20821620.655    20821628.4174
  21993173.103   -14897087.998 8 -11596071.76047  21993175.945    21993183.4494
  22225752.043    -5436111.668 8  -4223681.76147  22225759.101    22225767.2104
  20689398.455   -22569593.578 9 -17568153.25548  20689404.433    20689411.6124
 00  4  3  3 56  0.0000000  0  7 17 15 26 09 29 21 23
  21685114.362   -16648273.473 8 -12954290.06847  21685117.969    21685128.1634
  24021100.997    -2874702.942 7  -2215266.05045  24021093.907    24021101.4364
  24299350.611    -2907742.601 8  -1968748.71945  24299355.352    24299363.8994
  20826145.816   -19303721.144 9 -15016422.98847  20826147.666    20826155.3344
  21982059.530   -14955478.536 8 -11641570.81847  21982064.233    21982072.4524
  22211385.111    -5511649.055 9  -4282542.05347  22211384.808    22211393.0554
  20686663.916   -22583976.738 9 -17579360.90948  20686666.990    20686674.5044
 00  4  3  3 56 30.0000000  0  7 17 15 26 09 29 21 23
  21703260.750   -16552907.985 8 -12879979.39247  21703266.112    21703275.1434
  24001708.359    -2976537.962 8  -2294617.94245  24001716.558    24001724.0964
  24317312.885    -2813365.627 8  -1895208.33345  24317314.641    24317322.8044
  20830790.698   -19279321.500 9 -14997410.27347  20830791.610    20830798.4204
  21970995.598   -15013621.417 8 -11686876.87447  21970999.730    21971008.1214
  22197028.244    -5587066.106 8  -4341308.59547  22197033.416    22197041.1794
  20683983.441   -22598059.795 9 -17590334.69848  20683987.221    20683994.3504
 00  4  3  3 57  0.0000000  0  7 17 15 26 09 29 21 23
  21721484.842   -16457139.386 8 -12805354.57847  21721489.568    21721500.1674
  23982389.162    -3078119.813 8  -2373772.49945  23982385.689    23982392.3464
  24335254.985    -2719050.055 8  -1821715.72245  24335262.591    24335270.0894
  20835544.819   -19254332.334 9 -14977938.17847  20835546.459    20835553.8104
  21959983.115   -15071514.042 8 -11731987.92547  21959983.857    21959991.9694
  22182700.744    -5662373.262 8  -4399989.43147  22182702.460    22182710.1284
  20681359.986   -22611843.043 9 -17601074.87048  20681364.294    20681371.5684
 00  4  3  3 57 30.0000000  0  7 17 15 26 09 29 21 23
  21739788.146   -16360960.796 8 -12730410.31747  21739792.117    21739801.4134
  23963103.967    -3179446.203 8  -2452727.95645  23963104.685    23963112.0804
  24353200.525    -2624788.107 8  -1748264.87645  24353199.111    24353207.6214
  20840414.926   -19228745.844 9 -14958000.64048  20840415.574    20840423.0504
  21949010.578   -15129165.060 8 -11776910.71547  21949013.003    21949021.0374
  22168391.007    -5737576.700 8  -4458589.52247  22168391.413    22168399.4084
  20678790.473   -22625357.669 9 -17611605.74048  20678792.570    20678799.6024
 00  4  3  3 58  0.0000000  0  7 17 15 26 09 29 21 23
  21758166.550   -16264385.624 8 -12655157.00447  21758169.610    21758179.5594
  23943870.258    -3280513.916 8  -2531482.00245  23943872.631    23943878.9884
  24371129.587    -2530561.674 8  -1674841.75545  24371129.907    24371138.5754
  20845398.819   -19202542.644 9 -14937582.55248  20845401.793    20845409.0784
  21938085.340   -15186565.114 8 -11821637.92447  21938089.447    21938097.5274
  22154096.710    -5812683.639 8  -4517114.35547  22154098.974    22154107.6854
  20676267.903   -22638610.317 9 -17621932.48448  20676270.499    20676277.9754
 00  4  3  3 58 30.0000000  0  7 17 15 26 09 29 21 23
  21776617.526   -16167434.767 8 -12579610.95747  21776619.117    21776628.4204
  23924689.173    -3381320.217 8  -2610032.45345  23924689.531    23924696.6304
  24389057.908    -2436357.566 8  -1601436.10445  24389057.048    24389065.5064
  20850504.567   -19175720.260 9 -14916681.98048  20850506.001    20850513.7514
  21927213.254   -15243708.034 8 -11866164.80947  21927215.486    21927223.7914
  22139816.996    -5887707.972 8  -4575574.82147  22139822.227    22139830.8304
  20673793.994   -22651606.032 9 -17632059.00848  20673797.540    20673804.7594
 00  4  3  3 59  0.0000000  0  7 17 15 26 09 29 21 23
  21795135.304   -16070113.133 8 -12503775.98647  21795138.721    21795148.8434
  23905550.409    -3481862.100 8  -2688376.81945  23905555.195    23905562.8824
  24406974.027    -2342179.705 7  -1528050.74645  24406978.674    24406987.3844
  20855728.804   -19148266.389 9 -14895289.33648  20855730.547    20855737.8304
  21916387.512   -15300607.170 8 -11910501.69047  21916388.264    21916395.7774
  22125557.340    -5962656.594 8  -4633976.33447  22125560.168    22125568.9324
  20671367.768   -22664362.523 9 -17641999.13348  20671370.256    20671377.3854
 00  4  3  3 59 30.0000000  0  7 17 15 26 09 29 21 23
  21813730.433   -15972403.999 8 -12427639.06547  21813731.967    21813741.6884
  23886471.635    -3582136.899 8  -2766513.15145  23886474.637    23886480.6924
  24424892.110    -2248039.571 7  -1454694.79745  24424892.238    24424902.1174
  20861073.804   -19120169.264 9 -14873395.45748  20861076.532    20861084.0924
  21905601.353   -15357271.586 8 -11954655.67347  21905605.678    21905612.4004
  22111317.195    -6037506.732 8  -4692301.12147  22111316.830    22111325.2704
  20668988.722   -22676867.022 9 -17651742.89848  20668990.819    20668998.0374
 00  4  3  4  0  0.0000000  0  7 17 15 26 09 29 21 23
  21832390.598   -15874323.086 8 -12351212.45047  21832396.489    21832406.5844
  23867444.747    -3682141.612 8  -2844439.22645  23867446.512    23867451.9494
  24442795.046    -2153944.442 7  -1381374.11245  24442797.747    24442807.3984
  20866538.599   -19091444.727 9 -14851012.68847  20866542.682    20866550.2854
  21894864.734   -15413700.784 8 -11998626.36147  21894867.707    21894874.9164
  22097091.718    -6112240.851 8  -4750535.49147  22097094.969    22097103.0934
  20666660.524   -22689103.101 9 -17661277.48948  20666662.120    20666669.5694
 00  4  3  4  0 30.0000000  0  7 17 15 26 09 29 21 23
  21851129.063   -15775866.136 8 -12274492.82347  21851131.965    21851142.4024
  23848467.066    -3781872.471 7  -2922151.40045  23848466.140    23848474.5304
  24460697.294    -2059894.672 7  -1308088.69645  24460694.823    24460704.0594
  20872123.070   -19062115.102 9 -14828158.42448  20872124.616    20872131.7384
  21884170.378   -15469895.215 8 -12042414.11847  21884173.750    21884181.0724
  22082895.090    -6186847.029 8  -4808670.15547  22082898.004    22082905.2104
  20664381.190   -22701077.488 9 -17670608.17648  20664383.826    20664390.9714
 00  4  3  4  1  0.0000000  0  7 17 15 26 09 29 21 23
  21869938.439   -15677029.262 8 -12197477.13447  21869940.301    21869950.3274
  23829536.335    -3881327.394 7  -2999648.63945  23829539.771    23829548.4774
  24478579.570    -1965892.360 7  -1234840.24745  24478582.873    24478591.6644
  20877813.723   -19032200.134 9 -14804848.04248  20877817.044    20877824.1174
  21873522.207   -15525859.295 8 -12086022.42947  21873523.983    21873531.4744
  22068723.828    -6261320.191 8  -4866701.17847  22068725.921    22068733.9434
  20662153.846   -22712785.944 9 -17679731.65548  20662155.671    20662162.8814
 00  4  3  4  1 30.0000000  0  7 17 15 26 09 29 21 23
  21888817.288   -15577825.328 8 -12120175.42547  21888818.273    21888828.1374
  23810656.657    -3980503.121 7  -3076928.39445  23810666.104    23810673.9764
  24496463.488    -1871928.104 7  -1161621.47845  24496463.944    24496473.5644
  20883617.353   -19001708.805 9 -14781088.55148  20883619.436    20883626.6034
  21862913.807   -15581587.501 8 -12129446.93647  21862919.082    21862926.4514
  22054575.512    -6335666.001 8  -4924632.96147  22054577.955    22054586.7144
  20659977.837   -22724219.177 9 -17688640.65248  20659980.041    20659987.3004
 00  4  3  4  2  0.0000000  0  8 17 15 26 09 29 21 23 05
  21907760.973   -15478269.129 8 -12042599.22747  21907763.512    21907773.1844
  23791853.075    -4079397.099 8  -3153988.54445  23791848.551    23791856.0104
  24514332.644    -1777986.691 7  -1088420.53245  24514341.462    24514349.5464
  20889528.418   -18970638.060 9 -14756877.57548  20889531.954    20889539.1344
  21852356.608   -15637077.787 8 -12172686.08047  21852359.632    21852366.9764
  22040450.175    -6409901.658 8  -4982478.89447  22040452.544    22040460.7514
  20657852.740   -22735379.495 9 -17697336.99548  20657855.976    20657863.6974
  24528812.595
 00  4  3  4  2 30.0000000  0  8 17 15 26 09 29 21 23 05
  21926771.456   -15378353.974 8 -11964743.32547  21926776.380    21926786.1534
  23773079.477    -4178006.354 8  -3230826.73345  23773083.803    23773090.7644
  24532210.806    -1684069.978 7  -1015238.74345  24532212.896    24532221.0924
  20895554.953   -18938975.505 9 -14732205.42948  20895556.953    20895564.3914
  21841841.664   -15692327.212 8 -12215737.52747  21841845.880    21841853.4534
  22026337.862    -6484039.361 8  -5040248.51047  22026344.217    22026352.5654
  20655784.921   -22746257.672 9 -17705813.51948  20655785.919    20655793.7354
  24513565.887      -94783.51017
 00  4  3  4  3  0.0000000  0  8 17 15 26 09 29 21 23 05
  21945853.367   -15278077.469 8 -11886605.85746  21945857.762    21945869.0764
  23754366.436    -4276328.328 8  -3307441.31345  23754374.097    23754381.1074
  24550069.556    -1590188.354 7   -942084.36945  24550078.368    24550086.3744
  20901698.145   -18906702.716 9 -14707057.79247  20901698.403    20901705.5994
  21831370.677   -15747347.321 8 -12258610.34547  21831375.513    21831383.3234
  22012250.809    -6558081.112 8  -5097943.38747  22012254.445    22012262.3884
  20653772.053   -22756833.445 9 -17714054.38348  20653773.533    20653780.7454
  24498292.176     -174881.889 7   -117102.48055  24498319.357    24498334.0504
 00  4  3  4  3 30.0000000  0  8 17 15 26 09 29 21 23 05
  21965008.338   -15177448.112 8 -11808193.44246  21965007.435    21965018.0134
  23735713.621    -4374359.793 7  -3383829.34545  23735717.785    23735728.6714
  24567930.728    -1496345.566 7   -868960.14045  24567936.360    24567945.4234
  20907954.004   -18873805.512 9 -14681423.59547  20907958.262    20907965.7244
  21820949.072   -15802147.276 8 -12301311.57647  21820948.042    21820955.0034
  21998179.877    -6632018.671 8  -5155557.05347  21998184.114    21998193.1564
  20651817.920   -22767101.859 9 -17722055.73648  20651819.462    20651826.6664
  24483085.818     -254927.926 7   -179475.81045  24483085.722    24483099.4844
 00  4  3  4  4  0.0000000  0  8 17 15 26 09 29 21 23 05
  21984223.305   -15076462.569 8 -11729503.46647  21984224.201    21984235.3394
  23717111.340    -4472097.997 8  -3459988.88745  23717119.190    23717129.6784
  24585781.204    -1402548.019 7   -795871.23645  24585784.945    24585793.9024
  20914334.231   -18840287.444 9 -14655305.61147  20914336.341    20914343.6284
  21810555.965   -15856727.053 8 -12343841.20747  21810561.786    21810568.6154
  21984135.749    -6705842.798 8  -5213082.31547  21984136.583    21984144.7544
  20649920.504   -22777062.530 9 -17729817.30748  20649924.123    20649931.2934
  24467868.695     -334924.915 7   -241810.97645  24467861.426    24467876.2314
 00  4  3  4  4 30.0000000  0  8 17 15 26 09 29 21 23 05
  22003500.435   -14975121.076 8 -11650536.13047  22003509.331    22003520.0974
  23698573.362    -4569539.599 8  -3535917.43145  23698577.234    23698583.4594
  24603614.825    -1308812.566 7   -722830.77745  24603622.780    24603631.9944
  20920830.087   -18806147.293 9 -14628702.89247  20920832.608    20920840.3064
  21800214.234   -15911085.821 8 -12386198.64347  21800217.397    21800224.5414
  21970114.520    -6779536.823 8  -5270506.21547  21970113.023    21970121.3524
  20648084.289   -22786718.573 9 -17737341.48448  20648086.903    20648093.8584
  24452663.895     -414880.850 7   -304114.11845  24452646.704    24452661.1244
 00  4  3  4  5  0.0000000  0  8 17 15 26 09 29 21 23 05
  22022858.408   -14873423.283 8 -11571291.15846  22022861.285    22022871.8634
  23680089.857    -4666681.754 8  -3611612.58545  23680093.044    23680100.1184
  24621444.796    -1215142.242 7   -649841.06445  24621447.533    24621456.5604
  20927441.646   -18771386.453 9 -14601616.51247  20927447.694    20927454.9594
  21789910.968   -15965221.770 8 -12428382.47547  21789915.511    21789923.5074
  21956111.096    -6853095.316 8  -5327824.48247  21956115.220    21956123.9074
  20646300.189   -22796086.210 9 -17744640.95148  20646304.055    20646311.1654
  24437440.495     -494785.216 7   -366377.09445  24437442.321    24437458.0054
 00  4  3  4  5 30.0000000  0  8 17 15 26 09 29 21 23 05
  22042280.570   -14771369.242 8 -11491768.59146  22042281.558    22042291.7474
  23661664.000    -4763521.690 8  -3687072.12845  23661663.950    23661672.1464
  24639259.922    -1121537.589 7   -576902.52445  24639260.831    24639269.6984
  20934177.481   -18736012.566 9 -14574052.43347  20934179.442    20934186.4474
  21779655.652   -16019116.604 8 -12470378.42747  21779659.411    21779667.4784
  21942143.374    -6926513.776 9  -5385033.65647  21942144.402    21942153.2434
  20644570.417   -22805180.536 9 -17751727.43348  20644573.434    20644580.5814
  24422239.848     -574621.839 7   -428587.31745  24422248.974    24422264.1134
 00  4  3  4  6  0.0000000  0  8 17 15 26 09 29 21 23 05
  22061763.223   -14668948.888 8 -11411960.61446  22061771.706    22061782.3114
  23643285.941    -4860056.508 7  -3762293.91045  23643291.750    23643301.8494
  24657057.042    -1027999.978 7   -504016.17645  24657059.905    24657068.3494
  20941023.856   -18700031.538 9 -14546015.26547  20941026.343    20941033.5824
  21769449.464   -16072754.555 8 -12512174.24347  21769452.651    21769460.5194
  21928199.944    -6999798.291 9  -5442138.42147  21928198.787    21928207.1704
  20642891.141   -22814007.776 9 -17758605.79348  20642893.955    20642900.8324
  24407067.479     -654375.355 7   -490732.78045  24407073.547    24407087.0924
 00  4  3  4  6 30.0000000  0  8 17 15 26 09 29 21 23 05
  22081329.608   -14566160.815 8 -11331866.09446  22081331.159    22081341.8664
  23624980.440    -4956283.427 8  -3837275.78245  23624982.728    23624990.1844
  24674842.078     -934525.167 7   -431178.80645  24674846.706    24674857.5574
  20947984.376   -18663448.955 9 -14517509.35947  20947987.811    20947995.2814
  21759292.399   -16126136.805 8 -12553770.75847  21759294.941    21759301.6854
  21914275.121    -7072952.204 8  -5499141.48047  21914277.898    21914285.7444
  20641262.511   -22822571.815 9 -17765279.06348  20641264.036    20641271.1364
  24391909.092     -734023.807 7   -552796.33345  24391917.948    24391928.7574
 00  4  3  4  7  0.0000000  0  8 17 15 26 09 29 21 23 05
  22100955.434   -14463010.401 8 -11251489.21846  22100960.371    22100970.6764
  23606721.955    -5052199.669 7  -3912015.64745  23606728.799    23606737.0404
  24692608.265     -841098.917 7   -358379.20045  24692624.340    24692635.0564
  20955054.998   -18626282.525 9 -14488548.49047  20955060.236    20955067.8144
  21749184.581   -16179261.983 8 -12595166.96047  21749185.622    21749192.0544
  21900378.379    -7145984.079 9  -5556049.42747  21900380.981    21900388.3454
  20639683.326   -22830866.955 9 -17771742.81348  20639685.320    20639692.7014
  24376787.185     -813561.201 7   -614773.34445  24376782.751    24376793.6084
 00  4  3  4  7 30.0000000  0  8 17 15 26 09 29 21 23 05
  22120649.559   -14359521.364 8 -11170848.51047  22120653.956    22120665.1924
  23588536.071    -5147802.382 8  -3986511.15045  23588538.059    23588544.7824
  24710392.309     -747710.095 7   -285608.80445  24710395.795    24710406.3434
  20962241.402   -18588546.768 9 -14459144.00247  20962241.469    20962248.4404
  21739120.050   -16232126.181 8 -12636359.80947  21739125.003    21739132.4904
  21886504.506    -7218893.945 9  -5612862.30347  21886505.963    21886513.9874
  20638157.833   -22838877.878 9 -17777985.09748  20638160.844    20638168.3754
  24361656.869     -892992.326 7   -676667.56145  24361665.536    24361678.8204
 00  4  3  4  8  0.0000000  0  8 17 15 26 09 29 21 23 05
  22140405.516   -14255711.863 8 -11089958.09447  22140409.151    22140419.2764
  23570397.311    -5243088.340 8  -4060759.78345  23570404.289    23570412.9924
  24728160.526     -654354.676 7   -212864.44045  24728162.069    24728171.0904
  20969527.923   -18550249.804 9 -14429302.20647  20969528.950    20969535.5744
  21729107.670   -16284744.355 8 -12677360.98147  21729112.088    21729119.5514
  21872654.085    -7291679.333 9  -5669578.14647  21872655.650    21872663.2844
  20636690.514   -22846594.640 9 -17783998.15248  20636692.431    20636699.7494
  24346572.548     -972327.630 7   -738487.05745  24346567.219    24346578.6554
 00  4  3  4  8 30.0000000  0  8 17 15 26 09 29 21 23 05
  22160215.759   -14151595.154 8 -11008828.27646  22160221.883    22160231.1704
  23552334.894    -5338054.981 8  -4134759.60145  23552332.215    23552342.0274
  24745924.032     -561037.596 7   -140149.99545  24745919.626    24745928.9904
  20976923.638   -18511380.433 9 -14399014.38447  20976925.350    20976932.3814
  21719141.148   -16337131.125 8 -12718181.85747  21719143.246    21719151.1634
  21858825.482    -7364337.774 9  -5726195.10147  21858829.223    21858836.8634
  20635278.341   -22854003.839 9 -17789771.53848  20635282.563    20635289.9734
  24331476.090    -1051583.583 7   -800244.80045  24331486.947    24331500.5794
 00  4  3  4  9  0.0000000  0  8 17 15 26 09 29 21 23 05
  22180087.914   -14047172.751 8 -10927460.27246  22180092.035    22180103.4724
  23534322.437    -5432699.363 8  -4208508.48045  23534323.227    23534331.6824
  24763678.639     -467768.061 7    -67472.51945  24763669.174    24763677.1594
  20984429.158   -18471939.563 9 -14368281.23647  20984431.088    20984437.8394
  21709218.040   -16389286.644 8 -12758822.50147  21709218.757    21709225.6524
  21845027.482    -7436856.963 9  -5782703.53647  21845029.446    21845037.3594
  20633929.802   -22861089.839 9 -17795293.09548  20633934.136    20633941.6714
  24316417.966    -1130778.965 7   -861955.29145  24316414.681    24316428.7884
 00  4  3  4  9 30.0000000  0  8 17 15 26 09 29 21 23 05
  22200019.690   -13942439.879 8 -10845850.33146  22200022.320    22200032.8284
  23516373.876    -5527018.422 8  -4282003.86745  23516374.803    23516382.1484
  24781394.540     -374562.567 7      5155.05545  24781404.400    24781412.4504
  20992039.899   -18431925.806 9 -14337101.68147  20992044.818    20992052.6584
  21699333.223   -16441219.651 8 -12799289.73447  21699336.347    21699343.1724
  21831255.243    -7509229.008 9  -5839097.28747  21831257.283    21831265.1424
  20632645.466   -22867853.431 9 -17800563.43048  20632647.012    20632654.6454
  24301350.058    -1209907.533 7   -923613.68945  24301357.554    24301370.7304
 00  4  3  4 10  0.0000000  0  8 17 15 26 09 29 21 23 05
  22220012.630   -13837369.861 8 -10763977.68046  22220016.251    22220026.9354
  23498486.314    -5621009.446 7  -4355243.44545  23498486.858    23498497.0854
  24799124.036     -281434.725 7     77722.00345  24799127.172    24799133.6254
  20999765.986   -18391330.697 9 -14305469.11647  20999769.747    20999777.3384
  21689491.040   -16492941.179 8 -12839592.21947  21689493.581    21689501.2524
  21817510.497    -7581448.411 9  -5895372.13747  21817514.475    21817522.2404
  20631419.394   -22874302.093 9 -17805588.36748  20631420.375    20631427.7134
  24286314.419    -1288966.840 7   -985218.12745  24286313.898    24286327.4804
